[[{"header":{"parameterUnit":"m.s-1","parameterCategory":1,"la1":30.6,"la2":29.2853,"lo1":-89.7004,"lo2":-87.6739,"dy":0.0162,"dx":0.0183,"nx":112,"ny":82,"refTime":"2025-08-23T00:00:00:Z","depth":0,"parameterNumber":2,"parameterNumberName":"U-component_of_WINDS"},"data":[0.0,0.0,0.0,0.0,0.0,0.0,0.0,0.0,0.0,0.0,0.0,0.0,0.0,0.0,0.0,0.0,0.0,0.0,0.0,0.0,0.0,0.0,0.0,0.0,0.0,0.0,0.0,0.0,0.0,0.0,0.0,0.0,0.0,0.0,0.0,0.0,0.0,0.0,0.0,0.0,0.0,0.0,0.0,0.0,0.0,0.0,0.0,0.0,0.0,0.0,0.0,0.0,0.0,0.0,0.0,0.0,0.0,0.0,0.0,0.0,0.0,0.0,0.0,0.0,0.0,0.0,0.0,0.0,0.0,0.0,0.0,0.0,0.0,0.0,0.0,0.0,0.0,0.0,0.0,0.0,0.0,0.0,0.0,0.0,0.0,0.0,0.0,0.0,0.0,0.0,2.3793,2.4941,2.683,2.8042,2.8162,2.795,2.6745,2.4199,0.0,0.0,0.0,0.0,0.0,0.0,0.0,0.0,0.0,0.0,0.0,0.0,0.0,0.0,0.0,0.0,0.0,0.0,0.0,0.0,0.0,0.0,0.0,0.0,0.0,0.0,0.0,0.0,0.0,0.0,0.0,0.0,0.0,0.0,0.0,0.0,0.0,0.0,0.0,0.0,0.0,0.0,0.0,0.0,0.0,0.0,0.0,0.0,0.0,0.0,0.0,0.0,0.0,0.0,0.0,0.0,0.0,0.0,0.0,0.0,0.0,0.0,0.0,0.0,0.0,0.0,0.0,0.0,0.0,0.0,0.0,0.0,0.0,0.0,0.0,0.0,0.0,0.0,0.0,0.0,0.0,0.0,0.0,0.0,0.0,0.0,0.0,0.0,0.0,0.0,0.0,0.0,0.0,0.0,0.0,0.0,0.0,0.0,0.0,0.0,0.0,0.0,0.0,0.0,2.4475,2.6887,2.765,2.802,2.8029,2.7391,2.6077,2.3971,0.0,0.0,0.0,0.0,0.0,0.0,0.0,0.0,0.0,0.0,0.0,0.0,0.0,0.0,0.0,0.0,0.0,0.0,0.0,0.0,0.0,0.0,0.0,0.0,0.0,0.0,0.0,0.0,0.0,0.0,0.0,0.0,0.0,0.0,0.0,0.0,0.0,0.0,0.0,0.0,0.0,0.0,0.0,0.0,0.0,0.0,0.0,0.0,0.0,0.0,0.0,0.0,0.0,0.0,0.0,0.0,0.0,0.0,0.0,0.0,0.0,0.0,0.0,0.0,0.0,0.0,0.0,0.0,0.0,0.0,0.0,0.0,0.0,0.0,0.0,0.0,0.0,0.0,0.0,0.0,0.0,0.0,0.0,0.0,0.0,0.0,0.0,0.0,0.0,0.0,0.0,0.0,0.0,0.0,0.0,0.0,0.0,0.0,0.0,0.0,0.0,0.0,0.0,2.3763,2.4903,2.7635,2.7905,2.7918,2.798,2.7532,2.6281,2.4001,2.2596,0.0,0.0,0.0,0.0,0.0,0.0,0.0,0.0,0.0,0.0,0.0,0.0,0.0,0.0,0.0,0.0,0.0,0.0,0.0,0.0,0.0,0.0,0.0,0.0,0.0,0.0,0.0,0.0,0.0,0.0,0.0,0.0,0.0,0.0,0.0,0.0,0.0,0.0,0.0,0.0,0.0,0.0,0.0,0.0,0.0,0.0,0.0,0.0,0.0,0.0,0.0,0.0,0.0,0.0,0.0,0.0,0.0,0.0,0.0,0.0,0.0,0.0,0.0,0.0,0.0,0.0,0.0,0.0,0.0,0.0,0.0,0.0,0.0,0.0,0.0,0.0,0.0,0.0,0.0,0.0,0.0,0.0,0.0,0.0,0.0,0.0,0.0,0.0,0.0,0.0,0.0,0.0,0.0,0.0,0.0,0.0,0.0,0.0,0.0,0.0,0.0,0.0,2.5035,2.54,2.7805,2.789,2.779,2.7905,2.7442,2.618,2.398,2.2194,0.0,0.0,0.0,0.0,0.0,0.0,0.0,0.0,0.0,0.0,0.0,0.0,0.0,0.0,0.0,0.0,0.0,0.0,0.0,0.0,0.0,0.0,0.0,0.0,0.0,0.0,0.0,0.0,0.0,0.0,0.0,0.0,0.0,0.0,0.0,0.0,0.0,0.0,0.0,0.0,0.0,0.0,0.0,0.0,0.0,0.0,0.0,0.0,0.0,0.0,0.0,0.0,0.0,0.0,0.0,0.0,0.0,0.0,0.0,0.0,0.0,0.0,0.0,0.0,0.0,0.0,0.0,0.0,0.0,0.0,0.0,0.0,0.0,0.0,0.0,0.0,0.0,0.0,0.0,0.0,0.0,0.0,0.0,0.0,0.0,0.0,0.0,0.0,0.0,0.0,0.0,0.0,0.0,0.0,0.0,0.0,0.0,0.0,0.0,0.0,0.0,0.0,2.5192,2.6184,2.75,2.7625,2.7625,2.7625,2.6477,2.5136,2.3721,2.125,0.0,0.0,0.0,0.0,0.0,0.0,0.0,0.0,0.0,0.0,0.0,0.0,0.0,0.0,0.0,0.0,0.0,0.0,0.0,0.0,0.0,0.0,0.0,0.0,0.0,0.0,0.0,0.0,0.0,0.0,0.0,0.0,0.0,0.0,0.0,0.0,0.0,0.0,0.0,0.0,0.0,0.0,0.0,0.0,0.0,0.0,0.0,0.0,0.0,0.0,0.0,0.0,0.0,0.0,0.0,0.0,0.0,0.0,0.0,0.0,0.0,0.0,0.0,0.0,0.0,0.0,0.0,0.0,0.0,0.0,0.0,0.0,0.0,0.0,0.0,0.0,0.0,0.0,0.0,0.0,0.0,0.0,0.0,0.0,0.0,0.0,0.0,0.0,0.0,0.0,0.0,0.0,0.0,0.0,0.0,0.0,0.0,0.0,0.0,0.0,0.0,0.0,2.493,2.5916,2.7545,2.7728,2.7728,2.7728,2.6801,2.5503,2.3831,0.0,0.0,0.0,0.0,0.0,0.0,0.0,0.0,0.0,0.0,0.0,0.0,0.0,0.0,0.0,0.0,0.0,0.0,0.0,0.0,0.0,0.0,0.0,0.0,0.0,0.0,0.0,0.0,0.0,0.0,0.0,0.0,0.0,0.0,0.0,0.0,0.0,0.0,0.0,0.0,0.0,0.0,0.0,0.0,0.0,0.0,0.0,0.0,0.0,0.0,0.0,0.0,0.0,0.0,0.0,0.0,0.0,0.0,0.0,0.0,0.0,0.0,0.0,0.0,0.0,0.0,0.0,0.0,0.0,0.0,0.0,0.0,0.0,0.0,0.0,0.0,0.0,0.0,0.0,0.0,0.0,0.0,0.0,0.0,0.0,0.0,0.0,0.0,0.0,0.0,0.0,0.0,0.0,0.0,0.0,0.0,0.0,0.0,0.0,0.0,0.0,0.0,2.3795,2.478,2.5836,2.7545,2.774,2.774,2.774,2.6648,2.5323,2.3831,0.0,0.0,0.0,0.0,0.0,0.0,0.0,0.0,0.0,0.0,0.0,0.0,0.0,0.0,0.0,0.0,0.0,0.0,0.0,0.0,0.0,0.0,0.0,0.0,0.0,0.0,0.0,0.0,0.0,0.0,0.0,0.0,0.0,0.0,0.0,0.0,0.0,0.0,0.0,0.0,0.0,0.0,0.0,0.0,0.0,0.0,0.0,0.0,0.0,0.0,0.0,0.0,0.0,0.0,0.0,0.0,0.0,0.0,0.0,0.0,0.0,0.0,0.0,0.0,0.0,0.0,0.0,0.0,0.0,0.0,0.0,0.0,0.0,0.0,0.0,0.0,0.0,0.0,0.0,0.0,0.0,0.0,0.0,0.0,0.0,0.0,0.0,0.0,0.0,0.0,0.0,0.0,0.0,0.0,0.0,0.0,0.0,0.0,0.0,0.0,0.0,0.0,2.3464,2.4852,2.6108,2.7465,2.76,2.76,2.76,2.5752,2.4321,0.0,0.0,0.0,0.0,0.0,0.0,0.0,0.0,0.0,0.0,0.0,0.0,0.0,0.0,0.0,0.0,0.0,0.0,0.0,0.0,0.0,0.0,0.0,0.0,0.0,0.0,0.0,0.0,0.0,0.0,0.0,0.0,0.0,0.0,0.0,0.0,0.0,0.0,0.0,0.0,0.0,0.0,0.0,0.0,0.0,0.0,0.0,0.0,0.0,0.0,0.0,0.0,0.0,0.0,0.0,0.0,0.0,0.0,0.0,0.0,0.0,0.0,0.0,0.0,0.0,0.0,0.0,0.0,0.0,0.0,0.0,0.0,0.0,0.0,0.0,0.0,0.0,0.0,0.0,0.0,0.0,0.0,0.0,0.0,0.0,0.0,0.0,0.0,0.0,0.0,0.0,0.0,0.0,0.0,0.0,0.0,0.0,0.0,0.0,0.0,0.0,0.0,0.0,2.3464,2.4852,2.6108,2.7465,2.76,2.76,2.76,2.6183,2.4825,2.367,0.0,0.0,0.0,0.0,0.0,0.0,0.0,0.0,0.0,0.0,0.0,0.0,0.0,0.0,0.0,0.0,0.0,0.0,0.0,0.0,0.0,0.0,0.0,0.0,0.0,0.0,0.0,0.0,0.0,0.0,0.0,0.0,0.0,0.0,0.0,0.0,0.0,0.0,0.0,0.0,0.0,0.0,0.0,0.0,0.0,0.0,0.0,0.0,0.0,0.0,0.0,0.0,0.0,0.0,0.0,0.0,0.0,0.0,0.0,0.0,0.0,0.0,0.0,0.0,0.0,0.0,0.0,0.0,0.0,0.0,0.0,0.0,0.0,0.0,0.0,0.0,0.0,0.0,0.0,0.0,0.0,0.0,0.0,0.0,0.0,0.0,0.0,0.0,0.0,0.0,0.0,0.0,0.0,0.0,0.0,0.0,0.0,0.0,0.0,0.0,0.0,0.0,2.3426,2.505,2.6408,2.748,2.76,2.76,2.76,2.6404,2.4997,2.3459,0.0,0.0,0.0,0.0,0.0,0.0,0.0,0.0,0.0,0.0,0.0,0.0,0.0,0.0,0.0,0.0,0.0,0.0,0.0,0.0,0.0,0.0,0.0,0.0,0.0,0.0,0.0,0.0,0.0,0.0,0.0,0.0,0.0,0.0,0.0,0.0,0.0,0.0,0.0,0.0,0.0,0.0,0.0,0.0,0.0,0.0,0.0,0.0,0.0,0.0,0.0,0.0,0.0,0.0,0.0,0.0,0.0,0.0,0.0,0.0,0.0,0.0,0.0,0.0,0.0,0.0,0.0,0.0,0.0,0.0,0.0,0.0,0.0,0.0,0.0,0.0,0.0,0.0,0.0,0.0,0.0,0.0,0.0,0.0,0.0,0.0,0.0,0.0,0.0,0.0,0.0,0.0,0.0,0.0,0.0,0.0,0.0,0.0,0.0,0.0,0.0,0.0,2.3366,2.5357,2.6884,2.7615,2.7579,2.7539,2.7599,2.6398,2.4862,2.3104,0.0,0.0,0.0,0.0,0.0,0.0,0.0,0.0,0.0,0.0,0.0,0.0,0.0,0.0,0.0,0.0,0.0,0.0,0.0,0.0,0.0,0.0,0.0,0.0,0.0,0.0,0.0,0.0,0.0,0.0,0.0,0.0,0.0,0.0,0.0,0.0,0.0,0.0,0.0,0.0,0.0,0.0,0.0,0.0,0.0,0.0,0.0,0.0,0.0,0.0,0.0,0.0,0.0,0.0,0.0,0.0,0.0,0.0,0.0,0.0,2.4048,0.0,0.0,0.0,0.0,0.0,0.0,0.0,0.0,0.0,0.0,0.0,0.0,0.0,0.0,0.0,0.0,0.0,0.0,0.0,0.0,0.0,0.0,0.0,0.0,0.0,0.0,0.0,0.0,0.0,0.0,0.0,0.0,0.0,0.0,0.0,0.0,0.0,0.0,0.0,0.0,0.0,2.3355,2.5357,2.7063,2.8248,2.7489,2.711,2.7634,2.609,2.4487,2.3087,2.1117,0.0,0.0,0.0,0.0,0.0,0.0,0.0,0.0,0.0,0.0,0.0,0.0,0.0,0.0,0.0,0.0,0.0,0.0,0.0,0.0,0.0,0.0,0.0,0.0,0.0,0.0,0.0,0.0,0.0,0.0,0.0,0.0,0.0,0.0,0.0,0.0,0.0,0.0,0.0,0.0,0.0,0.0,0.0,0.0,0.0,0.0,0.0,0.0,0.0,0.0,0.0,0.0,0.0,0.0,0.0,0.0,0.0,0.0,0.0,0.0,2.5637,0.0,0.0,0.0,0.0,0.0,0.0,0.0,0.0,0.0,0.0,0.0,0.0,0.0,0.0,0.0,0.0,0.0,0.0,0.0,0.0,0.0,0.0,0.0,0.0,0.0,0.0,0.0,0.0,0.0,0.0,0.0,0.0,0.0,0.0,0.0,0.0,0.0,0.0,0.0,0.0,2.3407,2.5383,2.7028,2.8015,2.7537,2.7156,2.7211,2.6064,2.4694,2.3187,2.1433,0.0,0.0,0.0,0.0,0.0,0.0,0.0,0.0,0.0,0.0,0.0,0.0,0.0,0.0,0.0,0.0,0.0,0.0,0.0,0.0,0.0,0.0,0.0,0.0,0.0,0.0,0.0,0.0,0.0,0.0,0.0,0.0,0.0,0.0,0.0,0.0,0.0,0.0,0.0,0.0,0.0,0.0,0.0,0.0,0.0,0.0,0.0,0.0,0.0,0.0,0.0,0.0,0.0,3.0749,3.1239,3.1685,3.1276,3.1581,3.2348,3.0033,2.8789,2.8304,2.6808,0.0,0.0,0.0,0.0,0.0,0.0,0.0,0.0,0.0,0.0,0.0,0.0,0.0,0.0,0.0,0.0,0.0,0.0,0.0,0.0,0.0,0.0,0.0,0.0,2.6601,2.6284,2.2953,0.0,0.0,0.0,0.0,0.0,0.0,0.0,0.0,0.0,0.0,0.0,2.3779,2.5658,2.7086,2.7687,2.757,2.7289,2.6901,2.621,2.509,2.346,2.1955,2.072,0.0,0.0,0.0,0.0,0.0,0.0,0.0,0.0,0.0,0.0,0.0,0.0,0.0,0.0,0.0,0.0,0.0,0.0,0.0,0.0,0.0,0.0,0.0,0.0,0.0,0.0,0.0,0.0,0.0,0.0,0.0,0.0,2.0528,2.074,0.0,0.0,0.0,0.0,0.0,0.0,0.0,0.0,0.0,0.0,0.0,0.0,0.0,2.8973,2.9264,3.1791,3.2818,3.2425,3.493,3.5834,3.5321,3.5893,3.5903,3.5471,3.4654,0.0,3.0389,2.9082,0.0,0.0,0.0,0.0,0.0,0.0,0.0,0.0,0.0,0.0,0.0,0.0,0.0,0.0,0.0,0.0,0.0,0.0,0.0,0.0,0.0,0.0,2.8784,2.8291,2.8715,2.8918,0.0,2.5516,2.3558,2.3212,2.1819,0.0,0.0,0.0,0.0,0.0,0.0,0.0,2.5097,2.6579,2.7701,2.8332,2.7433,2.7021,2.7533,2.6483,2.529,2.4071,2.3278,2.2374,2.1262,1.9588,0.0,0.0,0.0,0.0,0.0,0.0,0.0,0.0,0.0,0.0,0.0,0.0,0.0,0.0,0.0,0.0,0.0,0.0,0.0,0.0,0.0,0.0,0.0,0.0,0.0,0.0,0.0,0.0,0.0,2.0679,2.2252,2.2295,2.2267,2.193,0.0,0.0,0.0,0.0,0.0,0.0,0.0,0.0,0.0,2.9949,3.1341,3.2435,3.3239,3.4887,3.5731,3.5847,3.7119,3.758,3.7284,3.7283,3.7108,3.6768,3.5838,3.4665,3.3291,3.1524,3.0011,2.8719,0.0,0.0,0.0,0.0,2.8304,2.8383,2.9665,2.9598,2.8859,2.8418,0.0,0.0,0.0,0.0,0.0,0.0,0.0,0.0,0.0,0.0,3.0321,3.0701,3.1016,3.114,3.0808,2.8767,2.6676,0.0,2.494,2.3908,2.1759,0.0,0.0,0.0,0.0,2.3891,2.5398,2.6466,2.7314,2.788,2.7474,2.7157,2.7142,2.663,2.5895,2.4953,2.4143,2.3441,2.2822,2.1225,1.9944,0.0,0.0,0.0,0.0,0.0,0.0,0.0,0.0,0.0,0.0,0.0,0.0,0.0,0.0,0.0,0.0,0.0,0.0,0.0,0.0,0.0,0.0,0.0,0.0,0.0,0.0,0.0,0.0,2.2319,2.3769,2.3594,2.4019,2.3854,0.0,0.0,0.0,0.0,0.0,0.0,2.8772,3.0249,3.1841,3.356,3.4517,3.5506,3.6555,3.7301,3.7947,3.848,3.8302,3.8251,3.8278,3.7677,3.731,3.7086,3.6148,3.5607,3.5278,3.3328,3.184,3.0738,3.0377,2.9958,2.9695,3.0793,3.0964,3.0877,3.2591,3.2481,3.154,3.118,3.0441,2.9459,2.8144,0.0,0.0,0.0,0.0,2.8628,2.9402,3.0502,3.164,3.2542,3.2766,3.2689,3.2463,3.1261,2.9668,0.0,2.7332,2.6509,2.3888,0.0,0.0,0.0,0.0,2.4764,2.5961,2.6585,2.7053,2.7451,2.749,2.7337,2.6951,2.688,2.6534,2.5774,2.4894,2.427,2.3968,2.2598,2.1368,2.0368,0.0,0.0,0.0,0.0,0.0,0.0,0.0,0.0,0.0,0.0,0.0,0.0,0.0,0.0,0.0,0.0,0.0,0.0,0.0,0.0,0.0,0.0,0.0,0.0,0.0,0.0,0.0,0.0,0.0,2.4173,2.6026,0.0,0.0,0.0,0.0,2.9206,3.0072,3.1106,3.2464,3.3937,3.5065,3.581,3.7235,3.8017,3.8083,3.8821,3.9216,3.9235,3.8596,3.8304,3.8278,3.7677,3.7041,3.6446,3.6383,3.6038,3.5388,3.401,3.3021,3.2332,3.1673,3.1403,3.1373,3.1448,3.1852,3.2391,3.2512,3.2497,3.2542,3.3141,3.2322,3.0974,3.0249,2.9587,0.0,0.0,3.0139,3.1449,3.2123,3.2826,3.338,3.344,3.344,3.327,3.255,3.2318,3.1667,0.0,2.7858,2.64,2.5589,0.0,2.4717,2.5312,2.5473,2.6001,2.7327,2.748,2.7464,2.749,2.749,2.749,2.7451,2.7347,2.7013,2.6382,2.5646,2.4974,2.439,2.3321,2.2438,2.1807,1.9606,0.0,0.0,0.0,0.0,0.0,0.0,0.0,0.0,0.0,0.0,0.0,0.0,0.0,0.0,0.0,0.0,0.0,0.0,0.0,0.0,0.0,0.0,0.0,0.0,0.0,0.0,0.0,0.0,2.7277,2.9016,0.0,2.8121,2.8972,3.0032,3.1035,3.22,3.3655,3.5474,3.6526,3.7392,3.8092,3.8622,3.8921,3.8921,3.8739,3.8662,3.8662,3.8025,3.7487,3.7071,3.6844,3.6414,3.5829,3.5829,3.5701,3.5474,3.4981,3.4651,3.4396,3.4172,3.4067,3.4067,3.4067,3.4217,3.4426,3.4426,3.4143,3.3754,3.3559,3.3126,3.2642,3.2401,3.216,3.1964,3.1964,3.236,3.2946,3.3604,3.3964,3.4123,3.4046,3.3727,3.3213,3.2366,3.1607,3.0816,3.0008,2.9375,2.8512,2.7022,2.6609,2.6283,2.5682,2.5997,2.6604,2.7432,2.7508,2.7469,2.7386,2.7369,2.7319,2.7197,2.713,2.6818,2.6125,2.5582,2.4988,2.4299,2.3656,2.305,2.2487,2.1294,1.9938,0.0,0.0,0.0,0.0,0.0,0.0,0.0,0.0,0.0,0.0,0.0,0.0,0.0,0.0,0.0,0.0,0.0,0.0,0.0,0.0,0.0,0.0,0.0,0.0,0.0,2.7233,2.9053,2.8963,3.0902,3.163,3.006,3.1137,3.2327,3.3313,3.4452,3.5697,3.7125,3.8068,3.8602,3.8662,3.8857,3.8952,3.8952,3.8535,3.8292,3.8292,3.7691,3.7041,3.6399,3.6196,3.5878,3.5504,3.5504,3.5504,3.5504,3.5504,3.5504,3.5504,3.5504,3.5504,3.5504,3.5504,3.5504,3.5504,3.5504,3.5205,3.4772,3.4322,3.4173,3.4128,3.3919,3.4009,3.4128,3.3888,3.3993,3.4215,3.4395,3.4435,3.436,3.4008,3.3606,3.3112,3.228,3.1459,3.0805,3.0475,3.0161,2.9544,2.8266,2.8086,2.7751,2.6704,2.6962,2.7314,2.7427,2.7436,2.7369,2.7231,2.7197,2.7146,2.7007,2.6764,2.6412,2.5931,2.5256,2.4639,2.4144,2.3504,2.3021,2.2697,2.197,2.0796,1.9142,0.0,0.0,0.0,0.0,0.0,0.0,0.0,0.0,0.0,0.0,0.0,0.0,0.0,0.0,0.0,0.0,0.0,0.0,0.0,0.0,0.0,0.0,0.0,2.5145,2.807,2.9986,2.9163,3.1632,3.3037,3.2105,3.3318,3.4768,3.6209,3.6844,3.7231,3.7397,3.8565,3.8678,3.7443,3.7966,3.8264,3.8264,3.825,3.8236,3.8236,3.7618,3.6996,3.6352,3.5765,3.5504,3.5504,3.5504,3.5504,3.5488,3.5488,3.5488,3.5488,3.5504,3.5504,3.5504,3.5504,3.5504,3.5504,3.5504,3.5504,3.5504,3.5504,3.5504,3.5385,3.4727,3.4981,3.537,3.468,3.4965,3.5279,3.4461,3.4279,3.4092,3.3335,3.3161,3.295,3.2218,3.2069,3.1864,3.1142,3.0103,2.9344,2.9331,2.9318,2.9122,2.8521,2.8399,0.0,2.7431,2.7337,2.7282,2.7075,2.7058,2.7045,2.7016,2.6345,2.5902,2.5864,2.469,2.4004,2.4004,2.2949,2.2417,2.2535,2.1582,2.0742,2.0079,0.0,0.0,0.0,0.0,0.0,0.0,0.0,0.0,0.0,0.0,0.0,0.0,0.0,0.0,0.0,0.0,0.0,0.0,0.0,0.0,0.0,2.7045,2.8879,2.8762,3.0755,3.2418,3.2891,3.4451,3.5217,3.4562,3.5278,3.5935,3.6352,3.6534,3.6853,3.7369,3.7722,3.7765,3.7414,3.7561,3.7648,3.7648,3.7176,3.692,3.692,3.6321,3.5926,3.5733,3.5585,3.5504,3.5504,3.5504,3.5423,3.5277,3.5277,3.5197,3.5098,3.5392,3.5504,3.5504,3.5504,3.5504,3.5504,3.5504,3.5504,3.5504,3.5504,3.5504,3.5474,3.528,3.5355,3.5331,3.4571,3.448,3.4459,3.3699,3.3509,3.3318,3.2577,3.2398,3.2196,3.1468,3.1296,3.1241,3.1043,3.0626,3.0232,2.9944,2.9762,2.9463,2.8918,2.8678,0.0,2.8269,2.8238,2.8238,2.8228,2.8228,2.8027,2.7483,2.6896,2.6135,2.5149,2.4412,2.4004,2.4004,2.3703,2.3542,2.3601,2.2989,2.2385,0.0,0.0,0.0,0.0,0.0,0.0,0.0,0.0,0.0,0.0,0.0,0.0,0.0,0.0,0.0,0.0,0.0,0.0,0.0,0.0,0.0,0.0,2.939,3.1322,3.1924,3.2939,3.3857,3.4431,3.537,3.5845,3.5524,3.5829,3.6022,3.6022,3.6258,3.6461,3.66,3.7101,3.7146,3.6631,3.6845,3.6981,3.6981,3.6585,3.6399,3.6399,3.6037,3.5701,3.5359,3.5359,3.5326,3.5261,3.5261,3.518,3.5082,3.5082,3.5001,0.0,0.0,0.0,0.0,0.0,3.5261,3.5261,3.5261,3.5261,3.5261,3.5343,3.5359,3.5326,3.5069,3.5003,3.4822,3.3959,3.3771,3.365,3.2826,3.2684,3.2541,3.1809,3.1566,3.1394,3.0968,3.0817,3.0748,3.0748,3.0653,0.0,3.0264,3.0124,2.9856,2.9284,2.9072,2.886,2.8558,2.8515,2.8497,2.8455,2.8455,2.819,2.7531,2.697,0.0,0.0,0.0,2.4243,2.4004,2.4054,0.0,0.0,0.0,0.0,0.0,0.0,0.0,0.0,2.3032,2.3109,0.0,0.0,0.0,0.0,0.0,0.0,0.0,0.0,0.0,0.0,0.0,0.0,0.0,0.0,0.0,0.0,3.1695,3.317,3.4428,3.4607,3.4607,3.4607,3.513,3.5504,3.5504,3.5504,3.5504,3.5504,3.599,3.6069,3.5537,0.0,0.0,0.0,0.0,3.6305,3.6305,3.629,3.6259,3.6259,3.6243,3.5909,3.5268,3.5268,3.523,3.5108,3.5034,3.5005,3.4957,3.4914,3.4868,3.4852,3.4885,3.4902,3.4902,3.4902,3.4902,3.4902,3.4902,0.0,0.0,3.4984,3.4984,3.482,3.4262,3.4112,3.391,3.2996,3.2869,3.2791,3.1887,3.1778,3.1741,3.1086,3.0798,3.0679,3.0679,3.0533,3.0406,3.0406,3.0387,3.0368,3.0368,3.0368,3.0183,2.9646,2.9551,2.931,2.863,2.8561,2.8494,2.8353,0.0,0.0,2.7573,2.7007,2.6453,2.5824,2.536,2.4867,2.4381,2.4545,2.4558,2.4368,2.5021,2.5769,2.6587,2.7123,2.7424,2.7412,2.4822,2.4561,0.0,0.0,0.0,0.0,0.0,0.0,0.0,0.0,0.0,0.0,0.0,0.0,0.0,0.0,0.0,3.1713,3.3201,3.4398,3.519,3.531,3.531,3.531,3.5429,3.5504,3.5504,3.5504,3.5504,3.5504,3.5603,3.5619,3.5504,3.5717,3.5749,3.5504,3.5603,3.5683,3.5683,3.5523,3.5427,3.5427,0.0,0.0,3.5767,3.5767,3.6013,3.6401,3.592,3.5616,3.5436,3.4938,3.4633,3.4517,3.4785,3.4902,3.4902,3.4902,3.4902,3.4902,3.4902,3.4505,3.4019,3.4053,3.363,3.3066,3.2961,3.2943,0.0,3.1988,3.1814,3.1649,3.0872,3.0703,3.0684,3.0558,3.0482,3.0463,3.0463,3.0425,3.0406,3.0406,3.0273,3.0152,3.0152,3.0152,3.0114,3.0012,2.9859,2.9687,2.9548,2.9523,2.958,2.9701,2.9707,2.9479,2.8878,2.8339,2.7728,2.701,2.6871,2.6771,2.667,2.7102,2.714,2.667,2.7198,2.7392,2.7148,2.767,2.8172,2.8568,2.7738,2.7337,0.0,0.0,0.0,0.0,0.0,0.0,0.0,0.0,0.0,0.0,0.0,2.7455,2.8601,0.0,3.1785,3.326,3.4337,3.5115,3.5459,3.5504,3.5504,3.5504,3.5504,3.5504,3.5504,3.5504,3.5504,3.5504,3.5504,3.5504,3.5504,3.5504,3.5455,3.5343,3.5343,3.5294,3.5197,3.5098,3.505,3.505,3.5292,3.5518,3.5756,3.6094,3.6362,3.652,3.6231,3.5874,3.5455,3.4811,3.4481,3.4414,3.4568,3.4652,3.4652,3.4652,3.4652,3.4601,3.4187,3.3814,3.344,3.3147,3.278,3.2393,3.2119,3.206,3.1878,3.1046,3.0872,3.0835,3.0368,3.0311,3.0406,3.0406,3.0311,3.0235,3.0235,3.0171,3.0094,3.0094,3.003,2.9953,2.9953,2.9953,2.9953,2.9953,2.9869,2.9792,2.9792,2.9792,2.985,2.9934,2.9953,2.9706,2.9095,2.8558,2.8093,2.7708,2.7695,2.7695,2.7695,2.755,2.733,2.706,2.7146,2.7064,2.68,2.7347,2.7743,2.7995,2.7828,2.8084,0.0,0.0,0.0,0.0,0.0,0.0,0.0,2.6063,2.6782,2.7575,2.8712,2.9864,3.0896,3.2078,3.3275,3.4503,3.5145,3.5504,3.5504,3.5504,3.5504,3.5504,3.5504,3.5504,3.5504,3.5504,3.5504,3.5504,3.5455,3.5455,3.5504,3.5439,3.5326,3.5197,3.5164,3.5065,3.4902,3.4868,3.4911,3.5043,3.5558,3.5854,3.5947,3.6485,3.672,3.6664,3.6562,3.6069,3.5363,3.4823,3.453,3.438,3.423,3.4165,3.4165,3.4165,3.4079,3.3859,3.321,3.2879,3.267,3.2177,3.1924,3.1719,3.1299,3.1177,3.1009,3.0235,3.0152,3.0235,3.0075,3.0152,3.0273,3.0273,3.0152,3.0049,3.0049,2.9895,2.9792,2.9792,2.9792,2.9792,2.9792,2.9792,2.9792,2.9792,2.9792,2.9792,2.9792,2.9792,2.9792,2.9792,2.9792,2.9603,2.912,2.8668,2.8436,2.8436,2.8275,2.817,2.817,2.7327,2.6866,2.6866,2.658,2.6462,2.6462,2.6895,2.711,2.711,2.711,2.7891,2.2742,2.4208,2.5555,2.6746,2.6704,2.7425,0.0,3.1135,3.0299,3.157,3.2437,3.2991,3.314,3.3769,3.4518,3.5265,3.5459,3.5504,3.5504,3.5504,3.5504,3.5504,3.5504,3.5504,3.5504,3.5504,3.5504,3.5504,3.5326,3.531,3.5488,3.5164,3.5034,3.5197,3.5017,3.4918,3.4902,3.4783,3.4978,3.5519,3.5469,3.6038,3.7103,3.7194,3.7509,3.7955,3.7433,3.6522,3.5392,3.5319,3.4939,3.4329,3.3607,3.3332,3.3332,3.3332,3.2928,3.234,3.2254,3.1764,3.1143,3.1087,3.0601,3.0075,3.0011,2.9991,2.9972,2.9869,2.985,2.9869,2.985,2.985,2.9869,2.9869,2.985,2.983,2.983,2.9811,2.9792,2.9792,2.9792,2.9792,2.9792,2.9792,2.9792,2.9792,2.9792,2.9792,2.9792,2.9792,2.9792,2.9792,2.9792,2.9767,2.9704,2.9641,2.9603,2.9603,2.8875,2.8471,2.8471,2.7562,2.708,2.708,2.7036,2.6998,2.6998,2.7075,2.711,2.711,2.711,2.7212,2.5869,2.6632,2.7093,2.8438,2.9398,3.0447,3.1989,3.2288,3.2512,3.3469,3.4203,3.4666,3.4666,3.4891,3.5175,3.5459,3.5504,3.5504,3.5504,3.5504,3.5504,3.5504,3.5504,3.5504,3.5504,3.5504,3.5504,3.5504,3.531,3.5245,3.5326,3.505,3.4902,3.4914,3.4817,3.4733,3.4601,3.493,3.5234,3.5496,3.618,3.678,3.7317,3.7665,3.797,3.8136,3.7018,3.6242,3.5679,3.4788,3.4051,3.3493,3.3155,3.2554,3.1915,3.2398,3.2362,3.2019,3.1563,3.118,3.082,3.04,3.0056,2.9792,2.9792,2.9792,2.9792,2.9792,2.9792,2.9792,2.9792,2.9792,2.9792,2.9792,2.9792,2.9792,2.9792,2.9792,2.9643,2.915,2.904,2.8882,2.8323,2.8223,2.8223,2.8223,2.9131,2.9792,2.9792,2.9358,2.904,2.904,2.904,2.904,2.904,2.904,2.8811,2.8263,2.7891,2.7678,2.7678,2.6812,2.6338,2.6338,2.5841,2.5579,2.5579,2.5579,2.5579,2.559,2.5871,2.6001,2.735,2.8081,2.871,3.0057,3.1734,3.2976,3.2662,3.3349,3.4188,3.4682,3.516,3.5504,3.5504,3.5504,3.5504,3.5504,3.5504,3.5504,3.5504,3.5504,3.5488,3.5423,3.5423,3.5392,3.5343,3.5375,3.5392,3.5343,3.5179,3.5082,3.5115,3.5062,3.4999,3.4946,3.5071,3.5056,3.4919,3.5404,3.5738,3.5927,3.6852,3.7404,3.7564,3.7999,3.8071,3.7782,3.6722,3.6025,3.5548,3.4453,3.3641,3.3101,3.2893,3.2135,3.12,3.1537,3.1593,3.1386,3.0809,3.0601,3.052,2.996,2.9792,2.9792,2.9792,2.9792,2.9792,2.9792,2.9792,2.9792,2.9792,2.9792,2.9792,2.9792,2.9792,2.9733,2.9495,2.9436,2.9189,2.8283,2.8111,2.7911,2.7212,2.711,2.711,2.711,2.8223,2.9072,2.9072,2.8502,2.8111,2.8111,2.8111,2.8111,2.8111,2.8111,2.7819,2.7151,2.6885,2.673,2.673,2.5892,2.5442,2.5442,2.4818,2.4559,2.4683,2.4683,2.4755,2.4891,2.5232,2.5449,2.6019,2.7996,3.0717,3.2078,3.3425,3.4592,3.5235,3.5398,3.5444,3.5474,3.5489,3.5504,3.5504,3.5504,3.5504,3.5504,3.5504,3.5504,3.5504,3.5504,3.5439,3.523,3.5197,3.5131,3.4935,3.5098,3.5131,3.4935,3.4783,3.4767,3.4902,3.5217,3.5435,3.5575,3.5997,3.6257,3.6225,3.6272,3.6606,3.7226,3.7288,3.7607,3.8173,3.8188,3.7739,3.6936,3.6889,3.6053,3.4748,3.4681,3.4277,3.3594,3.2883,3.2267,3.1674,3.0913,3.0322,2.9869,2.985,2.983,2.983,2.9811,2.9792,2.9792,2.9792,2.9792,2.9792,2.9792,2.9792,2.9792,2.9792,2.9792,2.9792,2.9792,2.9792,2.9566,2.8712,2.8542,2.8251,2.7313,2.7151,2.713,2.711,2.711,2.711,2.711,2.7151,2.7191,2.7191,2.7171,2.7151,2.7151,2.7151,2.7151,2.7151,2.7151,2.713,2.711,2.6297,2.584,2.584,2.4999,2.454,2.454,2.4518,2.4714,2.5168,2.5168,2.5408,2.5866,2.5877,2.6115,2.8323,2.9929,3.1422,3.2771,3.4138,3.522,3.5444,3.5504,3.5504,3.5504,3.5145,3.4832,3.4832,3.4832,3.4832,3.4832,3.5205,3.5455,3.5326,3.5294,3.523,3.5017,3.5001,3.4949,3.4783,3.4916,3.4968,3.4918,3.4781,3.489,3.5353,3.5397,3.5598,3.6055,3.6217,3.6301,3.6301,3.6733,3.7085,3.7302,3.7709,3.8014,3.8183,3.7606,3.7169,3.6839,3.5729,3.4967,3.4467,3.3869,3.3271,3.2682,3.2429,3.2016,3.15,3.1223,3.1009,3.0746,3.0062,2.9792,2.9792,2.9792,2.9792,2.9792,2.9792,2.9792,2.9792,2.9792,2.9792,2.9792,2.9792,2.9792,2.9643,2.9059,2.8941,2.8692,2.7758,2.7577,2.7313,2.64,2.6235,2.6059,2.5474,2.538,2.538,2.538,2.635,2.6894,2.6297,2.6235,2.6235,2.6235,2.6235,2.6235,2.6235,2.6235,2.5997,2.5411,2.5105,2.4935,2.4935,2.4658,2.4642,2.4952,2.4952,2.5201,2.5658,2.5658,2.5763,2.5908,2.6219,2.6447,2.9534,3.0623,3.1389,3.2942,3.4015,3.4754,3.5003,3.5069,3.5075,3.5127,3.4622,3.4069,3.3829,3.3589,3.3574,3.4054,3.4502,3.4887,3.517,3.5197,3.5115,3.4866,3.4833,3.4767,3.4614,3.4683,3.4719,3.4719,3.4854,3.5125,3.5504,3.5881,3.6261,3.6649,3.6881,3.6983,3.6983,3.7418,3.7622,3.7622,3.7699,3.7739,3.7701,3.6844,3.6275,3.595,3.4868,3.423,3.3886,3.3326,3.2876,3.2516,3.2516,3.2177,3.1687,3.1687,3.1562,3.126,3.0394,3.0093,3.0055,2.9854,2.9792,2.9792,2.9792,2.9792,2.9792,2.9792,2.9792,2.9733,2.9417,2.9339,2.9111,2.8211,2.7991,2.7758,2.6833,2.6627,2.6391,2.5505,2.5348,2.5158,2.4604,2.4497,2.4497,2.4497,2.5453,2.5966,2.5411,2.5348,2.5348,2.5348,2.5348,2.5348,2.5348,2.5348,2.5105,2.454,2.4497,2.4497,2.4497,2.4652,2.489,2.5179,2.5366,2.5678,2.6146,2.6146,2.6239,2.6405,2.6695,2.6864,2.9546,3.0185,3.0839,3.2674,3.3161,3.3388,3.4092,3.4233,3.423,3.4328,3.3783,3.3065,3.2348,3.178,3.1796,3.3034,3.3362,3.3821,3.4889,3.5098,3.4999,3.465,3.4664,3.4614,3.4457,3.4441,3.4455,3.4484,3.5055,3.5436,3.5494,3.6635,3.7317,3.736,3.7897,3.8202,3.8202,3.8202,3.8183,3.8127,3.7285,3.6878,3.6805,3.5929,3.5128,3.4397,3.4356,3.3852,3.3102,3.3102,3.3102,3.3102,3.3102,3.2742,3.2252,3.2252,3.1926,3.1399,3.0864,3.0638,3.0512,3.0005,2.9817,2.9792,2.9792,2.9792,2.9792,2.9792,2.9772,2.9546,2.8712,2.8462,2.8191,2.7252,2.7028,2.6792,2.5923,2.5725,2.5484,2.4658,2.4497,2.4497,2.4497,2.4497,2.4497,2.4497,2.4497,2.4497,2.4497,2.4497,2.4497,2.4497,2.4497,2.4497,2.4497,2.4497,2.4497,2.4497,2.4497,2.4507,2.4528,2.4952,2.5232,2.5284,2.5699,2.6167,2.6633,2.6633,2.6851,2.7309,2.7309,2.7309,2.9418,3.0613,3.1717,3.2073,3.2684,3.3262,3.344,3.3172,3.2751,3.2288,3.1288,3.009,2.8672,2.9283,2.9973,2.98,3.1414,3.2751,3.3003,3.3682,3.4002,3.3624,3.4113,3.4654,3.5101,3.5142,3.5331,3.5793,3.5563,3.5813,3.6751,3.7128,3.752,3.7955,3.813,3.8202,3.8202,3.8202,3.7867,3.7227,3.7014,3.6557,3.5909,3.5067,3.4592,3.4356,3.3717,3.3304,3.3102,3.3102,3.3102,3.3102,3.3102,3.3014,3.2876,3.2876,3.2788,3.2587,3.2001,3.1265,3.0575,3.0437,3.0131,2.9792,2.9792,2.9792,2.9792,2.9792,2.9326,2.8771,2.8561,2.7991,2.7232,2.6338,2.6131,2.5892,2.502,2.4818,2.4764,2.454,2.4497,2.4497,2.4497,2.4497,2.4497,2.4497,2.4497,2.4497,2.4497,2.4497,2.4497,2.4497,2.4497,2.4497,2.4497,2.4497,2.4497,2.4497,2.4497,2.4652,2.5003,2.5149,2.5521,2.6239,2.6353,2.6643,2.7133,2.7133,2.7172,2.7309,2.7309,2.7309,2.9678,3.0608,3.1349,3.1326,3.1713,3.1987,3.1554,3.1455,3.1071,2.9666,2.8995,2.8062,2.6048,2.7013,2.8082,2.807,2.9863,3.1493,3.2193,3.3094,3.3437,3.2791,3.3967,3.4845,3.4863,3.5082,3.5637,3.6657,3.6435,3.6551,3.7259,3.7549,3.7854,3.8188,3.8202,3.8202,3.8202,3.7829,3.7395,3.6897,3.6136,3.5555,3.5047,3.4217,3.3823,3.3802,0.0,3.3102,3.3102,3.3102,3.3102,3.3102,3.3102,3.3102,3.3102,3.3102,3.3102,3.3052,3.2704,3.2039,3.1215,3.0751,3.0387,3.0105,2.9867,2.9534,2.9229,2.9229,2.8581,2.7799,2.7415,2.6914,2.6297,2.5453,2.5221,2.5105,2.4604,2.4497,2.4497,2.4497,2.4497,2.4497,2.4497,2.4497,2.4497,2.4497,2.4497,2.4497,2.4497,2.4497,2.4497,2.4497,2.4497,2.4497,2.4497,2.4683,2.4797,2.4797,2.5004,2.5222,2.5502,2.5709,2.6051,2.6581,2.6788,2.705,2.7309,2.7309,2.7309,2.7309,2.7309,2.7309,3.0043,3.0368,3.0444,3.0622,3.0608,3.0295,2.9388,2.9474,2.9143,2.6951,2.6739,2.6258,2.4039,2.4885,2.6219,2.7051,2.8524,3.0118,3.1739,3.2688,3.2907,3.2146,3.3831,3.4857,3.4317,3.4701,3.5554,3.6958,3.7071,3.7164,3.7415,3.7926,3.8202,3.8202,3.8202,3.8146,3.8018,3.7265,3.68,3.6551,3.5094,3.4335,3.4209,3.3441,3.3102,3.3102,3.3102,3.3102,3.3102,3.3102,3.3102,3.3102,3.3102,3.3102,3.3102,3.3102,3.3102,3.3102,3.3102,3.2776,3.2144,3.114,3.0751,3.0593,3.0006,2.9251,2.859,2.8439,2.7684,2.6751,2.6007,2.5704,2.5442,2.4679,2.4497,2.4497,2.4497,2.4497,2.4497,2.4497,2.4497,2.4497,2.4497,2.4497,2.4497,2.4497,2.4497,2.4497,2.4497,2.4497,2.4497,2.4497,2.4559,2.459,2.459,2.5025,2.5294,2.5294,2.5668,2.5929,2.5991,2.6374,2.6623,2.6685,2.7102,2.7309,2.7309,2.7309,2.7309,2.7309,2.7309,2.734,2.9883,3.0152,3.0406,3.0444,3.0079,2.96,2.9202,2.7967,2.6524,2.518,2.4142,2.3088,2.1828,2.2944,2.4392,2.5351,2.7077,2.8754,3.0061,3.1028,3.1638,3.1758,3.2701,3.3663,3.4535,3.4706,3.5071,3.5837,3.5898,3.6521,3.7968,3.8144,3.8202,3.8202,3.8202,3.7848,3.713,3.6975,3.6195,3.484,3.453,3.4021,3.3326,3.3167,3.3102,3.3102,3.3102,0.0,3.3102,3.3102,3.3102,3.3102,3.3102,3.3102,3.3102,3.3102,3.3102,3.3102,3.3102,3.3027,3.2839,3.2152,3.1625,3.1093,3.0223,2.9596,2.8989,2.8156,2.7016,2.5986,2.584,2.5263,2.4679,2.454,2.4497,2.4497,2.4497,2.4497,2.4497,2.4497,2.4497,2.4497,2.4497,2.4497,2.4497,2.4497,2.4497,2.4497,2.4497,2.4497,2.4497,2.4497,2.4848,2.5065,2.5065,2.5513,2.5794,2.5794,2.5856,2.6074,2.6457,2.655,2.6778,2.7185,2.7268,2.7309,2.7309,2.7309,2.7309,2.7309,2.7309,2.7482,2.9953,3.003,3.0113,3.0228,2.9795,2.9003,2.7683,2.6493,2.5021,2.2682,2.2173,2.1641,2.0043,2.1796,2.3646,2.4136,2.5435,2.7085,2.9094,2.9603,3.01,3.1009,3.2489,3.3586,3.404,3.4352,3.4834,3.5561,3.5217,3.5521,3.6791,3.7285,3.7323,3.6869,3.7304,3.7111,3.6241,3.5816,3.5196,3.4397,3.3937,3.3484,3.3102,3.3102,3.3102,3.3102,3.3102,3.3102,3.3102,3.3102,3.3102,3.3102,3.3102,3.3102,3.3102,3.3102,3.3102,3.3102,3.3102,3.3102,3.2966,3.2139,3.1513,3.0959,3.0218,2.8986,2.775,2.7255,2.6148,2.5115,2.5115,2.4818,2.4497,2.4497,2.4497,2.4497,2.4497,2.4497,2.4497,2.4497,2.4497,2.4497,2.4497,2.4497,2.4497,2.4497,2.4497,2.459,2.4828,2.4859,2.4859,2.4859,2.5273,2.5564,2.5564,2.5978,2.626,2.626,2.6488,2.6716,2.6944,2.6954,2.7081,2.7299,2.7309,2.7309,2.7309,2.7309,2.74,2.7603,2.7603,2.7852,3.0152,3.0037,2.985,3.0049,2.9536,2.8451,2.6511,2.5383,2.3926,2.0993,2.0852,2.0793,1.9228,2.1047,2.293,2.346,2.4296,2.581,2.8439,2.8638,2.9088,3.0586,3.2306,3.3377,3.3402,3.3833,3.4371,3.5033,3.4475,3.4558,3.5548,3.6261,3.632,3.5615,3.6261,3.6201,3.5346,3.4724,3.4314,3.4105,3.3432,3.3102,3.3102,3.3102,3.3102,3.3102,3.3102,3.3102,3.3102,3.3102,3.3102,3.3102,3.3102,3.3102,3.3102,3.3102,3.3102,3.3102,3.3102,3.2961,3.2646,3.1857,3.1314,3.0819,2.9971,2.8351,2.678,2.6584,2.5697,2.4808,2.4808,2.4735,2.4621,2.4518,2.4497,2.4497,2.4497,2.4497,2.4528,2.4621,2.4652,2.4673,2.4766,2.4725,2.4673,2.4766,2.4704,2.4817,2.5294,2.5439,2.5501,2.5501,2.5823,2.6053,2.6053,2.6478,2.6747,2.6747,2.7102,2.7309,2.7309,2.7309,2.7309,2.7309,2.7309,2.7309,2.7309,2.7379,2.7583,2.79,2.8003,2.8293,3.0484,3.0324,2.985,3.0049,2.9132,2.7967,2.7083,2.5021,2.2933,2.1639,2.0574,1.9967,2.026,2.0557,2.1462,2.3604,2.4432,2.5595,2.7862,2.8615,2.9542,3.1128,3.1524,3.204,3.3042,3.3193,3.324,3.3313,3.3261,3.3924,3.5514,3.5675,3.5675,3.5595,3.5675,3.5318,3.4509,3.4439,3.4013,3.3219,3.3133,3.3102,3.3102,3.3102,3.3102,3.3102,3.3102,3.3102,0.0,3.3102,3.3102,3.3102,3.3102,3.3102,3.3102,3.3102,3.3102,3.3102,3.3102,3.2503,3.1713,3.1625,3.1579,3.1187,2.9374,2.8358,2.7681,2.6814,2.6204,2.5784,2.5784,2.5471,2.5024,2.46,2.4497,2.4497,2.4497,2.4497,2.4621,2.5044,2.5149,2.5273,2.5711,2.543,2.5284,2.5699,2.5397,2.5304,2.5784,2.6208,2.6467,2.6467,2.6509,2.6529,2.6529,2.6978,2.7247,2.7247,2.7289,2.7309,2.7309,2.7309,2.7309,2.7309,2.7309,2.7309,2.7309,2.7665,2.7858,2.791,2.8334,2.8794,3.0108,3.008,2.9811,2.9895,2.9027,2.7885,2.6876,2.4764,2.2635,2.124,1.9996,1.9225,1.9449,1.9837,2.0738,2.2562,2.2842,2.3692,2.6236,2.6496,2.7399,3.0062,3.0692,3.1486,3.2952,3.3102,3.3102,3.3102,3.3102,3.3398,3.4058,3.4587,3.4649,3.4108,3.4607,3.4475,3.3632,3.3611,3.3441,3.3102,3.3102,3.3102,3.3102,3.3102,3.3102,3.3102,3.3102,3.3102,0.0,3.3102,3.3102,3.3102,3.3102,3.3102,3.3102,3.3102,3.3102,3.3004,3.2416,3.1945,3.1403,3.0215,2.9852,2.9704,2.8922,2.7982,2.7089,2.6707,2.626,2.5897,2.5897,2.5751,2.5575,2.5388,2.5347,2.5347,2.5347,2.5347,2.5399,2.5585,2.5616,2.5678,2.5866,2.5763,2.5678,2.5877,2.573,2.5782,2.626,2.6478,2.6695,2.6998,2.7029,2.7029,2.7029,2.7195,2.7309,2.7309,2.7309,2.7309,2.7309,2.7309,2.7309,2.7309,2.7545,2.7655,2.7655,2.8121,2.8458,2.8763,2.8924,2.928,2.9736,2.9973,2.9834,2.9586,2.9037,2.8053,2.6304,2.4395,2.2527,2.0826,1.9709,1.9026,1.8969,1.9387,2.021,2.1618,2.16,2.2461,2.5479,2.5549,2.6488,2.9689,3.0413,3.1255,3.2751,3.3017,3.3102,3.3102,3.3102,3.3102,3.3102,3.3675,3.3738,3.3124,3.3696,3.3717,3.3124,3.3102,3.3102,3.3102,3.3102,3.3102,3.3102,3.3102,3.3102,3.3102,3.3102,3.3102,0.0,3.3102,3.3102,3.3102,3.3102,3.3102,3.3059,3.2776,3.2646,3.2516,3.1536,3.0991,3.0509,2.9153,2.8515,2.8292,2.8292,2.76,2.6799,2.6799,2.656,2.6281,2.6136,2.6105,2.6074,2.5929,2.5897,2.5897,2.5897,2.5897,2.5939,2.6074,2.6105,2.6146,2.6281,2.6198,2.6146,2.6291,2.6198,2.627,2.676,2.6799,2.6923,2.7268,2.7309,2.7309,2.7309,2.7309,2.7309,2.7309,2.7309,2.7309,2.7309,2.741,2.7482,2.7482,2.7893,2.8107,2.8107,2.8572,2.899,2.9311,2.9446,2.9684,2.9513,3.0157,2.9915,2.9107,2.9094,2.8487,2.5427,2.383,2.247,2.0592,1.9879,1.9529,1.933,1.9358,1.9799,2.101,2.1209,2.2462,2.6078,2.6643,2.7748,3.0629,3.0877,3.122,3.2298,3.283,3.3102,3.3102,3.3102,3.3102,3.3102,3.3124,3.3124,3.3102,3.3124,3.3124,3.3102,3.3102,3.3102,3.3102,3.3102,3.3102,3.3102,3.3102,3.3102,3.3102,3.3102,3.3102,0.0,3.3102,3.3102,3.3102,3.3102,3.3102,3.2982,3.1989,3.1625,3.1492,3.0531,2.9555,2.8724,2.8701,2.8058,2.7309,2.7309,2.7299,2.7299,2.7299,2.7299,2.7185,2.6705,2.6581,2.6467,2.6011,2.5897,2.5897,2.5897,2.5897,2.6043,2.6498,2.6581,2.6726,2.7216,2.6915,2.6747,2.7226,2.6882,2.6747,2.7237,2.7299,2.7299,2.7309,2.7309,2.7309,2.7309,2.7309,2.7309,2.7309,2.7309,2.7309,2.7309,2.7686,2.7889,2.7889,2.8344,2.8582,2.8582,2.9073,2.9301,2.9321,2.9777,2.9994,2.6839,2.7271,2.7227,2.6109,2.5962,2.5603,2.375,2.2806,2.1895,2.0422,1.9445,1.8907,1.912,1.8998,1.9766,2.2592,2.3076,2.3944,2.633,2.7355,2.8286,2.9425,3.1215,3.2506,3.2848,3.3004,3.3102,3.3102,3.3102,3.3102,3.3102,3.3102,3.3102,3.3102,3.3102,3.3102,3.3102,3.3102,3.3102,3.3102,3.3102,3.3102,3.3102,3.3102,3.3102,3.3102,3.3102,3.3102,3.3102,3.3102,3.3102,3.3102,3.3102,3.2689,3.2033,3.1713,3.1192,3.0486,2.9509,2.8968,2.8585,2.794,2.7536,2.7309,2.7309,2.7309,2.7309,2.7309,2.7309,2.7278,2.7123,2.7092,2.705,2.6882,2.6864,2.6864,2.6864,2.6864,2.6915,2.7061,2.7092,2.7133,2.7278,2.7185,2.7133,2.7289,2.7185,2.712,2.7289,2.7309,2.7309,2.7309,2.7309,2.7309,2.7309,2.7309,2.7309,2.7309,2.7309,2.742,2.7696,2.7827,2.8045,2.8365,2.8856,2.9083,2.9083,2.9549,2.9777,2.9777,2.9922,2.9994,2.4698,2.53,2.5475,2.4365,2.4395,2.4219,2.2452,2.1823,2.1264,1.9986,1.9224,1.886,1.9064,1.8979,1.9723,2.2385,2.2689,2.3554,2.6274,2.7103,2.7967,2.9442,3.1515,3.2819,3.2772,3.2977,3.3102,3.3102,3.3102,3.3102,3.3102,3.3102,3.3102,3.3102,3.3102,3.3102,3.3102,3.3102,3.3102,3.3102,3.3102,3.3102,3.3102,3.3102,3.3102,3.3102,3.3102,3.3102,0.0,3.3102,3.3102,3.3059,3.2689,3.2154,3.1514,3.079,3.0136,2.9486,2.8515,2.8175,2.8092,2.7489,2.7309,2.7309,2.7309,2.7309,2.7309,2.7309,2.7309,2.7309,2.7309,2.7309,2.7309,2.7309,2.7309,2.7309,2.7309,2.7309,2.7309,2.7309,2.7309,2.7309,2.7309,2.7309,2.7309,2.7309,2.7309,2.7309,2.7309,2.7309,2.7309,2.7309,2.7309,2.7309,2.7309,2.7309,2.7309,2.7309,2.7309,2.7482,2.7879,2.8065,2.8376,2.8841,2.9332,2.957,2.957,2.986,2.9994,2.9994,2.9994,2.9994,0.0,2.3942,2.4325,2.3487,2.3876,2.3829,2.1422,2.0898,0.0,1.9348,1.9195,1.93,1.9294,1.9326,1.9816,2.1256,2.1074,2.2164,2.623,2.6423,2.7319,3.0468,3.1785,3.2397,3.229,3.2776,3.3102,3.3102,3.3102,3.3102,3.3102,3.3102,3.3102,3.3102,3.3102,3.3102,3.3102,3.3102,3.3102,3.3102,3.3102,3.3102,3.3102,3.3102,3.3102,0.0,3.3102,3.3102,3.3102,3.3102,3.3059,3.2896,3.1967,3.1514,3.1169,2.936,2.8654,2.8468,2.7597,2.7309,2.7309,2.7309,2.7309,2.7309,2.7309,2.7309,2.7309,2.7309,2.7309,2.7309,2.7309,2.7309,2.7309,2.7309,2.7309,2.7309,2.7309,2.7309,2.7309,2.7309,2.7309,2.7309,2.7309,2.7309,2.7309,2.7309,2.7309,2.7309,2.7309,2.7309,2.7309,2.7309,2.7309,2.7309,2.7309,2.7309,2.7309,2.7309,2.7309,2.7493,2.7931,2.8365,2.8845,2.9342,2.9777,2.9994,2.9994,2.9994,2.9994,2.9994,2.9994,2.9994,2.0076,0.0,2.1614,2.0454,2.0681,2.0918,0.0,1.9936,2.0074,1.9275,1.9129,1.9589,2.1056,2.0554,2.1281,2.5446,2.5562,2.5949,2.8323,2.913,2.9929,3.1119,3.2258,3.2929,3.2898,3.3027,3.3102,3.3102,3.3102,3.3102,3.3102,3.3102,3.3102,3.3102,3.3102,3.3102,3.3102,3.3102,3.3102,3.3102,3.3102,3.3102,3.3102,3.3102,3.3102,3.3102,3.3102,3.3102,3.3102,3.3102,3.2646,3.1923,3.1691,3.07,2.9337,2.8863,2.8245,2.7607,2.7381,2.7309,2.7309,2.7309,2.7309,2.7309,2.7309,2.7309,2.7309,2.7309,2.7309,2.7309,2.7309,2.7309,2.7309,2.7309,2.7309,2.7309,2.7309,2.7309,2.7309,2.7309,2.7309,2.7309,2.7309,2.7309,2.7309,2.7309,2.7309,2.7309,2.7309,2.7309,2.7309,2.7309,2.7309,2.7309,2.7309,2.7309,2.7309,2.7309,2.7309,2.7638,2.8396,2.8531,2.9001,2.9818,2.9942,2.9994,2.9994,2.9994,2.9994,2.9994,2.9994,2.9994,1.9101,2.003,2.0828,2.0132,2.0248,2.0422,2.0045,1.9798,1.9537,1.9174,1.9101,1.9522,2.0886,2.0792,2.1609,2.4946,2.5605,2.6388,2.8462,3.0037,3.1072,3.1381,3.2411,3.3102,3.3102,3.3102,3.3102,3.3102,3.3102,3.3102,3.3102,3.3102,3.3102,3.3102,3.3102,3.3102,3.3102,3.3102,3.3102,3.3102,3.3102,3.3102,3.3102,3.3102,3.3102,3.3102,3.3102,3.3102,3.3102,3.3102,3.2503,3.1558,3.1125,3.0034,2.8654,2.8222,2.7739,2.7309,2.7309,2.7309,2.7309,2.7309,2.7309,2.7309,2.7309,2.7309,2.7309,2.7309,2.7309,2.7309,2.7309,2.7309,2.7309,2.7309,2.7309,2.7309,2.7309,2.7309,2.7309,2.7309,2.7309,2.7309,2.7309,2.7309,2.7309,2.7309,2.7309,2.7309,2.7309,2.7309,2.7309,2.7309,2.7309,2.7309,2.7309,2.7309,2.7309,2.7309,2.7472,2.7872,2.8562,2.8814,2.927,2.9984,2.9994,2.9994,2.9994,2.9994,2.9994,2.9994,2.9994,2.9994,1.9333,2.0393,2.1347,2.0969,2.1003,2.1129,2.1017,2.0161,1.9391,1.9391,1.9464,1.9769,2.0542,2.116,2.1999,2.3387,2.4548,2.6019,2.8182,3.0168,3.1424,3.1499,3.2462,3.3102,3.3102,3.3102,3.3102,3.3102,3.3102,3.3102,3.3102,3.3102,3.3102,3.3102,3.3102,3.3102,3.3102,3.3102,3.3102,3.3102,3.3102,3.3102,3.3102,3.3102,3.3102,3.3102,0.0,0.0,3.3102,3.2939,3.2286,3.1281,3.0351,2.9349,2.8375,2.7584,2.7309,2.7309,2.7309,2.7309,2.7309,2.7309,2.7309,2.7309,2.7309,2.7309,2.7309,2.7309,2.7309,2.7309,2.7309,2.7309,2.7309,2.7309,2.7309,2.7309,2.7309,2.7309,2.7309,2.7309,2.7309,2.7309,2.7309,2.7309,2.7309,2.7309,2.7309,2.7309,2.7309,2.7309,2.7309,2.7309,2.7309,2.7309,2.7309,2.7309,2.734,2.7379,2.7717,2.8138,2.8665,2.9166,2.9591,2.9984,2.9994,2.9994,2.9994,2.9994,2.9994,2.9994,2.9994,2.9994,2.0422,2.2058,2.2944,2.078,2.1046,2.1699,2.1133,2.0853,2.0712,2.0712,2.1162,2.1921,2.3104,2.3719,2.4666,2.656,2.7683,2.8777,3.0045,3.0896,3.1562,3.2026,3.2667,3.3102,3.3102,3.3102,3.3102,3.3102,3.3102,3.3102,3.3102,3.3102,3.3102,3.3102,3.3102,3.3102,3.3102,3.3102,3.3102,3.3102,3.3102,3.3102,3.3102,3.3102,3.3102,3.3102,0.0,3.3102,3.3025,3.2186,3.1258,3.0328,2.9314,2.8362,2.7489,2.7347,2.7309,2.7309,2.7309,2.7309,2.7309,2.7309,2.7309,2.7309,2.7309,2.7309,2.7309,2.7309,2.7309,2.7309,2.7309,2.7309,2.7309,2.7309,2.7309,2.7309,2.7309,2.7309,2.7309,2.7309,2.7309,2.7309,2.7309,2.7309,2.7309,2.7309,2.7309,2.7309,2.7309,2.7309,2.7309,2.7309,2.7309,2.7309,2.7309,2.7309,2.7451,2.78,2.7858,2.8282,2.9166,2.9642,2.9922,2.9994,2.9994,2.9994,2.9994,2.9994,2.9994,2.9994,2.9994,2.9994,1.9812,2.138,2.2672,2.1823,2.2818,2.3822,2.3195,2.2488,2.2086,2.244,2.2762,2.3269,2.4212,2.5067,2.6209,2.8004,2.8672,2.9333,3.0439,3.106,3.1599,3.2152,3.2717,3.3102,3.3102,3.3102,3.3102,3.3102,3.3102,3.3102,3.3102,3.3102,3.3102,3.3102,3.3102,3.3102,3.3102,3.3102,3.3102,3.3102,3.3102,3.3102,3.3102,3.3102,3.3102,3.3102,0.0,3.2788,3.2264,3.1779,3.0722,2.9337,2.8886,2.8128,2.7309,2.7309,2.7309,2.7309,2.7309,2.7309,2.7309,2.7309,2.7309,2.7309,2.7309,2.7309,2.7309,2.7309,2.7309,2.7309,2.7309,2.7309,2.7309,2.7309,2.7309,2.7309,2.7309,2.7309,2.7309,2.7309,2.7309,2.7309,2.7309,2.7309,2.7309,2.7309,2.7309,2.7309,2.7309,2.7309,2.7309,2.7309,2.7309,2.7309,2.7309,2.7309,2.7576,2.8255,2.851,2.897,2.9653,2.988,2.9994,2.9994,2.9994,2.9994,2.9994,2.9994,2.9994,2.9994,2.9994,2.9994,1.9464,2.0741,2.2149,2.2754,2.3973,2.5077,2.5183,2.4065,2.327,2.4201,2.4515,2.4722,2.5108,2.6107,2.7363,2.8868,2.9107,2.9496,3.0633,3.1135,3.165,3.234,3.2826,3.3102,3.3102,3.3102,3.3102,3.3102,3.3102,3.3102,3.3102,3.3102,3.3102,3.3102,3.3102,3.3102,3.3102,3.3102,3.3102,3.3102,3.3102,3.3102,3.3102,3.3102,3.3102,3.3102,3.3102,3.2537,3.1581,3.1347,3.026,2.8678,2.8445,2.7927,2.7309,2.7309,2.7309,2.7309,2.7309,2.7309,2.7309,2.7309,2.7309,2.7309,2.7309,2.7309,2.7309,2.7309,2.7309,2.7309,2.7309,2.7309,2.7309,2.7309,2.7309,2.7309,2.7309,2.7309,2.7309,2.7309,2.7309,2.7309,2.7309,2.7309,2.7309,2.7309,2.7309,2.7309,2.7309,2.7309,2.7309,2.7309,2.7309,2.7309,2.7309,2.7482,2.7897,2.8566,2.9145,2.9622,2.9984,2.9994,2.9994,2.9994,2.9994,2.9994,2.9994,2.9994,2.9994,2.9994,2.9994,2.9994,2.0538,2.1423,2.2149,2.2754,2.2999,2.3679,2.5965,2.4994,2.4118,2.5786,2.6612,2.6892,2.6373,2.7216,2.8364,2.9547,2.9729,3.0105,3.1185,3.1381,3.1821,3.2901,3.3077,3.3102,3.3102,3.3102,3.3102,3.3102,3.3102,3.3102,3.3102,3.3102,3.3102,3.3102,3.3102,3.3102,3.3102,3.3102,3.3102,3.3102,3.3102,3.3102,3.3102,3.3102,3.3102,3.3102,3.3102,3.2537,3.1536,3.0666,2.9669,2.8608,2.7739,2.7357,2.7309,2.7309,2.7309,2.7309,2.7309,2.7309,2.7309,2.7309,2.7309,2.7309,2.7309,2.7309,2.7309,2.7309,2.7309,2.7309,2.7309,2.7309,2.7309,2.7309,2.7309,2.7309,2.7309,2.7309,2.7309,2.7309,2.7309,2.7309,2.7309,2.7309,2.7309,2.7309,2.7309,2.7309,2.7309,2.7309,2.7309,2.7309,2.7309,2.7309,2.7309,2.8028,2.852,2.8607,2.9446,2.9953,2.9994,2.9994,2.9994,2.9994,2.9994,2.9994,2.9994,2.9994,2.9994,2.9994,2.9994,2.9994,1.9696,2.0858,2.2195,2.3265,2.3798,2.439,2.564,2.5961,2.6525,2.84,2.8582,2.847,2.8608,2.8622,2.8856,2.9666,2.9792,3.0055,3.0796,3.1185,3.1675,3.2453,3.2876,3.3102,3.3102,3.2776,3.2541,3.2541,3.2215,3.2047,3.2047,3.2047,3.2047,3.2047,3.2047,3.2047,3.2047,3.2047,3.2047,3.206,3.2763,3.3102,3.3102,3.3102,3.3102,3.3081,3.2438,3.1625,3.0643,2.9669,2.8701,2.7786,2.7441,2.7309,2.7309,2.7309,2.7309,2.7309,2.7309,2.7309,2.7309,2.7309,2.7309,2.7309,2.7309,2.7309,2.7309,2.7309,2.7309,2.7309,2.7309,2.7309,2.7309,2.7309,2.7309,2.7309,2.7309,2.7309,2.7309,2.7309,2.7309,2.7309,2.7309,2.7309,2.7309,2.7309,2.7309,2.7309,2.7309,2.7309,2.7309,2.7309,2.7309,2.74,2.7655,2.8255,2.8717,2.9032,2.9642,2.9994,2.9994,2.9994,2.9994,2.9994,2.9994,2.9994,2.9994,2.9994,2.9994,2.9994,2.9994,2.9994,1.9368,2.0383,2.1699,2.2946,2.4008,2.4914,2.5603,2.658,2.7903,2.976,2.9704,2.9452,2.9864,2.951,2.9321,2.9729,2.9792,2.998,3.0512,3.0922,3.1348,3.1888,3.2303,3.2562,3.2562,3.219,3.1951,3.1951,3.1599,3.1406,3.1406,3.1406,3.1406,3.1406,3.1406,3.1406,3.1406,3.1406,3.1406,3.1419,3.2198,3.265,3.2826,3.3014,3.3102,3.3047,3.2033,3.108,3.0125,2.9107,2.8151,2.7309,2.7309,2.7309,2.7309,2.7309,2.7309,2.7309,2.7309,2.7309,2.7309,2.7309,2.7309,2.7309,2.7309,2.7309,2.7309,2.7309,2.7309,2.7309,2.7309,2.7309,2.7309,2.7309,2.7309,2.7309,2.7309,2.7309,2.7309,2.7309,2.7309,2.7309,2.7309,2.7309,2.7309,2.7309,2.7309,2.7309,2.7309,2.7309,2.7309,2.7309,2.7309,2.74,2.7686,2.8266,2.8752,2.9063,2.9653,2.9994,2.9994,2.9994,2.9994,2.9994,2.9994,2.9994,2.9994,2.9994,2.9994,2.9994,2.9994,2.9994,1.9945,2.0206,2.0577,2.1651,2.3288,2.4942,2.6074,2.6857,2.7792,2.9466,2.9811,2.9811,2.9792,2.9792,2.9792,2.9792,2.9792,2.998,3.0512,3.06,3.0809,3.1323,3.1406,3.1406,3.1406,3.1406,3.1386,3.1386,3.1386,3.1373,3.1373,3.1373,3.1373,3.1373,3.1373,3.1373,3.1373,3.1373,3.1373,3.1373,3.1386,3.1675,3.2206,3.2826,3.309,3.3047,3.2033,3.1058,3.0125,2.9107,2.8128,2.7309,2.7309,2.7309,2.7309,2.7309,2.7309,2.7309,2.7309,2.7309,2.7309,2.7309,2.7309,2.7309,2.7309,2.7309,2.7309,2.7309,2.7309,2.7309,2.7309,2.7309,2.7309,2.7309,2.7309,2.7309,2.7309,2.7309,2.7309,2.7309,2.7309,2.7309,2.7309,2.7309,2.7309,2.7309,2.7309,2.7309,2.7309,2.7309,2.7309,2.7309,2.7309,2.7309,2.732,2.81,2.8593,2.8618,2.9487,2.9994,2.9994,2.9994,2.9994,2.9994,2.9994,2.9994,2.9994,2.9994,2.9994,2.9994,2.9994,2.9994,1.9484,2.0731,2.2299,2.2993,2.5245,2.7451,2.8064,2.8785,2.9571,3.0401,3.0564,3.0419,2.9895,2.9792,2.9792,2.9792,2.9792,2.9854,3.0018,3.0369,3.0651,3.0834,3.1173,3.1406,3.1406,3.106,3.0846,3.0846,3.0482,3.0269,3.0269,3.0269,3.0269,3.0269,3.0269,3.0269,3.0269,3.0269,3.0269,3.0269,3.0658,3.1122,3.165,3.2215,3.2466,3.2406,3.1158,3.0464,3.0079,2.8398,2.756,2.7309,2.7309,2.7309,2.7309,2.7309,2.7309,2.7309,2.7309,2.7309,2.7309,2.7309,2.7309,2.7309,2.7309,2.7309,2.7309,2.7309,2.7309,2.7309,2.7309,2.7309,2.7309,2.7309,2.7309,2.7309,2.7309,2.7309,2.7309,2.7309,2.7309,2.7309,2.7309,2.7309,2.7309,2.7309,2.7309,2.7309,2.7309,2.7309,2.7309,2.7309,2.7309,2.741,2.7696,2.8276,2.8752,2.9073,2.9663,2.9994,2.9994,2.9994,2.9994,2.9994,2.9994,2.9994,2.9994,2.9994,2.9994,2.9994,2.9994,2.9994,2.0169,2.1775,2.3559,2.4272,2.6427,2.8618,2.9532,2.9907,3.0116,3.0397,3.0463,3.0324,2.9876,2.9792,2.9792,2.9792,2.9792,2.9792,2.9792,3.008,3.0281,3.0281,3.057,3.0758,3.0758,3.047,3.0281,3.0281,2.998,2.9792,2.9792,2.9792,2.9792,2.9792,2.9792,2.9792,2.9792,2.9792,2.9792,2.9792,3.0131,3.0444,3.0783,3.1369,3.1633,3.1573,3.0187,2.9395,2.8968,2.7786,2.7309,2.7309,2.7309,2.7309,2.7309,2.7309,2.7309,2.7309,2.7309,2.7309,2.7309,2.7309,2.7309,2.7309,2.7309,2.7309,2.7309,2.7309,2.7309,2.7309,2.7309,2.7309,2.7309,2.7309,2.7309,2.7309,2.7309,2.7309,2.7309,2.7309,2.7309,2.7309,2.7309,2.7309,2.7309,2.7309,2.7309,2.7309,2.7309,2.7309,2.7309,2.7309,2.7309,2.7389,2.7634,2.8245,2.8706,2.9011,2.9642,2.9994,2.9994,2.9994,2.9994,2.9994,2.9994,2.9994,2.9994,2.9994,2.9994,2.9994,2.9994,3.0098,2.1451,2.2971,2.4327,2.5395,2.7063,2.8854,3.0443,3.0279,2.9811,2.9888,2.985,2.9792,2.9792,2.9792,2.9792,2.9792,2.9792,2.9792,2.9792,2.9792,2.9792,2.9792,2.9792,2.9792,2.9792,2.9792,2.9792,2.9792,2.9792,2.9792,2.9792,2.9792,2.9792,2.9792,2.9792,2.9792,2.9792,2.9792,2.9792,2.9772,2.9792,2.9792,2.9803,3.0464,3.0725,3.0553,2.9251,2.8132,2.7238,2.7238,2.7238,2.7262,2.7238,2.7238,2.7262,2.7238,2.7238,2.7262,2.7262,2.7286,2.7309,2.7309,2.7309,2.7309,2.7309,2.7309,2.7309,2.7309,2.7309,2.7309,2.7309,2.7309,2.7309,2.7309,2.7309,2.7309,2.7309,2.7309,2.7309,2.7309,2.7309,2.7309,2.7309,2.7309,2.7309,2.7309,2.7309,2.7309,2.7309,2.7309,2.7309,2.7309,2.7309,2.7309,2.7309,2.809,2.8593,2.8593,2.9477,2.9994,2.9994,2.9994,2.9994,2.9994,2.9994,2.9994,2.9994,2.9994,2.9994,2.9994,2.9994,3.0222,2.097,2.2512,2.4235,2.5773,2.7833,2.9573,2.9942,2.9914,2.996,3.0545,3.0203,2.9792,2.9792,2.9792,2.9792,2.9792,2.9792,2.9792,2.9792,2.9792,2.9792,2.9792,2.9792,2.9792,2.9792,2.9792,2.9792,2.9792,2.9792,2.9792,2.9792,2.9792,2.9792,2.9792,2.9792,2.9792,2.9792,2.9792,2.9689,2.9489,2.9702,2.9702,2.9514,3.0283,3.0187,2.9357,2.8847,2.7869,2.6664,2.6664,2.6794,2.6972,2.6736,2.6794,2.6972,2.6736,2.6818,2.6996,2.6996,2.7129,2.7309,2.7309,2.7309,2.7309,2.7309,2.7309,2.7309,2.7309,2.7309,2.7309,2.7309,2.7309,2.7309,2.7309,2.7309,2.7309,2.7309,2.7309,2.7309,2.7309,2.7309,2.7309,2.7309,2.7309,2.7309,2.7309,2.7309,2.7309,2.7309,2.7309,2.7309,2.7309,2.7309,2.7309,2.7309,2.809,2.8593,2.8593,2.9477,2.9994,2.9994,2.9994,2.9994,2.9994,2.9994,2.9994,2.9994,2.9994,2.9994,2.9994,2.9994,3.0046,2.1066,2.286,2.4818,2.7072,2.8728,2.9792,2.9792,2.9792,2.9914,3.0286,3.0075,2.9792,2.9792,2.9792,2.9792,2.9792,2.9792,2.9792,2.9792,2.9792,2.974,2.9631,2.9721,2.9753,2.9631,2.9721,2.9792,2.9792,2.9792,2.9792,2.9792,2.9792,2.974,2.9599,2.9721,2.974,2.9611,2.9611,2.9541,2.9399,2.9443,2.9397,2.9248,2.9157,2.8715,2.7977,2.7476,2.6835,2.6171,2.6406,2.6578,2.6699,2.6544,2.6602,2.6699,2.6544,2.6602,2.6699,2.6699,2.6794,2.6928,2.6928,2.7,2.7105,2.7105,2.7201,2.7309,2.7309,2.7309,2.7309,2.7309,2.7309,2.7309,2.7309,2.7309,2.7309,2.7309,2.7309,2.7309,2.7309,2.7309,2.7309,2.7309,2.7309,2.7309,2.7309,2.7309,2.7309,2.7309,2.719,2.7105,2.7105,2.7,2.6976,2.7105,2.7918,2.8457,2.8582,2.9477,2.9994,2.9994,2.9994,2.9994,2.9994,2.9994,2.9994,2.9994,2.9994,2.9994,2.9994,2.9994,3.0118,2.0903,2.3105,2.5436,2.8238,2.9295,2.9666,2.9786,2.9792,2.9792,2.9792,2.9792,2.9792,2.9792,2.9792,2.9792,2.9792,2.9792,2.9792,2.974,2.9721,2.9631,2.938,2.9541,2.9592,2.936,2.9592,2.9721,2.9682,2.9702,2.9721,2.9682,2.9675,2.9573,2.9373,2.9573,2.9573,2.9341,2.9341,2.9321,2.9282,2.9118,2.9072,2.9064,2.7835,2.7112,2.6843,2.619,2.5834,2.5711,2.6106,2.633,2.6424,2.6376,2.6376,2.6424,2.6376,2.64,2.6424,2.6424,2.6448,2.6496,2.6496,2.6651,2.6829,2.6829,2.6986,2.7167,2.7167,2.7167,2.7167,2.7167,2.7167,2.7167,2.7167,2.7167,2.719,2.7286,2.7309,2.7309,2.7309,2.7262,2.7238,2.7286,2.7262,2.7238,2.7286,2.7309,2.7309,2.7309,2.7058,2.6924,2.6972,2.6699,2.6602,2.6877,2.7672,2.8247,2.8507,2.9399,2.9942,2.9994,2.9994,2.9994,2.9994,2.9994,2.9994,2.9994,2.9994,2.9994,2.9994,2.9994,3.0201,1.9253,2.2009,2.521,2.7693,2.8671,2.9157,2.9679,2.9792,2.9792,2.9792,2.9792,2.9792,2.9792,2.9792,2.9792,2.9792,2.9792,2.9721,2.9489,2.9438,2.9373,2.917,2.917,2.917,2.915,2.9334,2.9373,2.9209,2.9353,2.9373,2.9189,2.9189,2.917,2.915,2.917,2.917,2.915,2.915,2.904,2.887,2.885,2.8922,2.9032,2.7144,2.6474,2.6811,2.652,2.596,2.5187,2.5269,2.5634,2.6125,2.5902,2.5941,2.6125,2.5902,2.5941,2.6149,2.6149,2.6304,2.6496,2.6496,2.652,2.6544,2.6544,2.6568,2.6616,2.6616,2.6616,2.6616,2.6616,2.6616,2.6616,2.6616,2.6616,2.6736,2.7214,2.7309,2.7309,2.7309,2.7105,2.7034,2.7262,2.7105,2.7034,2.7262,2.7309,2.7309,2.7309,2.7058,2.6986,2.7214,2.6808,2.6602,2.6877,2.7484,2.7955,2.8247,2.9131,2.9774,2.9994,2.9994,2.9994,2.9994,2.9994,2.9994,2.9994,2.9994,2.9994,2.9994,2.9994,3.0025,2.0021,2.2348,2.468,2.7141,2.7884,2.8235,2.9095,2.9296,2.9383,2.9729,2.9682,2.9631,2.9772,2.9792,2.9792,2.9792,2.967,2.9528,2.9419,2.9314,2.9157,2.8961,2.9032,2.9052,2.8941,2.9118,2.9197,2.9111,2.9177,2.9177,2.9091,2.9091,2.9052,2.8941,2.9052,2.9052,2.8922,2.8922,2.8823,2.8637,2.8637,2.8677,2.8717,2.7334,2.6595,2.6347,2.5396,2.4882,2.4727,2.4994,2.5404,2.5868,2.5757,2.5781,2.5868,2.5732,2.5781,2.5868,2.5868,2.5941,2.6048,2.6048,2.6159,2.6269,2.6269,2.6376,2.6496,2.6496,2.6496,2.6496,2.6496,2.6496,2.6496,2.6496,2.6496,2.6568,2.6808,2.6856,2.6856,2.6856,2.689,2.69,2.6856,2.689,2.69,2.6856,2.6986,2.701,2.688,2.6616,2.6496,2.663,2.6279,2.6169,2.6424,2.7152,2.7743,2.8171,2.9069,2.9659,2.9774,2.9774,2.9695,2.9511,2.9669,2.9774,2.9774,2.959,2.9511,2.9511,2.9511,2.959,2.045,2.1949,2.3165,2.5975,2.6616,2.6895,2.813,2.8406,2.8606,2.9338,2.9329,2.9276,2.9567,2.9624,2.9643,2.9702,2.9482,2.9314,2.9263,2.9118,2.8954,2.8744,2.8855,2.8895,2.8744,2.8914,2.9013,2.8954,2.8993,2.9013,2.8954,2.8954,2.8875,2.8724,2.8875,2.8875,2.8724,2.8724,2.8657,2.849,2.849,2.8379,2.8139,2.7255,2.6432,2.562,2.448,2.4082,2.4277,2.4633,2.5068,2.5542,2.5542,2.561,2.5693,2.5693,2.5693,2.5693,2.5693,2.5693,2.5693,2.5693,2.5854,2.6004,2.6004,2.6135,2.6314,2.6314,2.6314,2.6314,2.6314,2.6314,2.6314,2.6314,2.6314,2.6328,2.6472,2.6496,2.6496,2.6496,2.6602,2.6651,2.652,2.6602,2.6651,2.652,2.6675,2.6723,2.653,2.6269,2.6125,2.6197,2.5893,2.5805,2.6076,2.6745,2.7381,2.796,2.8761,2.931,2.9475,2.9475,2.9369,2.9105,2.929,2.9396,2.9475,2.9211,2.9105,2.9105,2.9105,2.9237,1.9315,1.973,2.012,2.3753,2.4601,2.5005,2.6702,2.7094,2.7392,2.8443,2.8648,2.8753,2.9071,2.9131,2.9209,2.938,2.9255,2.9052,2.8863,2.8811,2.8744,2.855,2.853,2.853,2.853,2.8697,2.8744,2.855,2.8717,2.8724,2.855,2.853,2.853,2.853,2.853,2.853,2.853,2.853,2.851,2.849,2.849,2.8079,2.7246,2.6287,2.5411,2.4573,2.4498,2.4211,2.3828,2.387,2.4369,2.5121,2.5121,2.5361,2.5693,2.5693,2.5693,2.5693,2.5693,2.5693,2.5693,2.5693,2.5708,2.5708,2.5708,2.5732,2.5732,2.5732,2.5732,2.5732,2.5732,2.5732,2.5732,2.5732,2.5732,2.5878,2.6376,2.6496,2.6496,2.6496,2.6304,2.6221,2.6448,2.6294,2.6221,2.6448,2.652,2.652,2.6496,2.6269,2.6197,2.6448,2.6024,2.5805,2.6076,2.6325,2.6732,2.7395,2.7903,2.8454,2.9112,2.9132,2.9132,2.9105,2.886,2.8877,2.9132,2.9105,2.9105,2.9105,2.9105,2.9105,1.8448,1.9273,2.0213,2.2314,2.3079,2.3684,2.5125,2.5882,2.6532,2.7388,2.7638,2.7765,2.8037,2.8632,2.9131,2.9197,2.904,2.8882,2.8811,2.8685,2.8578,2.851,2.849,2.849,2.849,2.8558,2.8578,2.851,2.8558,2.8578,2.849,2.849,2.849,2.849,2.849,2.849,2.849,2.849,2.849,2.849,2.7926,2.749,2.7153,2.5652,2.4787,2.4477,2.3864,2.3687,2.3789,2.3789,2.4131,2.4678,2.4984,2.519,2.5342,2.561,2.5693,2.5693,2.5693,2.5693,2.5693,2.5693,2.5693,2.5693,2.5693,2.5693,2.5693,2.5693,2.5693,2.5693,2.5693,2.5693,2.5693,2.5693,2.5693,2.5757,2.5951,2.611,2.6183,2.6024,2.6062,2.6076,2.5999,2.6052,2.6076,2.5999,2.6135,2.6173,2.6024,2.5893,2.5868,2.5975,2.5805,2.5732,2.5854,2.6182,2.6688,2.7369,2.7831,2.8304,2.8814,2.8824,2.8771,2.8584,2.8478,2.8594,2.8824,2.8664,2.8584,2.8584,2.8584,2.8691,1.7409,1.8465,1.9806,2.1178,2.1532,2.2013,2.3841,2.4412,2.4841,2.601,2.6479,2.6791,2.7218,2.7889,2.8438,2.8687,2.8714,2.8705,2.8705,2.8578,2.849,2.849,2.849,2.849,2.849,2.849,2.849,2.849,2.849,2.849,2.849,2.849,2.849,2.849,2.849,2.849,2.849,2.849,2.849,2.849,2.7623,2.7031,2.667,2.5189,2.4327,2.4005,2.3375,2.3279,2.3574,2.3574,2.3828,2.4238,2.4545,2.4838,2.5121,2.54,2.5581,2.5693,2.5693,2.5693,2.5693,2.5693,2.5693,2.5693,2.5693,2.5693,2.5693,2.5693,2.5693,2.5693,2.5693,2.5693,2.5693,2.5693,2.5693,2.5693,2.5693,2.5854,2.5917,2.5732,2.5844,2.5917,2.5732,2.5844,2.5917,2.5732,2.5844,2.5893,2.5708,2.5693,2.5693,2.5693,2.5693,2.5693,2.5693,2.5981,2.6481,2.7217,2.7548,2.7973,2.8538,2.8568,2.8488,2.8291,2.8291,2.8381,2.8568,2.8381,2.8291,2.8291,2.8291,2.8408,0.0,0.0,0.0,2.0309,1.9971,1.996,2.2823,2.2571,2.2304,2.4297,2.5126,2.5778,2.6659,2.6837,2.7093,2.7829,2.8231,2.8486,2.8486,2.8478,2.849,2.849,2.849,2.849,2.849,2.849,2.849,2.849,2.849,2.849,2.849,2.849,2.849,2.849,2.849,2.849,2.849,2.849,2.849,2.8451,2.7583,2.667,2.5725,2.4872,2.3972,2.3091,2.3091,2.3091,2.3091,2.3091,2.3367,2.3769,2.3779,2.432,2.5053,2.5063,2.5332,2.5689,2.5689,2.5698,2.5693,2.5693,2.5693,2.5693,2.5693,2.5693,2.5693,2.5693,2.5693,2.5693,2.5693,2.5693,2.5693,2.5693,2.5693,2.5693,2.5693,2.5693,2.5693,2.5693,2.5693,2.5693,2.5693,2.5693,2.5693,2.5693,2.5693,2.5693,2.5693,2.5693,2.5693,2.5693,2.5693,2.5693,2.5693,2.5703,2.6089,2.6937,2.6996,2.7412,2.8252,2.8291,2.8291,2.8291,2.8291,2.8291,2.8291,2.8291,2.8291,2.8291,2.8291,2.8291,1.6466,0.0,0.0,0.0,0.0,0.0,2.0293,2.0496,2.088,2.221,2.2821,2.3562,2.491,2.5474,2.5943,2.6528,2.7339,2.7926,2.7926,2.827,2.849,2.849,2.849,2.849,2.849,2.849,2.849,2.849,2.849,2.849,2.849,2.849,2.849,2.849,2.849,2.849,2.849,2.849,2.8179,2.7551,2.6629,2.5725,2.4829,2.3907,2.3353,2.3091,2.3091,2.3091,2.3091,2.3091,2.3191,2.3327,2.3662,2.3958,2.4202,2.4482,2.4873,2.5278,2.5278,2.5469,2.5693,2.5693,2.5693,2.5693,2.5693,2.5693,2.5693,2.5693,2.5693,2.5693,2.5693,2.5693,2.5693,2.5693,2.5693,2.5693,2.5693,2.5693,2.5693,2.5693,2.5693,2.5693,2.5693,2.5693,2.5693,2.5693,2.5693,2.5693,2.5693,2.5693,2.5693,2.5693,2.5693,2.5693,2.5693,2.6001,2.6435,2.6982,2.7314,2.7761,2.8271,2.8291,2.8291,2.8291,2.8291,2.8291,2.8291,2.8291,2.8291,2.8291,2.8291,2.8291,0.0,0.0,0.0,1.9077,0.0,0.0,1.9558,1.9317,1.9353,2.0596,2.121,2.1945,2.3287,2.3989,2.4518,2.5053,2.6021,2.6856,2.7313,2.783,2.8166,2.8166,2.8358,2.849,2.849,2.849,2.849,2.849,2.849,2.849,2.849,2.8159,2.8119,2.849,2.7773,2.7571,2.7946,2.7571,2.7133,2.6609,2.5683,2.4999,2.4477,2.3539,2.3091,2.3091,2.3091,2.3091,2.3091,2.3091,2.3091,2.312,2.3396,2.3633,2.3818,2.4062,2.4424,2.4818,2.4818,2.4971,2.5191,2.54,2.5459,2.5488,2.5659,2.5693,2.5693,2.5693,2.5693,2.5693,2.5693,2.5693,2.5693,2.5693,2.5693,2.5693,2.5693,2.5693,2.5693,2.5693,2.5693,2.5693,2.5693,2.5693,2.5693,2.5693,2.5693,2.5693,2.5693,2.5693,2.5693,2.5693,2.5693,2.5786,2.5971,2.624,2.665,2.7246,2.7555,2.7878,2.8271,2.8291,2.8291,2.8291,2.8291,2.8291,2.8291,2.8291,2.8291,2.8291,2.8291,2.8291,0.0,0.0,0.0,0.0,1.9468,0.0,1.9672,1.873,1.8067,1.928,1.9913,2.0584,2.1716,2.2369,2.2887,2.3372,2.4403,2.554,2.6645,2.7277,2.7613,2.7613,2.8034,2.831,2.831,2.837,2.8406,2.8406,2.8474,2.849,2.849,2.7672,2.7551,2.8331,2.668,2.6205,2.7042,2.6225,2.5756,2.5663,2.4872,2.4456,2.4327,2.3484,2.3091,2.3091,2.3091,2.3091,2.3091,2.3091,2.3091,2.3091,2.3091,2.3357,2.3721,2.3721,2.3984,2.4323,2.4323,2.4352,2.4492,2.4945,2.5092,2.518,2.5581,2.5693,2.5693,2.5693,2.5693,2.5693,2.5693,2.5693,2.5693,2.5693,2.5693,2.5693,2.5693,2.5693,2.5693,2.5693,2.5693,2.5693,2.5693,2.5693,2.5693,2.5693,2.5693,2.5693,2.5693,2.5693,2.5693,2.5693,2.5693,2.5893,2.6357,2.6435,2.6832,2.7643,2.7741,2.7936,2.8281,2.8291,2.8291,2.8291,2.8291,2.8291,2.8291,2.8291,2.8291,2.8291,2.8291,2.8291,0.0,0.0,0.0,0.0,2.0161,0.0,1.7976,1.7987,1.8375,1.7955,1.7952,1.8481,1.9987,2.0706,2.1103,2.1217,2.2843,2.4595,2.6057,2.6724,2.7054,2.7054,2.7138,2.7198,2.7198,2.7601,2.7866,2.7866,2.825,2.849,2.849,2.7672,2.7287,2.745,2.637,2.5882,2.608,2.5882,2.5453,2.4744,2.4573,2.4091,2.3375,2.3178,2.3091,2.3091,2.3091,2.3091,2.3091,2.3091,2.3091,2.3091,2.3091,2.3171,2.324,2.324,2.3545,2.3906,2.3906,2.4131,2.4492,2.4945,2.5092,2.518,2.5581,2.5693,2.5693,2.5693,2.5693,2.5693,2.5693,2.5693,2.5693,2.5693,2.5693,2.5693,2.5693,2.5693,2.5693,2.5693,2.5693,2.5693,2.5693,2.5693,2.5693,2.5693,2.5693,2.5693,2.5693,2.5693,2.5693,2.5693,2.5693,2.5893,2.6357,2.6699,2.7119,2.7663,2.8015,2.8203,2.8291,2.8291,2.8291,2.8291,2.8291,2.8291,2.8291,2.8291,2.8291,2.8291,2.8291,2.8291,0.0,0.0,0.0,2.0324,2.0243,0.0,0.0,1.7965,1.7764,1.811,1.7556,1.7496,1.9108,1.9612,1.9889,2.0157,2.1783,2.3188,2.3676,2.5102,2.6099,2.6099,2.634,2.6496,2.6496,2.6988,2.7313,2.7313,2.7794,2.8094,2.8094,2.7076,2.6712,2.7185,2.5411,2.467,2.5158,2.4691,2.4231,2.3799,2.3799,2.356,2.3091,2.3091,2.3091,2.3091,2.3091,2.3091,2.3091,2.3091,2.3091,2.3091,2.3091,2.3091,2.3091,2.3091,2.3249,2.3445,2.3445,2.3581,2.3864,2.4531,2.4746,2.4863,2.5513,2.5693,2.5693,2.5693,2.5693,2.5693,2.5693,2.5693,2.5693,2.5693,2.5693,2.5693,2.5693,2.5693,2.5693,2.5693,2.5693,2.5693,2.5693,2.5693,2.5693,2.5693,2.5693,2.5693,2.5693,2.5693,2.5693,2.5693,2.5913,2.624,2.667,2.709,2.7545,2.7976,2.8174,2.8291,2.8291,2.8291,2.8291,2.8291,2.8291,2.8291,2.8291,2.8291,2.8291,2.8291,2.8291,2.8291,2.1248,2.1174,2.1459,2.0773,2.0318,1.9889,0.0,0.0,0.0,1.847,1.7652,1.7147,1.8458,1.8686,1.8794,1.9132,2.0625,2.15,2.0875,2.2871,2.4434,2.4542,2.5204,2.5595,2.5439,2.5723,2.6058,2.6415,2.6602,2.6858,2.7195,2.6075,2.5794,2.665,2.4338,2.3462,2.422,2.3484,2.3091,2.3091,2.3091,2.3091,2.3091,2.3091,2.3091,2.3091,2.3091,2.3091,2.3091,2.3091,2.3091,2.3091,2.3091,2.3091,2.3091,2.3091,2.3091,2.3091,2.3091,2.3171,2.3367,2.4147,2.4508,2.4781,2.5493,2.5693,2.5693,2.5693,2.5693,2.5693,2.5693,2.5693,2.5693,2.5693,2.5693,2.5693,2.5693,2.5693,2.5693,2.5693,2.5693,2.5693,2.5693,2.5693,2.5693,2.5693,2.5693,2.5693,2.5693,2.5693,2.5693,2.5693,2.6055,2.6465,2.6947,2.7344,2.778,2.8262,2.8291,2.8291,2.8291,2.8291,2.8291,2.8291,2.8291,2.8291,2.8291,2.8291,2.8291,2.8291,2.8291,2.8291,2.2605,2.2741,2.257,2.0167,2.0957,2.141,1.7934,0.0,1.8724,1.7773,0.0,1.7351,1.7556,0.0,0.0,1.7027,1.871,1.9722,1.871,2.0047,2.131,2.1789,2.3164,2.379,2.3074,2.2626,2.3043,2.464,2.3776,2.3851,2.5396,2.4561,2.4273,2.4797,2.3712,2.3157,2.3266,2.3157,2.3091,2.3091,2.3091,2.3091,2.3091,2.3091,2.3091,2.3091,2.3091,2.3091,2.3091,2.3091,2.3091,2.3091,2.3091,2.3091,2.3091,2.3091,2.3091,2.3091,2.3091,2.3367,2.3799,2.4235,2.4918,2.5581,2.5664,2.5693,2.5693,2.5693,2.5693,2.5693,2.5693,2.5693,2.5693,2.5693,2.5693,2.5693,2.5693,2.5693,2.5693,2.5693,2.5693,2.5693,2.5693,2.5693,2.5693,2.5693,2.5693,2.5693,2.5693,2.5693,2.5693,2.5693,2.5757,2.6118,2.6918,2.706,2.7432,2.8242,2.8291,2.8291,2.8291,2.8291,2.8291,2.8291,2.8291,2.8291,2.8291,2.8291,2.8291,2.8291,2.8291,2.8291,2.247,2.253,2.2501,2.068,2.0677,0.0,1.8537,0.0,1.7847,1.8242,0.0,0.0,0.0,0.0,0.0,0.0,1.8085,1.8494,1.7424,1.8663,1.9866,2.0408,2.107,2.1553,2.1719,2.1526,2.1812,2.2794,2.2706,2.2999,2.3941,2.3867,2.3898,2.4084,2.3453,2.3091,2.3091,2.3091,2.3091,2.3091,2.3091,2.3091,2.3091,2.3091,2.3091,2.3091,2.3091,2.3091,2.3091,2.3091,2.3091,2.3091,2.3091,2.3091,2.3091,2.3091,2.3091,2.313,2.3406,2.3633,2.3896,2.4603,2.5225,2.5693,2.5693,2.5693,2.5693,2.5693,2.5693,2.5693,2.5693,2.5693,2.5693,2.5693,2.5693,2.5693,2.5693,2.5693,2.5693,2.5693,2.5693,2.5693,2.5693,2.5693,2.5693,2.5693,2.5693,2.5693,2.5693,2.5693,2.5693,2.5693,2.5942,2.6357,2.6937,2.7246,2.7656,2.8252,2.8291,2.8291,2.8291,2.8291,2.8291,2.8291,2.8291,2.8291,2.8291,2.8291,2.8291,2.8291,2.8291,2.8291,2.2491,0.0,0.0,0.0,0.0,0.0,0.0,0.0,0.0,0.0,1.8205,0.0,0.0,0.0,0.0,0.0,0.0,1.7772,1.6559,1.7508,1.8482,1.888,1.9112,1.9552,2.0331,1.9888,1.9884,2.0664,2.0665,2.1097,2.2165,2.2664,2.3073,2.343,2.3234,2.3091,2.3091,2.3091,2.3091,2.3091,2.3091,2.3091,2.3091,2.3091,2.3091,2.3091,2.3091,2.3091,2.3091,2.3091,2.3091,2.3091,2.3091,2.3091,2.3091,2.3091,2.3091,2.3159,2.3633,2.3968,2.429,2.501,2.5469,2.5693,2.5693,2.5693,2.5693,2.5693,2.5693,2.5693,2.5693,2.5693,2.5693,2.5693,2.5693,2.5693,2.5693,2.5693,2.5693,2.5693,2.5693,2.5693,2.5693,2.5693,2.5693,2.5693,2.5693,2.5693,2.5693,2.5693,2.5693,2.5693,2.5991,2.6387,2.6807,2.7236,2.7715,2.8262,2.8291,2.8291,2.8291,2.8291,2.8291,2.8291,2.8291,2.8291,2.8291,2.8291,2.8291,2.8291,2.8291,2.8291,0.0,0.0,0.0,1.9844,0.0,0.0,0.0,0.0,1.8782,0.0,0.0,0.0,0.0,0.0,0.0,0.0,0.0,0.0,0.0,1.6319,1.6679,1.6703,1.7387,1.8088,1.8635,1.6855,1.6372,1.8095,1.6607,1.6912,1.985,2.0448,2.1261,2.2492,2.2898,2.3091,2.3091,2.3091,2.3091,2.3091,2.3091,2.3091,2.3091,2.3091,2.3091,2.3091,2.3091,2.3091,2.3091,2.3091,2.3091,2.3091,2.3091,2.3091,2.3091,2.3091,2.3091,2.3159,2.3633,2.4349,2.5131,2.5542,2.5698,2.5693,2.5693,2.5693,2.5693,2.5693,2.5693,2.5693,2.5693,2.5693,2.5693,2.5693,2.5693,2.5693,2.5693,2.5693,2.5693,2.5693,2.5693,2.5693,2.5693,2.5693,2.5693,2.5693,2.5693,2.5693,2.5693,2.5693,2.5693,2.5693,2.5703,2.5913,2.6367,2.6797,2.7393,2.8242,2.8291,2.8291,2.8291,2.8291,2.8291,2.8291,2.8291,2.8291,2.8291,2.8291,2.8291,2.8291,2.8291,2.8291,0.0,0.0,2.3676,2.1199,0.0,0.0,0.0,0.0,0.0,0.0,0.0,0.0,0.0,0.0,0.0,0.0,0.0,0.0,0.0,1.5959,1.6067,1.6067,1.6541,1.6941,1.7124,1.6195,1.6025,1.7164,1.6668,1.7001,1.8555,1.9882,2.0928,2.162,2.2332,2.284,2.3091,2.3091,2.3091,2.3091,2.3091,2.3091,2.3091,2.3091,2.3091,2.3091,2.3091,2.3091,2.3091,2.3091,2.3091,2.3091,2.3091,2.3091,2.3091,2.3091,2.3298,2.3672,2.4408,2.5019,2.5513,2.5659,2.5693,2.5693,2.5693,2.5693,2.5693,2.5693,2.5693,2.5693,2.5693,2.5693,2.5693,2.5693,2.5693,2.5693,2.5693,2.5693,2.5693,2.5693,2.5693,2.5693,2.5693,2.5693,2.5693,2.5693,2.5693,2.5693,2.5693,2.5693,2.5693,2.5693,2.5693,2.5893,2.6357,2.7066,2.7685,2.8252,2.8291,2.8291,2.8291,2.8291,2.8291,2.8291,2.8291,2.8291,2.8291,2.8291,2.8291,2.8291,2.8291,2.8291,2.4102,2.4278,0.0,2.1796,2.1001,0.0,1.8032,0.0,1.8691,0.0,0.0,0.0,0.0,0.0,0.0,0.0,0.0,0.0,0.0,1.5803,1.5803,1.5803,1.6033,1.6177,1.6154,1.554,1.5408,1.6078,1.6109,1.6512,1.748,1.9198,2.0459,2.1171,2.2049,2.2693,2.3091,2.3091,2.3091,2.3091,2.3091,2.3091,2.3091,2.3091,2.3057,2.2991,2.3079,2.3057,2.2991,2.3079,2.3091,2.3091,2.3091,2.3091,2.3091,2.3091,2.3484,2.4111,2.4848,2.5361,2.5693,2.5693,2.5693,2.5693,2.5693,2.5693,2.5693,2.5693,2.5693,2.5693,2.5693,2.5693,2.5693,2.5693,2.5693,2.5693,2.5693,2.5693,2.5693,2.5693,2.5693,2.5693,2.5693,2.5693,2.5693,2.5693,2.5693,2.5693,2.5693,2.5693,2.5693,2.5693,2.5693,2.5952,2.6562,2.7145,2.7685,2.8252,2.8291,2.8291,2.8291,2.8291,2.8291,2.8291,2.8291,2.8291,2.8291,2.8291,2.8291,2.8291,2.8291,2.8291]},{"header":{"parameterUnit":"m.s-1","parameterCategory":1,"la1":30.6,"la2":29.2853,"lo1":-89.7004,"lo2":-87.6739,"dy":0.0162,"dx":0.0183,"nx":112,"ny":82,"refTime":"2025-08-23T00:00:00:Z","depth":0,"parameterNumber":3,"parameterNumberName":"V-component_of_WINDS"},"data":[0.0,0.0,0.0,0.0,0.0,0.0,0.0,0.0,0.0,0.0,0.0,0.0,0.0,0.0,0.0,0.0,0.0,0.0,0.0,0.0,0.0,0.0,0.0,0.0,0.0,0.0,0.0,0.0,0.0,0.0,0.0,0.0,0.0,0.0,0.0,0.0,0.0,0.0,0.0,0.0,0.0,0.0,0.0,0.0,0.0,0.0,0.0,0.0,0.0,0.0,0.0,0.0,0.0,0.0,0.0,0.0,0.0,0.0,0.0,0.0,0.0,0.0,0.0,0.0,0.0,0.0,0.0,0.0,0.0,0.0,0.0,0.0,0.0,0.0,0.0,0.0,0.0,0.0,0.0,0.0,0.0,0.0,0.0,0.0,0.0,0.0,0.0,0.0,0.0,0.0,1.6621,1.8666,2.1175,2.2632,2.2451,2.2558,2.1657,1.94,0.0,0.0,0.0,0.0,0.0,0.0,0.0,0.0,0.0,0.0,0.0,0.0,0.0,0.0,0.0,0.0,0.0,0.0,0.0,0.0,0.0,0.0,0.0,0.0,0.0,0.0,0.0,0.0,0.0,0.0,0.0,0.0,0.0,0.0,0.0,0.0,0.0,0.0,0.0,0.0,0.0,0.0,0.0,0.0,0.0,0.0,0.0,0.0,0.0,0.0,0.0,0.0,0.0,0.0,0.0,0.0,0.0,0.0,0.0,0.0,0.0,0.0,0.0,0.0,0.0,0.0,0.0,0.0,0.0,0.0,0.0,0.0,0.0,0.0,0.0,0.0,0.0,0.0,0.0,0.0,0.0,0.0,0.0,0.0,0.0,0.0,0.0,0.0,0.0,0.0,0.0,0.0,0.0,0.0,0.0,0.0,0.0,0.0,0.0,0.0,0.0,0.0,0.0,0.0,1.6802,2.0238,2.1871,2.269,2.2647,2.2379,2.1425,1.9651,0.0,0.0,0.0,0.0,0.0,0.0,0.0,0.0,0.0,0.0,0.0,0.0,0.0,0.0,0.0,0.0,0.0,0.0,0.0,0.0,0.0,0.0,0.0,0.0,0.0,0.0,0.0,0.0,0.0,0.0,0.0,0.0,0.0,0.0,0.0,0.0,0.0,0.0,0.0,0.0,0.0,0.0,0.0,0.0,0.0,0.0,0.0,0.0,0.0,0.0,0.0,0.0,0.0,0.0,0.0,0.0,0.0,0.0,0.0,0.0,0.0,0.0,0.0,0.0,0.0,0.0,0.0,0.0,0.0,0.0,0.0,0.0,0.0,0.0,0.0,0.0,0.0,0.0,0.0,0.0,0.0,0.0,0.0,0.0,0.0,0.0,0.0,0.0,0.0,0.0,0.0,0.0,0.0,0.0,0.0,0.0,0.0,0.0,0.0,0.0,0.0,0.0,0.0,1.6833,1.8554,2.1446,2.2396,2.2784,2.2708,2.267,2.1761,1.9675,1.8586,0.0,0.0,0.0,0.0,0.0,0.0,0.0,0.0,0.0,0.0,0.0,0.0,0.0,0.0,0.0,0.0,0.0,0.0,0.0,0.0,0.0,0.0,0.0,0.0,0.0,0.0,0.0,0.0,0.0,0.0,0.0,0.0,0.0,0.0,0.0,0.0,0.0,0.0,0.0,0.0,0.0,0.0,0.0,0.0,0.0,0.0,0.0,0.0,0.0,0.0,0.0,0.0,0.0,0.0,0.0,0.0,0.0,0.0,0.0,0.0,0.0,0.0,0.0,0.0,0.0,0.0,0.0,0.0,0.0,0.0,0.0,0.0,0.0,0.0,0.0,0.0,0.0,0.0,0.0,0.0,0.0,0.0,0.0,0.0,0.0,0.0,0.0,0.0,0.0,0.0,0.0,0.0,0.0,0.0,0.0,0.0,0.0,0.0,0.0,0.0,0.0,0.0,1.9188,2.0431,2.2365,2.2787,2.2909,2.28,2.2748,2.1822,1.9702,1.8459,0.0,0.0,0.0,0.0,0.0,0.0,0.0,0.0,0.0,0.0,0.0,0.0,0.0,0.0,0.0,0.0,0.0,0.0,0.0,0.0,0.0,0.0,0.0,0.0,0.0,0.0,0.0,0.0,0.0,0.0,0.0,0.0,0.0,0.0,0.0,0.0,0.0,0.0,0.0,0.0,0.0,0.0,0.0,0.0,0.0,0.0,0.0,0.0,0.0,0.0,0.0,0.0,0.0,0.0,0.0,0.0,0.0,0.0,0.0,0.0,0.0,0.0,0.0,0.0,0.0,0.0,0.0,0.0,0.0,0.0,0.0,0.0,0.0,0.0,0.0,0.0,0.0,0.0,0.0,0.0,0.0,0.0,0.0,0.0,0.0,0.0,0.0,0.0,0.0,0.0,0.0,0.0,0.0,0.0,0.0,0.0,0.0,0.0,0.0,0.0,0.0,0.0,2.0129,2.1633,2.2922,2.3078,2.3078,2.3078,2.2167,2.1091,1.986,1.7792,0.0,0.0,0.0,0.0,0.0,0.0,0.0,0.0,0.0,0.0,0.0,0.0,0.0,0.0,0.0,0.0,0.0,0.0,0.0,0.0,0.0,0.0,0.0,0.0,0.0,0.0,0.0,0.0,0.0,0.0,0.0,0.0,0.0,0.0,0.0,0.0,0.0,0.0,0.0,0.0,0.0,0.0,0.0,0.0,0.0,0.0,0.0,0.0,0.0,0.0,0.0,0.0,0.0,0.0,0.0,0.0,0.0,0.0,0.0,0.0,0.0,0.0,0.0,0.0,0.0,0.0,0.0,0.0,0.0,0.0,0.0,0.0,0.0,0.0,0.0,0.0,0.0,0.0,0.0,0.0,0.0,0.0,0.0,0.0,0.0,0.0,0.0,0.0,0.0,0.0,0.0,0.0,0.0,0.0,0.0,0.0,0.0,0.0,0.0,0.0,0.0,0.0,1.983,2.1221,2.2807,2.2984,2.2984,2.2984,2.2389,2.1352,1.982,0.0,0.0,0.0,0.0,0.0,0.0,0.0,0.0,0.0,0.0,0.0,0.0,0.0,0.0,0.0,0.0,0.0,0.0,0.0,0.0,0.0,0.0,0.0,0.0,0.0,0.0,0.0,0.0,0.0,0.0,0.0,0.0,0.0,0.0,0.0,0.0,0.0,0.0,0.0,0.0,0.0,0.0,0.0,0.0,0.0,0.0,0.0,0.0,0.0,0.0,0.0,0.0,0.0,0.0,0.0,0.0,0.0,0.0,0.0,0.0,0.0,0.0,0.0,0.0,0.0,0.0,0.0,0.0,0.0,0.0,0.0,0.0,0.0,0.0,0.0,0.0,0.0,0.0,0.0,0.0,0.0,0.0,0.0,0.0,0.0,0.0,0.0,0.0,0.0,0.0,0.0,0.0,0.0,0.0,0.0,0.0,0.0,0.0,0.0,0.0,0.0,0.0,1.8716,1.9955,2.1227,2.2807,2.2969,2.2969,2.2969,2.2237,2.1202,1.982,0.0,0.0,0.0,0.0,0.0,0.0,0.0,0.0,0.0,0.0,0.0,0.0,0.0,0.0,0.0,0.0,0.0,0.0,0.0,0.0,0.0,0.0,0.0,0.0,0.0,0.0,0.0,0.0,0.0,0.0,0.0,0.0,0.0,0.0,0.0,0.0,0.0,0.0,0.0,0.0,0.0,0.0,0.0,0.0,0.0,0.0,0.0,0.0,0.0,0.0,0.0,0.0,0.0,0.0,0.0,0.0,0.0,0.0,0.0,0.0,0.0,0.0,0.0,0.0,0.0,0.0,0.0,0.0,0.0,0.0,0.0,0.0,0.0,0.0,0.0,0.0,0.0,0.0,0.0,0.0,0.0,0.0,0.0,0.0,0.0,0.0,0.0,0.0,0.0,0.0,0.0,0.0,0.0,0.0,0.0,0.0,0.0,0.0,0.0,0.0,0.0,0.0,1.9406,2.0761,2.1907,2.2995,2.3108,2.3108,2.3108,2.1633,2.0453,0.0,0.0,0.0,0.0,0.0,0.0,0.0,0.0,0.0,0.0,0.0,0.0,0.0,0.0,0.0,0.0,0.0,0.0,0.0,0.0,0.0,0.0,0.0,0.0,0.0,0.0,0.0,0.0,0.0,0.0,0.0,0.0,0.0,0.0,0.0,0.0,0.0,0.0,0.0,0.0,0.0,0.0,0.0,0.0,0.0,0.0,0.0,0.0,0.0,0.0,0.0,0.0,0.0,0.0,0.0,0.0,0.0,0.0,0.0,0.0,0.0,0.0,0.0,0.0,0.0,0.0,0.0,0.0,0.0,0.0,0.0,0.0,0.0,0.0,0.0,0.0,0.0,0.0,0.0,0.0,0.0,0.0,0.0,0.0,0.0,0.0,0.0,0.0,0.0,0.0,0.0,0.0,0.0,0.0,0.0,0.0,0.0,0.0,0.0,0.0,0.0,0.0,0.0,1.9406,2.0761,2.1907,2.2995,2.3108,2.3108,2.3108,2.197,2.0854,1.9861,0.0,0.0,0.0,0.0,0.0,0.0,0.0,0.0,0.0,0.0,0.0,0.0,0.0,0.0,0.0,0.0,0.0,0.0,0.0,0.0,0.0,0.0,0.0,0.0,0.0,0.0,0.0,0.0,0.0,0.0,0.0,0.0,0.0,0.0,0.0,0.0,0.0,0.0,0.0,0.0,0.0,0.0,0.0,0.0,0.0,0.0,0.0,0.0,0.0,0.0,0.0,0.0,0.0,0.0,0.0,0.0,0.0,0.0,0.0,0.0,0.0,0.0,0.0,0.0,0.0,0.0,0.0,0.0,0.0,0.0,0.0,0.0,0.0,0.0,0.0,0.0,0.0,0.0,0.0,0.0,0.0,0.0,0.0,0.0,0.0,0.0,0.0,0.0,0.0,0.0,0.0,0.0,0.0,0.0,0.0,0.0,0.0,0.0,0.0,0.0,0.0,0.0,1.9483,2.095,2.2159,2.3007,2.3108,2.3108,2.3108,2.2526,2.1586,2.0169,0.0,0.0,0.0,0.0,0.0,0.0,0.0,0.0,0.0,0.0,0.0,0.0,0.0,0.0,0.0,0.0,0.0,0.0,0.0,0.0,0.0,0.0,0.0,0.0,0.0,0.0,0.0,0.0,0.0,0.0,0.0,0.0,0.0,0.0,0.0,0.0,0.0,0.0,0.0,0.0,0.0,0.0,0.0,0.0,0.0,0.0,0.0,0.0,0.0,0.0,0.0,0.0,0.0,0.0,0.0,0.0,0.0,0.0,0.0,0.0,0.0,0.0,0.0,0.0,0.0,0.0,0.0,0.0,0.0,0.0,0.0,0.0,0.0,0.0,0.0,0.0,0.0,0.0,0.0,0.0,0.0,0.0,0.0,0.0,0.0,0.0,0.0,0.0,0.0,0.0,0.0,0.0,0.0,0.0,0.0,0.0,0.0,0.0,0.0,0.0,0.0,0.0,1.9585,2.1253,2.2533,2.312,2.3193,2.321,2.3261,2.3278,2.2534,2.078,0.0,0.0,0.0,0.0,0.0,0.0,0.0,0.0,0.0,0.0,0.0,0.0,0.0,0.0,0.0,0.0,0.0,0.0,0.0,0.0,0.0,0.0,0.0,0.0,0.0,0.0,0.0,0.0,0.0,0.0,0.0,0.0,0.0,0.0,0.0,0.0,0.0,0.0,0.0,0.0,0.0,0.0,0.0,0.0,0.0,0.0,0.0,0.0,0.0,0.0,0.0,0.0,0.0,0.0,0.0,0.0,0.0,0.0,0.0,0.0,1.4396,0.0,0.0,0.0,0.0,0.0,0.0,0.0,0.0,0.0,0.0,0.0,0.0,0.0,0.0,0.0,0.0,0.0,0.0,0.0,0.0,0.0,0.0,0.0,0.0,0.0,0.0,0.0,0.0,0.0,0.0,0.0,0.0,0.0,0.0,0.0,0.0,0.0,0.0,0.0,0.0,0.0,1.9597,2.1253,2.2684,2.3703,2.387,2.4064,2.4475,2.4143,2.3339,2.2005,2.0392,0.0,0.0,0.0,0.0,0.0,0.0,0.0,0.0,0.0,0.0,0.0,0.0,0.0,0.0,0.0,0.0,0.0,0.0,0.0,0.0,0.0,0.0,0.0,0.0,0.0,0.0,0.0,0.0,0.0,0.0,0.0,0.0,0.0,0.0,0.0,0.0,0.0,0.0,0.0,0.0,0.0,0.0,0.0,0.0,0.0,0.0,0.0,0.0,0.0,0.0,0.0,0.0,0.0,0.0,0.0,0.0,0.0,0.0,0.0,0.0,1.6137,0.0,0.0,0.0,0.0,0.0,0.0,0.0,0.0,0.0,0.0,0.0,0.0,0.0,0.0,0.0,0.0,0.0,0.0,0.0,0.0,0.0,0.0,0.0,0.0,0.0,0.0,0.0,0.0,0.0,0.0,0.0,0.0,0.0,0.0,0.0,0.0,0.0,0.0,0.0,0.0,2.0527,2.2656,2.439,2.5308,2.5427,2.5434,2.5375,2.539,2.4721,2.3162,2.193,0.0,0.0,0.0,0.0,0.0,0.0,0.0,0.0,0.0,0.0,0.0,0.0,0.0,0.0,0.0,0.0,0.0,0.0,0.0,0.0,0.0,0.0,0.0,0.0,0.0,0.0,0.0,0.0,0.0,0.0,0.0,0.0,0.0,0.0,0.0,0.0,0.0,0.0,0.0,0.0,0.0,0.0,0.0,0.0,0.0,0.0,0.0,0.0,0.0,0.0,0.0,0.0,0.0,1.8751,1.9073,1.9393,2.019,2.0509,2.0435,1.9949,1.935,1.8668,1.8061,0.0,0.0,0.0,0.0,0.0,0.0,0.0,0.0,0.0,0.0,0.0,0.0,0.0,0.0,0.0,0.0,0.0,0.0,0.0,0.0,0.0,0.0,0.0,0.0,2.1493,2.1788,1.8921,0.0,0.0,0.0,0.0,0.0,0.0,0.0,0.0,0.0,0.0,0.0,2.1837,2.4375,2.6328,2.6971,2.7063,2.6875,2.6406,2.6847,2.6353,2.4507,2.3777,2.2711,0.0,0.0,0.0,0.0,0.0,0.0,0.0,0.0,0.0,0.0,0.0,0.0,0.0,0.0,0.0,0.0,0.0,0.0,0.0,0.0,0.0,0.0,0.0,0.0,0.0,0.0,0.0,0.0,0.0,0.0,0.0,0.0,1.2137,1.2431,0.0,0.0,0.0,0.0,0.0,0.0,0.0,0.0,0.0,0.0,0.0,0.0,0.0,1.7538,1.7736,1.9481,2.0234,2.0016,2.1721,2.2338,2.2017,2.2538,2.3177,2.3869,2.4434,0.0,2.0401,2.0577,0.0,0.0,0.0,0.0,0.0,0.0,0.0,0.0,0.0,0.0,0.0,0.0,0.0,0.0,0.0,0.0,0.0,0.0,0.0,0.0,0.0,0.0,2.3913,2.3529,2.3935,2.4211,0.0,2.1245,1.9506,1.922,1.8207,0.0,0.0,0.0,0.0,0.0,0.0,0.0,2.2972,2.5278,2.6985,2.754,2.7643,2.7829,2.8202,2.8368,2.7873,2.65,2.5796,2.4822,2.3511,2.1707,0.0,0.0,0.0,0.0,0.0,0.0,0.0,0.0,0.0,0.0,0.0,0.0,0.0,0.0,0.0,0.0,0.0,0.0,0.0,0.0,0.0,0.0,0.0,0.0,0.0,0.0,0.0,0.0,0.0,1.215,1.3173,1.31,1.3149,1.295,0.0,0.0,0.0,0.0,0.0,0.0,0.0,0.0,0.0,1.8375,1.9206,1.9925,2.0519,2.1642,2.2246,2.2318,2.3194,2.3855,2.4386,2.5059,2.5593,2.6045,2.7376,2.6659,2.4522,2.3917,2.3002,2.1863,0.0,0.0,0.0,0.0,2.0588,2.0811,2.2329,2.2481,2.1969,2.1806,0.0,0.0,0.0,0.0,0.0,0.0,0.0,0.0,0.0,0.0,2.5273,2.5732,2.6025,2.6362,2.6869,2.5228,2.3138,0.0,2.1442,2.0874,1.8339,0.0,0.0,0.0,0.0,2.3839,2.5287,2.7197,2.8658,2.9252,2.9366,2.9315,2.9169,2.9189,2.8854,2.8019,2.6961,2.6148,2.5654,2.3702,2.2175,0.0,0.0,0.0,0.0,0.0,0.0,0.0,0.0,0.0,0.0,0.0,0.0,0.0,0.0,0.0,0.0,0.0,0.0,0.0,0.0,0.0,0.0,0.0,0.0,0.0,0.0,0.0,0.0,1.3443,1.4441,1.3898,1.4557,1.4564,0.0,0.0,0.0,0.0,0.0,0.0,1.7567,1.8446,1.9512,2.0818,2.1386,2.2052,2.2842,2.3308,2.3712,2.4074,2.4284,2.487,2.5819,2.6689,2.7232,2.7536,2.8882,2.8963,2.8062,2.6779,2.5669,2.467,2.3679,2.304,2.2709,2.3362,2.3492,2.3639,2.5635,2.5837,2.52,2.5025,2.4323,2.3172,2.1328,0.0,0.0,0.0,0.0,2.29,2.4453,2.5453,2.6344,2.7276,2.7494,2.7827,2.9038,2.8271,2.6684,0.0,2.4637,2.4265,2.1134,0.0,0.0,0.0,0.0,2.6124,2.7357,2.8886,3.0045,3.0554,3.0598,3.0394,2.99,2.9886,2.9697,2.9196,2.8045,2.7372,2.73,2.5487,2.3967,2.287,0.0,0.0,0.0,0.0,0.0,0.0,0.0,0.0,0.0,0.0,0.0,0.0,0.0,0.0,0.0,0.0,0.0,0.0,0.0,0.0,0.0,0.0,0.0,0.0,0.0,0.0,0.0,0.0,0.0,1.4904,1.6942,0.0,0.0,0.0,0.0,1.7679,1.8248,1.8992,2.0065,2.095,2.1725,2.2377,2.3267,2.3784,2.3826,2.4229,2.4445,2.4487,2.5305,2.5745,2.5819,2.6689,2.7597,2.8442,2.8522,2.8988,2.9596,2.8443,2.7646,2.707,2.6518,2.6263,2.6238,2.63,2.6609,2.7059,2.719,2.7208,2.7245,2.7716,2.6408,2.45,2.3873,2.3325,0.0,0.0,2.4542,2.636,2.6984,2.7544,2.7978,2.8028,2.8059,2.829,2.9116,2.9227,2.8986,0.0,2.7019,2.5717,2.501,0.0,2.4449,2.4874,2.612,2.74,2.8484,2.9761,3.0569,3.0598,3.0598,3.0598,3.0554,3.0673,3.0499,2.9885,2.9309,2.8729,2.815,2.6828,2.5783,2.5141,2.2629,0.0,0.0,0.0,0.0,0.0,0.0,0.0,0.0,0.0,0.0,0.0,0.0,0.0,0.0,0.0,0.0,0.0,0.0,0.0,0.0,0.0,0.0,0.0,0.0,0.0,0.0,0.0,0.0,1.8725,1.9114,0.0,1.9463,1.9427,1.9666,2.0275,2.1061,2.1726,2.214,2.2741,2.3309,2.3774,2.4105,2.4291,2.4291,2.4978,2.5348,2.5348,2.6225,2.6955,2.7557,2.7859,2.8482,2.9339,2.9339,2.9495,2.9767,2.9352,2.9076,2.8894,2.8705,2.8618,2.8618,2.8618,2.8743,2.8919,2.8919,2.8649,2.8292,2.816,2.7551,2.6849,2.665,2.6482,2.632,2.632,2.6914,2.7645,2.8197,2.8467,2.8824,2.9694,2.9643,2.9839,3.1461,3.123,3.0917,3.1622,3.0552,2.8856,2.6729,2.7494,2.794,2.6624,2.7726,2.9001,2.9806,3.0318,3.0642,3.0717,3.0732,3.0777,3.091,3.0969,3.0749,3.0186,2.9494,2.8872,2.8357,2.7364,2.6545,2.5896,2.4578,2.291,0.0,0.0,0.0,0.0,0.0,0.0,0.0,0.0,0.0,0.0,0.0,0.0,0.0,0.0,0.0,0.0,0.0,0.0,0.0,0.0,0.0,0.0,0.0,0.0,0.0,1.8477,2.0038,2.1043,2.1587,2.1943,2.2091,2.2236,2.2583,2.3218,2.3595,2.4022,2.4485,2.4252,2.4504,2.5348,2.5084,2.4935,2.4935,2.5505,2.5798,2.5798,2.6668,2.7597,2.8502,2.8791,2.9248,2.9792,2.9792,2.9792,2.9792,2.9792,2.9792,2.9792,2.9792,2.9792,2.9792,2.9792,2.9792,2.9792,2.9792,2.9541,2.9145,2.88,2.8674,2.8637,2.843,2.8505,2.8637,2.8436,2.8524,2.8806,2.9409,2.9573,2.9869,3.1027,3.1031,3.1217,3.2848,3.2612,3.2427,3.3587,3.2735,3.1201,2.9206,3.0185,3.0652,2.8856,2.9521,3.0335,3.0628,3.0672,3.0732,3.088,3.091,3.0955,3.1102,3.0925,3.0687,3.0328,2.944,2.8785,2.8489,2.752,2.6777,2.6283,2.5413,2.3976,2.1972,0.0,0.0,0.0,0.0,0.0,0.0,0.0,0.0,0.0,0.0,0.0,0.0,0.0,0.0,0.0,0.0,0.0,0.0,0.0,0.0,0.0,0.0,0.0,1.829,2.149,2.3323,2.1728,2.4355,2.5667,2.4056,2.4682,2.558,2.6489,2.5768,2.5828,2.7046,2.5495,2.5359,2.7049,2.6276,2.584,2.584,2.5861,2.5882,2.5882,2.6771,2.7658,2.8561,2.9417,2.9792,2.9792,2.9792,2.9792,2.9811,2.9811,2.9811,2.9811,2.9792,2.9792,2.9792,2.9792,2.9792,2.9792,2.9792,2.9792,2.9792,2.9792,2.9792,2.9691,2.9107,2.9352,2.9679,2.9133,2.9371,2.9998,3.0758,3.0932,3.1137,3.1947,3.2128,3.2344,3.3073,3.3245,3.3468,3.4247,3.3396,3.2555,3.254,3.2526,3.2308,3.1641,3.154,0.0,3.0938,3.0865,3.0939,3.1146,3.1161,3.1146,3.1146,3.0642,3.0327,3.0283,2.9229,2.8607,2.8607,2.735,2.6598,2.6473,2.5103,2.4126,2.3588,0.0,0.0,0.0,0.0,0.0,0.0,0.0,0.0,0.0,0.0,0.0,0.0,0.0,0.0,0.0,0.0,0.0,0.0,0.0,0.0,0.0,2.1059,2.2614,2.232,2.3413,2.4903,2.6605,2.6585,2.6901,2.8019,2.7779,2.7667,2.7925,2.7719,2.7457,2.7119,2.6659,2.6597,2.7089,2.6885,2.673,2.673,2.7415,2.7758,2.7758,2.8633,2.9189,2.9456,2.9695,2.9792,2.9792,2.9792,2.9888,3.003,3.003,3.0094,3.0209,2.9895,2.9792,2.9792,2.9792,2.9792,2.9792,2.9792,2.9792,2.9792,2.9792,2.9792,2.9767,2.9603,2.9666,2.9877,3.0251,3.0472,3.079,3.1563,3.1764,3.1965,3.272,3.2897,3.3122,3.3894,3.4079,3.413,3.4363,3.4239,3.391,3.3329,3.3309,3.3156,3.2543,3.2521,0.0,3.2412,3.2413,3.2413,3.2473,3.2473,3.2312,3.193,3.1353,3.0667,2.9839,2.9029,2.8607,2.8607,2.8248,2.8026,2.8002,2.7036,2.6267,0.0,0.0,0.0,0.0,0.0,0.0,0.0,0.0,0.0,0.0,0.0,0.0,0.0,0.0,0.0,0.0,0.0,0.0,0.0,0.0,0.0,0.0,2.3853,2.5563,2.5938,2.6171,2.6931,2.87,2.8292,2.8385,2.9677,2.9339,2.904,2.904,2.8712,2.8422,2.8243,2.7516,2.7455,2.8203,2.7891,2.7678,2.7678,2.8231,2.8502,2.8502,2.902,2.9495,2.9934,2.9934,2.9972,3.0049,3.0049,3.0113,3.0228,3.0228,3.0292,0.0,0.0,0.0,0.0,0.0,3.0049,3.0049,3.0049,3.0049,3.0049,2.9953,2.9934,2.9972,3.0184,3.026,3.0438,3.1254,3.1457,3.1586,3.247,3.2613,3.2755,3.352,3.3776,3.3962,3.4431,3.4566,3.4601,3.4601,3.4685,0.0,3.4169,3.4162,3.4007,3.3392,3.337,3.3347,3.3143,3.3129,3.3145,3.3206,3.3206,3.297,3.2377,3.1752,0.0,0.0,0.0,2.8891,2.8607,2.854,0.0,0.0,0.0,0.0,0.0,0.0,0.0,0.0,2.6379,2.6235,0.0,0.0,0.0,0.0,0.0,0.0,0.0,0.0,0.0,0.0,0.0,0.0,0.0,0.0,0.0,0.0,2.6156,2.7833,2.8856,2.9007,2.9007,2.9007,2.9478,2.9792,2.9792,2.9792,2.9792,2.9792,2.9079,2.8981,2.9753,0.0,0.0,0.0,0.0,2.8653,2.8653,2.8673,2.868,2.868,2.87,2.9241,3.0221,3.0221,3.0356,3.0586,3.0522,3.0496,3.0522,3.0451,3.0444,3.0463,3.0425,3.0406,3.0406,3.0406,3.0406,3.0406,3.0406,0.0,0.0,3.0311,3.0311,3.047,3.0951,3.1087,3.1278,3.2213,3.2371,3.2506,3.3419,3.3523,3.3558,3.4298,3.4582,3.4714,3.4714,3.4817,3.4902,3.4902,3.4918,3.4935,3.4935,3.4935,3.476,3.4217,3.4144,3.4016,3.3596,3.3552,3.3584,3.3677,0.0,0.0,3.2751,3.2079,3.1421,3.0776,3.0223,2.9668,2.9056,2.8994,2.9009,2.9041,2.9589,3.044,3.1615,3.2288,3.2647,3.2632,2.868,2.813,0.0,0.0,0.0,0.0,0.0,0.0,0.0,0.0,0.0,0.0,0.0,0.0,0.0,0.0,0.0,2.6317,2.7766,2.8831,2.9528,2.9628,2.9628,2.9628,2.9729,2.9792,2.9792,2.9792,2.9792,2.9792,2.9643,2.9624,2.9792,2.9475,2.9436,2.9792,2.9643,2.9546,2.9546,2.9708,2.9793,2.9793,0.0,0.0,3.0989,3.0989,3.1271,3.1748,3.1259,3.1132,3.1248,3.0809,3.0742,3.0842,3.0539,3.0406,3.0406,3.0406,3.0406,3.0406,3.0406,3.0797,3.1275,3.1238,3.1636,3.2141,3.2249,3.2267,0.0,3.3269,3.3489,3.3644,3.4438,3.4589,3.4606,3.4769,3.4835,3.4852,3.4852,3.4885,3.4902,3.4902,3.5017,3.5148,3.5148,3.5148,3.5103,3.4984,3.5115,3.5184,3.5097,3.5067,3.5019,3.4891,3.486,3.4592,3.3924,3.3254,3.2645,3.2153,3.1989,3.1869,3.1749,3.2228,3.2273,3.1749,3.2377,3.2572,3.2318,3.2976,3.3574,3.4084,3.2585,3.1901,0.0,0.0,0.0,0.0,0.0,0.0,0.0,0.0,0.0,0.0,0.0,2.2084,2.3368,0.0,2.6231,2.7847,2.8812,2.9465,2.9754,2.9792,2.9792,2.9792,2.9792,2.9792,2.9792,2.9792,2.9792,2.9792,2.9792,2.9792,2.9792,2.9792,2.985,2.9953,2.9953,3.0011,3.0094,3.0209,3.0235,3.0235,3.0612,3.0977,3.1357,3.1654,3.2029,3.2381,3.2089,3.1844,3.161,3.107,3.0911,3.0986,3.0785,3.0691,3.0691,3.0691,3.0691,3.0748,3.1121,3.1497,3.1837,3.2114,3.246,3.282,3.3115,3.3199,3.3374,3.4254,3.4438,3.4471,3.4935,3.4984,3.4902,3.4902,3.4984,3.505,3.505,3.5131,3.5197,3.5197,3.5277,3.5343,3.5343,3.5343,3.5343,3.5343,3.5439,3.5504,3.5504,3.5504,3.5455,3.5359,3.5343,3.5091,3.4406,3.3734,3.3258,3.3021,3.3006,3.3006,3.3006,3.3608,3.3787,3.3453,3.4434,3.4796,3.4457,3.512,3.5629,3.5953,3.5538,3.4836,0.0,0.0,0.0,0.0,0.0,0.0,0.0,2.187,2.2472,2.3138,2.4092,2.5059,2.5925,2.6917,2.7921,2.8919,2.949,2.9792,2.9792,2.9792,2.9792,2.9792,2.9792,2.9792,2.9792,2.9792,2.9792,2.9792,2.985,2.985,2.9792,2.9869,2.9972,3.0094,3.0133,3.0247,3.0406,3.0444,3.0515,3.0631,3.108,3.1513,3.1909,3.2421,3.2774,3.3012,3.2921,3.2476,3.1771,3.132,3.1091,3.1024,3.1161,3.1203,3.1203,3.1203,3.1296,3.1505,3.2105,3.2416,3.2599,3.3031,3.3276,3.3498,3.3971,3.4136,3.4288,3.505,3.5148,3.505,3.5213,3.5148,3.5017,3.5017,3.5148,3.5261,3.5261,3.5392,3.5504,3.5504,3.5504,3.5504,3.5504,3.5504,3.5504,3.5504,3.5504,3.5504,3.5504,3.5504,3.5504,3.5504,3.5504,3.528,3.4742,3.4203,3.3888,3.3888,3.3997,3.4059,3.4059,3.4664,3.4973,3.4973,3.6044,3.659,3.659,3.7145,3.7399,3.7399,3.7399,3.6845,1.9083,2.0313,2.1443,2.2393,2.2383,2.3012,0.0,2.6126,2.5452,2.652,2.7218,2.7682,2.7808,2.8304,2.8932,2.9591,2.9754,2.9792,2.9792,2.9792,2.9792,2.9792,2.9792,2.9792,2.9792,2.9792,2.9792,2.9792,2.9972,2.9991,2.9811,3.0133,3.0254,3.0094,3.0273,3.0387,3.0406,3.0571,3.0912,3.139,3.1623,3.2306,3.3371,3.3416,3.3737,3.4175,3.3705,3.2848,3.1797,3.1732,3.1425,3.108,3.1718,3.1978,3.1978,3.1978,3.2394,3.2981,3.3038,3.3509,3.4061,3.4112,3.4627,3.5213,3.5294,3.531,3.5326,3.5439,3.5455,3.5439,3.5455,3.5455,3.5439,3.5439,3.5455,3.5472,3.5472,3.5488,3.5504,3.5504,3.5504,3.5504,3.5504,3.5504,3.5504,3.5504,3.5504,3.5504,3.5504,3.5504,3.5504,3.5504,3.5504,3.5474,3.54,3.5325,3.528,3.528,3.5778,3.6075,3.6075,3.6701,3.7059,3.7059,3.7212,3.7287,3.7287,3.7352,3.7399,3.7399,3.7399,3.7325,2.1707,2.2347,2.2709,2.381,2.4641,2.5548,2.6871,2.7123,2.7281,2.8084,2.8699,2.9089,2.9089,2.9277,2.9515,2.9754,2.9792,2.9792,2.9792,2.9792,2.9792,2.9792,2.9792,2.9792,2.9792,2.9792,2.9792,2.9792,2.9991,3.0068,2.9972,3.0235,3.0406,3.0451,3.0533,3.0628,3.0748,3.1142,3.1447,3.1681,3.2469,3.3117,3.36,3.3914,3.4188,3.4413,3.4332,3.4019,3.3563,3.3704,3.3425,3.2878,3.3191,3.3345,3.3339,3.2897,3.2932,3.3266,3.3699,3.4027,3.438,3.4856,3.523,3.5504,3.5504,3.5504,3.5504,3.5504,3.5504,3.5504,3.5504,3.5504,3.5504,3.5504,3.5504,3.5504,3.5504,3.5504,3.5603,3.5957,3.6022,3.6148,3.6538,3.6616,3.6616,3.6616,3.5973,3.5504,3.5504,3.5813,3.6022,3.6022,3.6022,3.6022,3.6022,3.6022,3.618,3.6585,3.6845,3.6981,3.6981,3.7589,3.7923,3.7923,3.8311,3.8509,3.8509,3.8509,3.8509,3.8525,3.8948,3.9144,2.2949,2.3537,2.4064,2.5193,2.6628,2.767,2.7467,2.8015,2.8687,2.907,2.9503,2.9792,2.9792,2.9792,2.9792,2.9792,2.9792,2.9792,2.9792,2.9792,2.9811,2.9888,2.9888,2.9895,2.9953,2.9914,2.9895,2.9953,3.0145,3.0228,3.019,3.0579,3.0829,3.0918,3.1131,3.1323,3.1476,3.1843,3.2143,3.2313,3.3182,3.3679,3.3822,3.4214,3.4543,3.4772,3.4962,3.5094,3.5162,3.5367,3.5066,3.4502,3.47,3.4687,3.4537,3.4229,3.3991,3.3917,3.4442,3.4627,3.4725,3.5311,3.5504,3.5504,3.5504,3.5504,3.5504,3.5504,3.5504,3.5504,3.5504,3.5504,3.5504,3.5504,3.5504,3.5553,3.5701,3.5749,3.5926,3.6569,3.6677,3.683,3.7325,3.7399,3.7399,3.7399,3.6616,3.6021,3.6021,3.6399,3.6677,3.6677,3.6677,3.6677,3.6677,3.6677,3.6875,3.737,3.7561,3.7648,3.7648,3.8252,3.8576,3.8576,3.905,3.9398,3.9597,3.9597,3.9713,3.9882,4.0428,4.0776,2.1832,2.3517,2.5804,2.6947,2.8047,2.8994,2.9566,2.9736,2.9741,2.9767,2.9779,2.9792,2.9792,2.9792,2.9792,2.9792,2.9792,2.9792,2.9792,2.9792,2.9869,3.0056,3.0094,3.0171,3.0368,3.0209,3.0171,3.0368,3.0571,3.059,3.0406,3.126,3.1662,3.1474,3.2234,3.2646,3.2653,3.2659,3.296,3.3555,3.3574,3.3862,3.4371,3.4384,3.4847,3.5669,3.5662,3.5818,3.6061,3.6071,3.5728,3.5246,3.5964,3.5836,3.5371,3.6115,3.5977,3.5439,3.5455,3.5472,3.5472,3.5488,3.5504,3.5504,3.5504,3.5504,3.5504,3.5504,3.5504,3.5504,3.5504,3.5504,3.5504,3.5504,3.5504,3.5667,3.6258,3.6368,3.6569,3.7251,3.737,3.7384,3.7399,3.7399,3.7399,3.7399,3.737,3.734,3.734,3.7355,3.737,3.737,3.737,3.737,3.737,3.737,3.7384,3.7399,3.7951,3.8264,3.8264,3.8912,3.9272,3.9272,3.9285,3.9647,4.0376,4.0376,4.071,4.1345,4.1361,4.1742,2.514,2.6479,2.7739,2.8866,2.9318,2.9553,2.9741,2.9792,2.9792,2.9792,2.949,2.9195,2.9195,2.9195,2.9195,2.9195,2.9541,2.985,2.9972,3.0011,3.0056,3.0273,3.0292,3.0381,3.0571,3.0419,3.033,3.0387,3.0603,3.0834,3.1106,3.1558,3.1948,3.2287,3.2574,3.2685,3.2685,3.3111,3.3391,3.3587,3.3953,3.4228,3.4418,3.4991,3.5426,3.577,3.6878,3.7415,3.7532,3.8072,3.7897,3.7349,3.7594,3.728,3.6719,3.7005,3.6956,3.6641,3.5787,3.5504,3.5504,3.5504,3.5504,3.5504,3.5504,3.5504,3.5504,3.5504,3.5504,3.5504,3.5504,3.5504,3.5603,3.6006,3.6101,3.6274,3.692,3.7056,3.7251,3.7879,3.7994,3.8139,3.8579,3.8664,3.8664,3.8664,3.7939,3.7531,3.7951,3.7994,3.7994,3.7994,3.7994,3.7994,3.7994,3.7994,3.8181,3.862,3.8843,3.8952,3.8952,3.9175,3.9531,4.0028,4.0028,4.0379,4.1061,4.1061,4.1179,4.1411,4.1908,4.2272,2.7752,2.8619,2.9143,3.0484,3.0728,3.0545,3.026,3.0184,3.0056,2.9573,2.9019,2.8555,2.8355,2.8185,2.8172,2.8543,2.895,2.9403,3.0005,3.0094,3.019,3.0476,3.0514,3.059,3.0792,3.0685,3.0615,3.0615,3.0904,3.1247,3.1584,3.213,3.2613,3.2999,3.3208,3.33,3.33,3.3692,3.3875,3.3875,3.4545,3.4847,3.4889,3.5736,3.6314,3.6663,3.772,3.8352,3.8682,3.9192,3.9137,3.8751,3.8751,3.8347,3.7764,3.7764,3.7614,3.7255,3.6222,3.5863,3.5818,3.5579,3.5504,3.5504,3.5504,3.5504,3.5504,3.5504,3.5504,3.5553,3.5765,3.5829,3.5989,3.66,3.6769,3.692,3.7575,3.772,3.791,3.8535,3.8662,3.8786,3.9232,3.9299,3.9299,3.9299,3.8593,3.8226,3.862,3.8662,3.8662,3.8662,3.8662,3.8662,3.8662,3.8662,3.8843,3.9272,3.9299,3.9299,3.9299,3.9547,3.9928,4.0393,4.0644,4.1094,4.1792,4.1792,4.1941,4.2206,4.2669,4.2886,2.9481,2.989,3.0173,3.176,3.2128,3.1892,3.1137,3.0925,3.0518,2.9157,2.841,2.7837,2.7233,2.6785,2.6858,2.7904,2.8181,2.8727,3.0063,3.0209,3.0324,3.0723,3.0736,3.0792,3.1026,3.1044,3.1057,3.1084,3.1529,3.1836,3.1889,3.2986,3.36,3.3639,3.4123,3.4397,3.4397,3.4397,3.4418,3.4481,3.5305,3.5729,3.5776,3.6601,3.7424,3.8202,3.824,3.8686,3.9406,3.9406,3.9406,3.9406,3.9406,3.902,3.8437,3.8437,3.8048,3.7419,3.6823,3.6553,3.6404,3.5759,3.5534,3.5504,3.5504,3.5504,3.5504,3.5504,3.5521,3.5683,3.6258,3.643,3.6615,3.7295,3.7458,3.7604,3.8208,3.8365,3.8548,3.9175,3.9299,3.9299,3.9299,3.9299,3.9299,3.9299,3.9299,3.9299,3.9299,3.9299,3.9299,3.9299,3.9299,3.9299,3.9299,3.9299,3.9299,3.9299,3.9299,3.9315,3.9348,4.0028,4.0428,4.0511,4.1127,4.1825,4.257,4.257,4.2918,4.3598,4.3598,4.3598,3.1238,3.1909,3.2416,3.2996,3.2613,3.2051,3.1837,3.141,3.0575,2.8881,2.7742,2.6563,2.4979,2.5765,2.6899,2.7668,2.923,3.0775,3.201,3.1581,3.1294,3.17,3.1259,3.11,3.1536,3.1608,3.1777,3.2228,3.1986,3.2176,3.3091,3.343,3.3783,3.4175,3.4332,3.4397,3.4397,3.4397,3.4737,3.5366,3.5588,3.6002,3.6621,3.7482,3.8,3.824,3.883,3.921,3.9406,3.9406,3.9406,3.9406,3.9406,3.9302,3.9137,3.9137,3.9032,3.8793,3.8138,3.7302,3.6479,3.6314,3.5908,3.5504,3.5504,3.5504,3.5504,3.5504,3.5814,3.6211,3.6352,3.6769,3.731,3.7923,3.8066,3.8252,3.8898,3.905,3.9107,3.9272,3.9299,3.9299,3.9299,3.9299,3.9299,3.9299,3.9299,3.9299,3.9299,3.9299,3.9299,3.9299,3.9299,3.9299,3.9299,3.9299,3.9299,3.9299,3.9299,3.9547,4.0111,4.0296,4.0892,4.1941,4.2123,4.2587,4.3317,4.3317,4.3431,4.3598,4.3598,4.3598,3.3069,3.3623,3.3951,3.3999,3.3638,3.2943,3.1726,3.0911,2.968,2.6976,2.5737,2.461,2.2995,2.4349,2.6045,2.7166,2.9187,3.1151,3.2688,3.2169,3.1869,3.2506,3.1848,3.1616,3.2262,3.2571,3.2834,3.3078,3.277,3.2875,3.3548,3.3809,3.4084,3.4384,3.4397,3.4397,3.4397,3.4778,3.5216,3.5709,3.6452,3.7019,3.7501,3.8337,3.8738,3.8756,0.0,3.9406,3.9406,3.9406,3.9406,3.9406,3.9406,3.9406,3.9406,3.9406,3.9406,3.9346,3.8975,3.8182,3.7242,3.6688,3.6254,3.5878,3.5594,3.5668,3.5894,3.5894,3.6337,3.689,3.7176,3.7516,3.7951,3.8593,3.8745,3.8843,3.9232,3.9299,3.9299,3.9299,3.9299,3.9299,3.9299,3.9299,3.9299,3.9299,3.9299,3.9299,3.9299,3.9299,3.9299,3.9299,3.9299,3.9299,3.9299,3.9597,3.9779,3.9779,4.0064,4.0412,4.0812,4.1143,4.169,4.2487,4.2818,4.3184,4.3598,4.3598,4.3598,4.3598,4.3598,4.3598,3.4674,3.4935,3.4868,3.4765,3.4673,3.3906,3.124,2.9993,2.8359,2.4534,2.3244,2.2426,2.1198,2.2654,2.4692,2.6671,2.868,3.0783,3.2939,3.2581,3.2443,3.3361,3.2671,3.2469,3.3321,3.3878,3.4148,3.4052,3.4044,3.3943,3.3725,3.4149,3.4397,3.4397,3.4397,3.446,3.4571,3.5325,3.581,3.6036,3.751,3.8258,3.8371,3.9068,3.9406,3.9406,3.9406,3.9406,3.9406,3.9406,3.9406,3.9406,3.9406,3.9406,3.9406,3.9406,3.9406,3.9406,3.9406,3.9017,3.835,3.7152,3.6688,3.654,3.6038,3.6203,3.6553,3.6646,3.7074,3.7633,3.8151,3.8379,3.8576,3.9161,3.9299,3.9299,3.9299,3.9299,3.9299,3.9299,3.9299,3.9299,3.9299,3.9299,3.9299,3.9299,3.9299,3.9299,3.9299,3.9299,3.9299,3.9299,3.9398,3.9448,3.9448,4.0097,4.0528,4.0528,4.1077,4.1444,4.1543,4.2156,4.2553,4.2653,4.3267,4.3598,4.3598,4.3598,4.3598,4.3598,4.3598,4.3648,3.5299,3.5148,3.4902,3.4868,3.4488,3.353,3.1281,2.96,2.7467,2.3687,2.2049,2.0857,1.9482,2.0841,2.3325,2.6832,2.8909,3.1243,3.4581,3.4271,3.4002,3.4848,3.4235,3.4255,3.5451,3.5666,3.5884,3.6309,3.6331,3.5732,3.4337,3.4345,3.4397,3.4397,3.4397,3.4758,3.5467,3.5629,3.6393,3.7772,3.8056,3.8538,3.9192,3.9352,3.9406,3.9406,3.9406,0.0,3.9406,3.9406,3.9406,3.9406,3.9406,3.9406,3.9406,3.9406,3.9406,3.9406,3.9406,3.9316,3.9092,3.8317,3.7689,3.7344,3.7826,3.7626,3.7356,3.7964,3.8139,3.8165,3.8264,3.8717,3.9161,3.9272,3.9299,3.9299,3.9299,3.9299,3.9299,3.9299,3.9299,3.9299,3.9299,3.9299,3.9299,3.9299,3.9299,3.9299,3.9299,3.9299,3.9299,3.9299,3.9862,4.021,4.021,4.0829,4.1229,4.1229,4.1328,4.1676,4.2289,4.2438,4.2802,4.34,4.3532,4.3598,4.3598,4.3598,4.3598,4.3598,4.3598,4.3928,3.5343,3.5277,3.518,3.5082,3.4579,3.3327,3.0343,2.8225,2.5797,2.1976,2.0295,1.9252,1.8427,2.0214,2.2636,2.5158,2.7396,3.0016,3.3506,3.3241,3.3503,3.5672,3.5185,3.52,3.6543,3.7,3.7111,3.6905,3.7314,3.7025,3.5762,3.5305,3.5264,3.5682,3.5284,3.5487,3.632,3.6766,3.7414,3.8202,3.8612,3.9031,3.9406,3.9406,3.9406,3.9406,3.9406,3.9406,3.9406,3.9406,3.9406,3.9406,3.9406,3.9406,3.9406,3.9406,3.9406,3.9406,3.9406,3.9406,3.9418,3.9468,3.9045,3.8488,3.8504,3.8465,3.8503,3.8879,3.8904,3.8813,3.8813,3.905,3.9299,3.9299,3.9299,3.9299,3.9299,3.9299,3.9299,3.9299,3.9299,3.9299,3.9299,3.9299,3.9299,3.9299,3.9299,3.9448,3.9829,3.9879,3.9879,3.9879,4.0495,4.0912,4.0912,4.1574,4.1974,4.1974,4.2338,4.2702,4.3067,4.3083,4.3234,4.3582,4.3598,4.3598,4.3598,4.3598,4.3795,4.4175,4.4175,4.4572,3.507,3.5246,3.5455,3.5261,3.462,3.3055,2.9218,2.6748,2.4162,2.0295,1.8611,1.7818,1.7755,1.9499,2.1547,2.3358,2.5464,2.8166,3.1898,3.1981,3.2914,3.629,3.6038,3.6146,3.7547,3.8157,3.8173,3.7486,3.8079,3.8004,3.6972,3.63,3.6241,3.688,3.63,3.636,3.7165,3.7853,3.8277,3.8464,3.9101,3.9406,3.9406,3.9406,3.9406,3.9406,3.9406,3.9406,3.9406,3.9406,3.9406,3.9406,3.9406,3.9406,3.9406,3.9406,3.9406,3.9406,3.9406,3.9499,3.9735,4.032,4.0126,3.9669,3.9459,3.961,3.9891,4.0022,3.9902,3.9749,3.9749,3.9633,3.9497,3.9332,3.9299,3.9299,3.9299,3.9299,3.9348,3.9497,3.9547,3.958,3.973,3.9617,3.958,3.973,3.963,3.9812,4.0528,4.076,4.0859,4.0859,4.1326,4.1643,4.1643,4.2322,4.2752,4.2752,4.3267,4.3598,4.3598,4.3598,4.3598,4.3598,4.3598,4.3598,4.3598,4.3762,4.4141,4.4703,4.4869,4.5333,3.4418,3.4922,3.5455,3.5261,3.4374,3.2493,2.8446,2.5769,2.3084,1.9313,1.7533,1.6829,1.7419,1.7733,1.9071,2.2596,2.3931,2.6246,3.1182,3.2237,3.3686,3.6933,3.7237,3.7722,3.9074,3.9253,3.9265,3.9177,3.9247,3.8598,3.6977,3.6822,3.6822,3.69,3.6822,3.7218,3.8075,3.8165,3.8571,3.9283,3.9355,3.9406,3.9406,3.9406,3.9406,3.9406,3.9406,3.9406,0.0,3.9406,3.9406,3.9406,3.9406,3.9406,3.9406,3.9406,3.9406,3.9406,3.9406,3.9826,4.0409,4.0478,4.0464,4.0644,4.1853,4.1796,4.1427,4.204,4.1732,4.1212,4.1212,4.0763,4.0144,3.9464,3.9299,3.9299,3.9299,3.9299,3.9497,4.0177,4.0296,4.0495,4.1096,4.0696,4.0511,4.1127,4.0694,4.0544,4.1212,4.1891,4.2305,4.2305,4.2371,4.2404,4.2404,4.3069,4.3499,4.3499,4.3565,4.3598,4.3598,4.3598,4.3598,4.3598,4.3598,4.3598,4.3598,4.4274,4.4637,4.472,4.5399,4.6079,3.3733,3.4642,3.5488,3.5392,3.3874,3.1553,2.8508,2.531,2.222,1.9549,1.7985,1.7178,1.7454,1.7724,1.8591,2.0651,2.1441,2.3206,2.7257,2.8915,3.1071,3.4735,3.6175,3.7524,3.9227,3.9406,3.9406,3.9406,3.9406,3.9104,3.8453,3.7952,3.7895,3.8383,3.7933,3.8079,3.8903,3.8922,3.9068,3.9406,3.9406,3.9406,3.9406,3.9406,3.9406,3.9406,3.9406,3.9406,0.0,3.9406,3.9406,3.9406,3.9406,3.9406,3.9406,3.9406,3.9406,3.9463,3.9897,4.025,4.065,4.1492,4.1754,4.1884,4.2428,4.2376,4.2165,4.2431,4.1974,4.1394,4.1394,4.121,4.0928,4.063,4.0564,4.0564,4.0564,4.0564,4.0647,4.0945,4.0994,4.1094,4.1345,4.1179,4.1094,4.1361,4.1177,4.1259,4.1974,4.2322,4.2669,4.3102,4.3151,4.3151,4.3151,4.3416,4.3598,4.3598,4.3598,4.3598,4.3598,4.3598,4.3598,4.3598,4.4027,4.4257,4.4257,4.5003,4.5598,4.603,4.6344,4.6858,3.2701,3.3878,3.4931,3.5142,3.3219,3.0614,2.8054,2.4797,2.1659,1.9421,1.804,1.7282,1.7344,1.761,1.8157,1.9189,1.9879,2.1502,2.4983,2.6806,2.916,3.2901,3.487,3.6594,3.8347,3.9044,3.9406,3.9406,3.9406,3.9406,3.9406,3.8867,3.8811,3.9388,3.8848,3.883,3.9388,3.9406,3.9406,3.9406,3.9406,3.9406,3.9406,3.9406,3.9406,3.9406,3.9406,3.9406,0.0,3.9406,3.9406,3.9406,3.9406,3.9406,3.9442,3.9628,3.9735,3.9841,4.0547,4.094,4.1277,4.2269,4.2726,4.2897,4.2897,4.2858,4.2835,4.2835,4.2454,4.2007,4.1775,4.1726,4.1676,4.1444,4.1394,4.1394,4.1394,4.1394,4.1461,4.1676,4.1726,4.1792,4.2007,4.1875,4.1792,4.2024,4.1875,4.199,4.2721,4.2835,4.3034,4.3532,4.3598,4.3598,4.3598,4.3598,4.3598,4.3598,4.3598,4.3598,4.3598,4.3812,4.3928,4.3928,4.4638,4.5035,4.5035,4.578,4.6394,4.6908,4.7123,4.7504,3.1203,3.2446,3.3591,3.4344,3.249,2.9725,2.6707,2.4092,2.1464,1.8521,1.7262,1.6771,1.6971,1.6939,1.7325,1.8609,1.9756,2.181,2.5571,2.7024,2.8891,3.2136,3.3696,3.5018,3.6307,3.8228,3.9406,3.9406,3.9406,3.9406,3.9406,3.9388,3.9388,3.9406,3.9388,3.9388,3.9406,3.9406,3.9406,3.9406,3.9406,3.9406,3.9406,3.9406,3.9406,3.9406,3.9406,3.9406,0.0,3.9406,3.9406,3.9406,3.9406,3.9406,3.9481,4.0216,4.0478,4.0581,4.126,4.1965,4.2585,4.2601,4.3051,4.3598,4.3598,4.3582,4.3582,4.3582,4.3582,4.34,4.2686,4.2487,4.2305,4.1577,4.1394,4.1394,4.1394,4.1394,4.1626,4.2355,4.2487,4.2719,4.3449,4.2969,4.2752,4.3466,4.2967,4.2752,4.3482,4.3582,4.3582,4.3598,4.3598,4.3598,4.3598,4.3598,4.3598,4.3598,4.3598,4.3598,4.3598,4.4307,4.4687,4.4687,4.5416,4.5797,4.5797,4.6527,4.6891,4.6924,4.7653,4.8001,2.7104,2.8456,2.9649,2.9029,2.7598,2.5855,2.4089,2.2072,2.0107,1.8388,1.7721,1.7383,1.7178,1.7313,1.8152,2.0298,2.0869,2.2206,2.5565,2.7776,2.9971,3.2429,3.5751,3.8017,3.8418,3.9029,3.9406,3.9406,3.9406,3.9406,3.9406,3.9406,3.9406,3.9406,3.9406,3.9406,3.9406,3.9406,3.9406,3.9406,3.9406,3.9406,3.9406,3.9406,3.9406,3.9406,3.9406,3.9406,3.9406,3.9406,3.9406,3.9406,3.9406,3.9699,4.0181,4.0409,4.0788,4.1294,4.1997,4.2396,4.2679,4.3127,4.3432,4.3598,4.3598,4.3598,4.3598,4.3598,4.3598,4.3549,4.33,4.3251,4.3184,4.2967,4.2886,4.2886,4.2886,4.2886,4.2969,4.3201,4.3251,4.3317,4.3549,4.34,4.3317,4.3565,4.34,4.3348,4.3565,4.3598,4.3598,4.3598,4.3598,4.3598,4.3598,4.3598,4.3598,4.3598,4.3598,4.3828,4.4324,4.4587,4.4935,4.5449,4.6179,4.6543,4.6543,4.7289,4.7653,4.7653,4.7885,4.8001,2.4245,2.5578,2.6525,2.6071,2.4797,2.3337,2.2184,2.0642,1.9146,1.7996,1.7615,1.7434,1.724,1.7334,1.8112,2.0178,2.0974,2.245,2.5595,2.7913,3.0321,3.3096,3.6293,3.8469,3.897,3.9257,3.9406,3.9406,3.9406,3.9406,3.9406,3.9406,3.9406,3.9406,3.9406,3.9406,3.9406,3.9406,3.9406,3.9406,3.9406,3.9406,3.9406,3.9406,3.9406,3.9406,3.9406,3.9406,0.0,3.9406,3.9406,3.9442,3.9699,4.0108,4.0564,4.1092,4.1574,4.2013,4.2726,4.2974,4.3052,4.3462,4.3598,4.3598,4.3598,4.3598,4.3598,4.3598,4.3598,4.3598,4.3598,4.3598,4.3598,4.3598,4.3598,4.3598,4.3598,4.3598,4.3598,4.3598,4.3598,4.3598,4.3598,4.3598,4.3598,4.3598,4.3598,4.3598,4.3598,4.3598,4.3598,4.3598,4.3598,4.3598,4.3598,4.3598,4.3598,4.3598,4.3598,4.3928,4.467,4.4968,4.5465,4.6211,4.6941,4.7322,4.7322,4.7785,4.8001,4.8001,4.8001,4.8001,0.0,2.3425,2.3983,2.4643,2.3437,2.1812,2.0778,1.9659,0.0,1.7421,1.7094,1.7094,1.7334,1.7211,1.7571,1.9097,2.0687,2.2826,2.5974,2.7996,3.0541,3.4249,3.5848,3.7105,3.8354,3.9017,3.9406,3.9406,3.9406,3.9406,3.9406,3.9406,3.9406,3.9406,3.9406,3.9406,3.9406,3.9406,3.9406,3.9406,3.9406,3.9406,3.9406,3.9406,3.9406,0.0,3.9406,3.9406,3.9406,3.9406,3.9442,3.9553,4.0233,4.0564,4.0805,4.2126,4.2632,4.2757,4.3371,4.3598,4.3598,4.3598,4.3598,4.3598,4.3598,4.3598,4.3598,4.3598,4.3598,4.3598,4.3598,4.3598,4.3598,4.3598,4.3598,4.3598,4.3598,4.3598,4.3598,4.3598,4.3598,4.3598,4.3598,4.3598,4.3598,4.3598,4.3598,4.3598,4.3598,4.3598,4.3598,4.3598,4.3598,4.3598,4.3598,4.3598,4.3598,4.3598,4.3598,4.3944,4.4753,4.5449,4.6162,4.6957,4.7653,4.8001,4.8001,4.8001,4.8001,4.8001,4.8001,4.8001,1.8477,0.0,1.998,1.9304,1.9118,1.8917,0.0,1.8168,1.8074,1.7356,1.7167,1.7561,1.8938,1.8446,1.9098,2.2937,2.4363,2.6034,2.9042,3.2459,3.5158,3.6556,3.7895,3.8811,3.9119,3.9316,3.9406,3.9406,3.9406,3.9406,3.9406,3.9406,3.9406,3.9406,3.9406,3.9406,3.9406,3.9406,3.9406,3.9406,3.9406,3.9406,3.9406,3.9406,3.9406,3.9406,3.9406,3.9406,3.9406,3.9406,3.9735,4.0268,4.0426,4.1159,4.2142,4.2491,4.2928,4.3387,4.3553,4.3598,4.3598,4.3598,4.3598,4.3598,4.3598,4.3598,4.3598,4.3598,4.3598,4.3598,4.3598,4.3598,4.3598,4.3598,4.3598,4.3598,4.3598,4.3598,4.3598,4.3598,4.3598,4.3598,4.3598,4.3598,4.3598,4.3598,4.3598,4.3598,4.3598,4.3598,4.3598,4.3598,4.3598,4.3598,4.3598,4.3598,4.3598,4.3598,4.3598,4.4176,4.5499,4.5714,4.6411,4.7719,4.7918,4.8001,4.8001,4.8001,4.8001,4.8001,4.8001,4.8001,1.7199,1.8035,1.8754,1.8127,1.8231,1.8388,1.8048,1.7826,1.7591,1.7264,1.7199,1.7578,1.8806,1.9199,2.0328,2.3365,2.5577,2.8082,3.1404,3.4783,3.703,3.7357,3.8584,3.9406,3.9406,3.9406,3.9406,3.9406,3.9406,3.9406,3.9406,3.9406,3.9406,3.9406,3.9406,3.9406,3.9406,3.9406,3.9406,3.9406,3.9406,3.9406,3.9406,3.9406,3.9406,3.9406,3.9406,3.9406,3.9406,3.9406,3.9826,4.0529,4.0839,4.1624,4.2632,4.2943,4.328,4.3598,4.3598,4.3598,4.3598,4.3598,4.3598,4.3598,4.3598,4.3598,4.3598,4.3598,4.3598,4.3598,4.3598,4.3598,4.3598,4.3598,4.3598,4.3598,4.3598,4.3598,4.3598,4.3598,4.3598,4.3598,4.3598,4.3598,4.3598,4.3598,4.3598,4.3598,4.3598,4.3598,4.3598,4.3598,4.3598,4.3598,4.3598,4.3598,4.3598,4.3598,4.3911,4.4605,4.5764,4.6113,4.6841,4.7984,4.8001,4.8001,4.8001,4.8001,4.8001,4.8001,4.8001,4.8001,1.7408,1.8362,1.92,1.886,1.8911,1.9004,1.8924,1.8153,1.746,1.746,1.7525,1.7858,1.8721,2.0234,2.1808,2.3209,2.6353,2.9865,3.3438,3.5953,3.7449,3.7539,3.8644,3.9406,3.9406,3.9406,3.9406,3.9406,3.9406,3.9406,3.9406,3.9406,3.9406,3.9406,3.9406,3.9406,3.9406,3.9406,3.9406,3.9406,3.9406,3.9406,3.9406,3.9406,3.9406,3.9406,0.0,0.0,3.9406,3.9517,4.0003,4.072,4.1393,4.211,4.2819,4.3402,4.3598,4.3598,4.3598,4.3598,4.3598,4.3598,4.3598,4.3598,4.3598,4.3598,4.3598,4.3598,4.3598,4.3598,4.3598,4.3598,4.3598,4.3598,4.3598,4.3598,4.3598,4.3598,4.3598,4.3598,4.3598,4.3598,4.3598,4.3598,4.3598,4.3598,4.3598,4.3598,4.3598,4.3598,4.3598,4.3598,4.3598,4.3598,4.3598,4.3598,4.3648,4.3762,4.4357,4.5084,4.5929,4.6676,4.7355,4.7984,4.8001,4.8001,4.8001,4.8001,4.8001,4.8001,4.8001,4.8001,1.8388,1.984,2.0636,1.869,1.895,1.9538,1.9028,1.8756,1.8649,1.8649,1.9054,2.0021,2.2045,2.3207,2.4693,2.7324,3.0079,3.285,3.5648,3.6821,3.7614,3.8167,3.8931,3.9406,3.9406,3.9406,3.9406,3.9406,3.9406,3.9406,3.9406,3.9406,3.9406,3.9406,3.9406,3.9406,3.9406,3.9406,3.9406,3.9406,3.9406,3.9406,3.9406,3.9406,3.9406,3.9406,0.0,3.9406,3.9445,4.0058,4.0737,4.141,4.2158,4.2851,4.3462,4.3552,4.3598,4.3598,4.3598,4.3598,4.3598,4.3598,4.3598,4.3598,4.3598,4.3598,4.3598,4.3598,4.3598,4.3598,4.3598,4.3598,4.3598,4.3598,4.3598,4.3598,4.3598,4.3598,4.3598,4.3598,4.3598,4.3598,4.3598,4.3598,4.3598,4.3598,4.3598,4.3598,4.3598,4.3598,4.3598,4.3598,4.3598,4.3598,4.3598,4.3598,4.3878,4.4489,4.4637,4.5316,4.6676,4.7438,4.7885,4.8001,4.8001,4.8001,4.8001,4.8001,4.8001,4.8001,4.8001,4.8001,1.7839,1.9251,2.0414,1.9693,2.1093,2.2508,2.1892,2.1811,2.1775,2.1411,2.1553,2.2154,2.3484,2.5149,2.7499,3.1238,3.2838,3.4306,3.6236,3.7015,3.7659,3.8317,3.899,3.9406,3.9406,3.9406,3.9406,3.9406,3.9406,3.9406,3.9406,3.9406,3.9406,3.9406,3.9406,3.9406,3.9406,3.9406,3.9406,3.9406,3.9406,3.9406,3.9406,3.9406,3.9406,3.9406,0.0,3.9643,4.0021,4.0357,4.1142,4.2142,4.2475,4.3005,4.3598,4.3598,4.3598,4.3598,4.3598,4.3598,4.3598,4.3598,4.3598,4.3598,4.3598,4.3598,4.3598,4.3598,4.3598,4.3598,4.3598,4.3598,4.3598,4.3598,4.3598,4.3598,4.3598,4.3598,4.3598,4.3598,4.3598,4.3598,4.3598,4.3598,4.3598,4.3598,4.3598,4.3598,4.3598,4.3598,4.3598,4.3598,4.3598,4.3598,4.3598,4.3598,4.4077,4.5218,4.5681,4.6361,4.7454,4.7819,4.8001,4.8001,4.8001,4.8001,4.8001,4.8001,4.8001,4.8001,4.8001,4.8001,1.7525,1.8675,1.9943,2.0555,2.2404,2.4164,2.4559,2.4409,2.4256,2.4467,2.4595,2.4858,2.5411,2.7542,3.0423,3.4138,3.4727,3.5191,3.6507,3.7105,3.7719,3.8542,3.9077,3.9406,3.9406,3.9406,3.9406,3.9406,3.9406,3.9406,3.9406,3.9406,3.9406,3.9406,3.9406,3.9406,3.9406,3.9406,3.9406,3.9406,3.9406,3.9406,3.9406,3.9406,3.9406,3.9406,3.9406,3.9824,4.0512,4.0668,4.1459,4.2617,4.2772,4.3159,4.3598,4.3598,4.3598,4.3598,4.3598,4.3598,4.3598,4.3598,4.3598,4.3598,4.3598,4.3598,4.3598,4.3598,4.3598,4.3598,4.3598,4.3598,4.3598,4.3598,4.3598,4.3598,4.3598,4.3598,4.3598,4.3598,4.3598,4.3598,4.3598,4.3598,4.3598,4.3598,4.3598,4.3598,4.3598,4.3598,4.3598,4.3598,4.3598,4.3598,4.3598,4.3928,4.459,4.5715,4.6643,4.7404,4.7984,4.8001,4.8001,4.8001,4.8001,4.8001,4.8001,4.8001,4.8001,4.8001,4.8001,4.8001,1.8493,1.929,1.9943,2.0555,2.0868,2.1889,2.5212,2.4723,2.4356,2.7173,2.8166,2.8681,2.929,3.1412,3.3617,3.5174,3.5429,3.5878,3.7165,3.7357,3.7881,3.9167,3.9376,3.9406,3.9406,3.9406,3.9406,3.9406,3.9406,3.9406,3.9406,3.9406,3.9406,3.9406,3.9406,3.9406,3.9406,3.9406,3.9406,3.9406,3.9406,3.9406,3.9406,3.9406,3.9406,3.9406,3.9406,3.9824,4.0547,4.116,4.1884,4.2663,4.328,4.3568,4.3598,4.3598,4.3598,4.3598,4.3598,4.3598,4.3598,4.3598,4.3598,4.3598,4.3598,4.3598,4.3598,4.3598,4.3598,4.3598,4.3598,4.3598,4.3598,4.3598,4.3598,4.3598,4.3598,4.3598,4.3598,4.3598,4.3598,4.3598,4.3598,4.3598,4.3598,4.3598,4.3598,4.3598,4.3598,4.3598,4.3598,4.3598,4.3598,4.3598,4.3598,4.4854,4.5697,4.5781,4.7123,4.7934,4.8001,4.8001,4.8001,4.8001,4.8001,4.8001,4.8001,4.8001,4.8001,4.8001,4.8001,4.8001,1.7735,1.9387,2.1016,2.1155,2.2047,2.3553,2.612,2.7357,2.8382,2.9862,3.0684,3.1344,3.1982,3.3217,3.4428,3.5355,3.5504,3.5818,3.6701,3.7165,3.7749,3.8676,3.9137,3.9406,3.9406,3.9017,3.8781,3.8781,3.8392,3.815,3.815,3.815,3.815,3.815,3.815,3.815,3.815,3.815,3.815,3.8165,3.9002,3.9406,3.9406,3.9406,3.9406,3.9424,3.9879,4.0478,4.1177,4.1884,4.2601,4.325,4.3492,4.3598,4.3598,4.3598,4.3598,4.3598,4.3598,4.3598,4.3598,4.3598,4.3598,4.3598,4.3598,4.3598,4.3598,4.3598,4.3598,4.3598,4.3598,4.3598,4.3598,4.3598,4.3598,4.3598,4.3598,4.3598,4.3598,4.3598,4.3598,4.3598,4.3598,4.3598,4.3598,4.3598,4.3598,4.3598,4.3598,4.3598,4.3598,4.3598,4.3598,4.3795,4.4257,4.5218,4.6012,4.646,4.7438,4.8001,4.8001,4.8001,4.8001,4.8001,4.8001,4.8001,4.8001,4.8001,4.8001,4.8001,4.8001,4.8001,1.7515,1.9237,2.1138,2.1444,2.2908,2.4914,2.7426,2.9103,3.0618,3.2335,3.3098,3.3583,3.4053,3.4514,3.4982,3.5429,3.5504,3.5729,3.6404,3.6851,3.736,3.8003,3.8497,3.8763,3.8763,3.8362,3.8078,3.8078,3.7659,3.7387,3.7387,3.7387,3.7387,3.7387,3.7387,3.7387,3.7387,3.7387,3.7387,3.7402,3.8329,3.8868,3.9077,3.9302,3.9406,3.9427,4.0181,4.0873,4.1558,4.2301,4.2989,4.3598,4.3598,4.3598,4.3598,4.3598,4.3598,4.3598,4.3598,4.3598,4.3598,4.3598,4.3598,4.3598,4.3598,4.3598,4.3598,4.3598,4.3598,4.3598,4.3598,4.3598,4.3598,4.3598,4.3598,4.3598,4.3598,4.3598,4.3598,4.3598,4.3598,4.3598,4.3598,4.3598,4.3598,4.3598,4.3598,4.3598,4.3598,4.3598,4.3598,4.3598,4.3598,4.3795,4.4307,4.5235,4.6013,4.651,4.7454,4.8001,4.8001,4.8001,4.8001,4.8001,4.8001,4.8001,4.8001,4.8001,4.8001,4.8001,4.8001,4.8001,1.8216,1.8884,2.0023,2.1299,2.306,2.5409,2.9086,2.9405,3.0164,3.4577,3.5488,3.5488,3.5504,3.5504,3.5504,3.5504,3.5504,3.5729,3.6404,3.6508,3.6716,3.733,3.7387,3.7387,3.7387,3.7387,3.7404,3.7404,3.7404,3.7389,3.7389,3.7389,3.7389,3.7389,3.7389,3.7389,3.7389,3.7389,3.7389,3.7389,3.7404,3.7749,3.8424,3.9077,3.9391,3.9427,4.0181,4.089,4.1558,4.2301,4.3005,4.3598,4.3598,4.3598,4.3598,4.3598,4.3598,4.3598,4.3598,4.3598,4.3598,4.3598,4.3598,4.3598,4.3598,4.3598,4.3598,4.3598,4.3598,4.3598,4.3598,4.3598,4.3598,4.3598,4.3598,4.3598,4.3598,4.3598,4.3598,4.3598,4.3598,4.3598,4.3598,4.3598,4.3598,4.3598,4.3598,4.3598,4.3598,4.3598,4.3598,4.3598,4.3598,4.3598,4.3615,4.497,4.5813,4.5798,4.7189,4.8001,4.8001,4.8001,4.8001,4.8001,4.8001,4.8001,4.8001,4.8001,4.8001,4.8001,4.8001,4.8001,1.762,1.9523,2.1865,2.2719,2.555,2.877,3.1237,3.1241,3.147,3.4099,3.466,3.4839,3.5392,3.5504,3.5504,3.5504,3.5504,3.5579,3.5774,3.6193,3.6568,3.6746,3.715,3.7387,3.7387,3.7015,3.6761,3.6761,3.6327,3.6073,3.6073,3.6073,3.6073,3.6073,3.6073,3.6073,3.6073,3.6073,3.6073,3.6073,3.6537,3.709,3.7719,3.8392,3.8691,3.8792,4.0469,4.131,4.1591,4.2803,4.3417,4.3598,4.3598,4.3598,4.3598,4.3598,4.3598,4.3598,4.3598,4.3598,4.3598,4.3598,4.3598,4.3598,4.3598,4.3598,4.3598,4.3598,4.3598,4.3598,4.3598,4.3598,4.3598,4.3598,4.3598,4.3598,4.3598,4.3598,4.3598,4.3598,4.3598,4.3598,4.3598,4.3598,4.3598,4.3598,4.3598,4.3598,4.3598,4.3598,4.3598,4.3598,4.3598,4.3812,4.4324,4.5251,4.6013,4.6527,4.7471,4.8001,4.8001,4.8001,4.8001,4.8001,4.8001,4.8001,4.8001,4.8001,4.8001,4.8001,4.8001,4.8001,1.8808,2.0777,2.3202,2.5135,2.7696,3.0355,3.2727,3.3178,3.3411,3.4547,3.4774,3.4922,3.5408,3.5504,3.5504,3.5504,3.5504,3.5504,3.5504,3.5848,3.6088,3.6088,3.6432,3.6656,3.6656,3.6312,3.6088,3.6088,3.5729,3.5504,3.5504,3.5504,3.5504,3.5504,3.5504,3.5504,3.5504,3.5504,3.5504,3.5504,3.5908,3.6282,3.6686,3.818,3.8847,3.8946,4.1029,4.2078,4.2396,4.325,4.3598,4.3598,4.3598,4.3598,4.3598,4.3598,4.3598,4.3598,4.3598,4.3598,4.3598,4.3598,4.3598,4.3598,4.3598,4.3598,4.3598,4.3598,4.3598,4.3598,4.3598,4.3598,4.3598,4.3598,4.3598,4.3598,4.3598,4.3598,4.3598,4.3598,4.3598,4.3598,4.3598,4.3598,4.3598,4.3598,4.3598,4.3598,4.3598,4.3598,4.3598,4.3598,4.3598,4.3779,4.4224,4.5202,4.5996,4.6427,4.7438,4.8001,4.8001,4.8001,4.8001,4.8001,4.8001,4.8001,4.8001,4.8001,4.8001,4.8001,4.8001,4.8166,2.0805,2.2183,2.4037,2.7805,2.9534,3.1044,3.3773,3.4986,3.5488,3.5423,3.5455,3.5504,3.5504,3.5504,3.5504,3.5504,3.5504,3.5504,3.5504,3.5504,3.5504,3.5504,3.5504,3.5504,3.5504,3.5504,3.5504,3.5504,3.5504,3.5504,3.5504,3.5504,3.5504,3.5504,3.5504,3.5504,3.5504,3.5504,3.5504,3.5521,3.5504,3.5504,3.5597,3.8084,3.9371,3.9727,4.163,4.2909,4.3643,4.3643,4.3643,4.3628,4.3643,4.3643,4.3628,4.3643,4.3643,4.3628,4.3628,4.3613,4.3598,4.3598,4.3598,4.3598,4.3598,4.3598,4.3598,4.3598,4.3598,4.3598,4.3598,4.3598,4.3598,4.3598,4.3598,4.3598,4.3598,4.3598,4.3598,4.3598,4.3598,4.3598,4.3598,4.3598,4.3598,4.3598,4.3598,4.3598,4.3598,4.3598,4.3598,4.3598,4.3598,4.3598,4.3598,4.4953,4.5813,4.5813,4.7173,4.8001,4.8001,4.8001,4.8001,4.8001,4.8001,4.8001,4.8001,4.8001,4.8001,4.8001,4.8001,4.8365,1.9237,2.1363,2.413,2.7427,3.1287,3.4435,3.5096,3.5375,3.5311,3.4677,3.5052,3.5504,3.5504,3.5504,3.5504,3.5504,3.5504,3.5504,3.5504,3.5504,3.5504,3.5504,3.5504,3.5504,3.5504,3.5504,3.5504,3.5504,3.5504,3.5504,3.5504,3.5504,3.5504,3.5504,3.5504,3.5504,3.5504,3.5504,3.5539,3.5654,3.5554,3.5554,3.5685,3.6696,3.8378,4.0546,4.1102,4.2357,4.3996,4.3996,4.3939,4.3853,4.3952,4.3939,4.3853,4.3952,4.3925,4.3839,4.3839,4.3734,4.3598,4.3598,4.3598,4.3598,4.3598,4.3598,4.3598,4.3598,4.3598,4.3598,4.3598,4.3598,4.3598,4.3598,4.3598,4.3598,4.3598,4.3598,4.3598,4.3598,4.3598,4.3598,4.3598,4.3598,4.3598,4.3598,4.3598,4.3598,4.3598,4.3598,4.3598,4.3598,4.3598,4.3598,4.3598,4.4953,4.5813,4.5813,4.7173,4.8001,4.8001,4.8001,4.8001,4.8001,4.8001,4.8001,4.8001,4.8001,4.8001,4.8001,4.8001,4.8084,1.9623,2.1932,2.4818,2.9127,3.2867,3.5504,3.5504,3.5504,3.5375,3.4955,3.5213,3.5504,3.5504,3.5504,3.5504,3.5504,3.5504,3.5504,3.5504,3.5504,3.5522,3.5588,3.5538,3.5537,3.5588,3.5538,3.5504,3.5504,3.5504,3.5504,3.5504,3.5504,3.5522,3.5589,3.5538,3.5522,3.5604,3.5604,3.5637,3.5704,3.5718,3.5781,3.5878,3.7027,3.8717,4.0802,4.161,4.2582,4.3609,4.3946,4.407,4.3998,4.4068,4.4056,4.3998,4.4068,4.4056,4.3998,4.3998,4.3939,4.3835,4.3835,4.3791,4.3748,4.3748,4.3689,4.3598,4.3598,4.3598,4.3598,4.3598,4.3598,4.3598,4.3598,4.3598,4.3598,4.3598,4.3598,4.3598,4.3598,4.3598,4.3598,4.3598,4.3598,4.3598,4.3598,4.3598,4.3598,4.3598,4.3673,4.3748,4.3748,4.3791,4.3805,4.3748,4.506,4.5875,4.5797,4.7173,4.8001,4.8001,4.8001,4.8001,4.8001,4.8001,4.8001,4.8001,4.8001,4.8001,4.8001,4.8001,4.8199,1.9966,2.2606,2.58,3.1053,3.3849,3.5355,3.5458,3.5504,3.5504,3.5504,3.5504,3.5504,3.5504,3.5504,3.5504,3.5504,3.5504,3.5504,3.5522,3.5538,3.5588,3.572,3.5637,3.562,3.5736,3.562,3.5538,3.557,3.5554,3.5538,3.557,3.5602,3.5636,3.5751,3.5636,3.5636,3.5752,3.5752,3.5768,3.58,3.5958,3.6021,3.6052,3.7789,3.9264,4.0507,4.1811,4.2626,4.311,4.3716,4.4037,4.414,4.4169,4.4169,4.414,4.4169,4.4155,4.414,4.414,4.4126,4.4097,4.4097,4.4027,4.3942,4.3942,4.3822,4.3687,4.3687,4.3687,4.3687,4.3687,4.3687,4.3687,4.3687,4.3687,4.3673,4.3613,4.3598,4.3598,4.3598,4.3628,4.3643,4.3613,4.3628,4.3643,4.3613,4.3598,4.3598,4.3598,4.3778,4.3883,4.3853,4.3998,4.4056,4.3912,4.5212,4.5982,4.5844,4.7221,4.8033,4.8001,4.8001,4.8001,4.8001,4.8001,4.8001,4.8001,4.8001,4.8001,4.8001,4.8001,4.8332,1.7526,2.177,2.6858,3.0756,3.3201,3.4787,3.537,3.5504,3.5504,3.5504,3.5504,3.5504,3.5504,3.5504,3.5504,3.5504,3.5504,3.5538,3.5654,3.5672,3.5751,3.5941,3.5941,3.5941,3.5957,3.5783,3.5751,3.591,3.5767,3.5751,3.5926,3.5926,3.5941,3.5957,3.5941,3.5941,3.5957,3.5957,3.6022,3.6133,3.6148,3.6116,3.6053,3.7447,3.8565,3.9423,3.9737,4.1194,4.3351,4.3439,4.3791,4.4296,4.4471,4.4426,4.4296,4.4471,4.4426,4.4281,4.4281,4.4212,4.4097,4.4097,4.4083,4.4068,4.4068,4.4054,4.4025,4.4025,4.4025,4.4025,4.4025,4.4025,4.4025,4.4025,4.4025,4.3952,4.3658,4.3598,4.3598,4.3598,4.3748,4.3793,4.3628,4.3748,4.3793,4.3628,4.3598,4.3598,4.3598,4.3778,4.3822,4.3658,4.3908,4.4056,4.3912,4.5349,4.6182,4.5982,4.7364,4.8115,4.8001,4.8001,4.8001,4.8001,4.8001,4.8001,4.8001,4.8001,4.8001,4.8001,4.8001,4.805,1.8937,2.2618,2.6524,3.0176,3.2254,3.3649,3.4712,3.4952,3.5056,3.5429,3.557,3.5588,3.5521,3.5504,3.5504,3.5504,3.5555,3.5622,3.5688,3.5799,3.5926,3.6085,3.6053,3.6037,3.6101,3.5958,3.5894,3.5989,3.591,3.591,3.6005,3.6005,3.6037,3.6101,3.6037,3.6037,3.6116,3.6116,3.6195,3.6367,3.6367,3.6336,3.6305,3.7236,3.7982,3.8605,3.9863,4.1308,4.2828,4.3237,4.3835,4.4468,4.4556,4.4542,4.4468,4.457,4.4542,4.4468,4.4468,4.4426,4.4386,4.4386,4.4298,4.421,4.421,4.4169,4.4097,4.4097,4.4097,4.4097,4.4097,4.4097,4.4097,4.4097,4.4097,4.4054,4.3908,4.3879,4.3879,4.3879,4.3881,4.3898,4.3879,4.3881,4.3898,4.3879,4.3822,4.3807,4.3864,4.4025,4.4097,4.3993,4.4227,4.4315,4.414,4.5526,4.6287,4.6028,4.7379,4.8163,4.8115,4.8115,4.8163,4.8276,4.8179,4.8115,4.8115,4.8228,4.8276,4.8276,4.8276,4.8228,1.962,2.2189,2.4598,2.8597,3.0484,3.1841,3.3635,3.4041,3.4281,3.512,3.5382,3.5476,3.559,3.5619,3.5603,3.5554,3.5686,3.5799,3.5816,3.5958,3.6116,3.6258,3.6195,3.6163,3.6258,3.6147,3.6068,3.6116,3.6084,3.6068,3.6116,3.6116,3.6179,3.6274,3.6179,3.6179,3.6274,3.6274,3.6352,3.6507,3.6507,3.6569,3.6754,3.7342,3.7881,3.8388,3.9997,4.1191,4.2049,4.2611,4.342,4.4296,4.4296,4.4415,4.4615,4.4615,4.4615,4.4615,4.4615,4.4615,4.4615,4.4615,4.4499,4.4367,4.4367,4.4312,4.4229,4.4229,4.4229,4.4229,4.4229,4.4229,4.4229,4.4229,4.4229,4.4198,4.4112,4.4097,4.4097,4.4097,4.4056,4.4027,4.4083,4.4056,4.4027,4.4083,4.4012,4.3983,4.4099,4.421,4.4296,4.4253,4.4454,4.4528,4.4324,4.5517,4.6253,4.6134,4.7338,4.8124,4.8276,4.8276,4.834,4.8499,4.8388,4.8324,4.8276,4.8436,4.8499,4.8499,4.8499,4.842,1.7487,1.8846,2.0564,2.5333,2.7443,2.9115,3.2105,3.2795,3.3156,3.4466,3.4753,3.4996,3.582,3.5973,3.591,3.572,3.5847,3.6037,3.6164,3.618,3.6258,3.646,3.6476,3.6476,3.6476,3.632,3.6258,3.646,3.6305,3.6274,3.646,3.6476,3.6476,3.6476,3.6476,3.6476,3.6476,3.6476,3.6492,3.6507,3.6507,3.68,3.7372,3.7982,3.8574,3.9135,3.9252,4.0047,4.1271,4.1292,4.2155,4.3457,4.3457,4.3927,4.4615,4.4615,4.4615,4.4615,4.4615,4.4615,4.4615,4.4615,4.4584,4.4584,4.4584,4.457,4.457,4.457,4.457,4.457,4.457,4.457,4.457,4.457,4.457,4.4485,4.4169,4.4097,4.4097,4.4097,4.4212,4.4239,4.4126,4.4196,4.4239,4.4126,4.4083,4.4083,4.4097,4.421,4.4253,4.4126,4.44,4.4528,4.4324,4.5197,4.5954,4.6449,4.7192,4.7887,4.845,4.8483,4.8483,4.8499,4.8691,4.8658,4.8483,4.8499,4.8499,4.8499,4.8499,4.8499,1.6611,1.825,2.0169,2.2707,2.5131,2.7366,2.9192,3.0983,3.2473,3.3261,3.394,3.444,3.4622,3.5397,3.5973,3.5894,3.6022,3.6148,3.618,3.6305,3.6414,3.6492,3.6507,3.6507,3.6507,3.643,3.6414,3.6492,3.643,3.6414,3.6507,3.6507,3.6507,3.6507,3.6507,3.6507,3.6507,3.6507,3.6507,3.6507,3.6892,3.7193,3.7416,3.8437,3.9001,3.9219,3.9618,4.0314,4.1204,4.1204,4.1796,4.2743,4.322,4.3575,4.3893,4.4415,4.4615,4.4615,4.4615,4.4615,4.4615,4.4615,4.4615,4.4615,4.4615,4.4615,4.4615,4.4615,4.4615,4.4615,4.4615,4.4615,4.4615,4.4615,4.4615,4.4556,4.4443,4.4327,4.4284,4.44,4.4355,4.4324,4.4415,4.4338,4.4324,4.4415,4.4312,4.4267,4.44,4.4454,4.4468,4.4429,4.4528,4.457,4.4499,4.5235,4.5935,4.6464,4.7189,4.7931,4.8673,4.869,4.8721,4.8831,4.8893,4.8848,4.869,4.8784,4.8831,4.8831,4.8831,4.8768,1.5692,1.72,1.9106,2.0971,2.289,2.4909,2.7125,2.9029,3.0676,3.1941,3.2918,3.3644,3.4027,3.4866,3.5553,3.5704,3.6058,3.6289,3.6289,3.6414,3.6507,3.6507,3.6507,3.6507,3.6507,3.6507,3.6507,3.6507,3.6507,3.6507,3.6507,3.6507,3.6507,3.6507,3.6507,3.6507,3.6507,3.6507,3.6507,3.6507,3.7119,3.7505,3.7738,3.8742,3.9312,3.951,3.9931,4.0371,4.0832,4.0832,4.1271,4.1982,4.2459,4.2966,4.3457,4.3995,4.4364,4.4615,4.4615,4.4615,4.4615,4.4615,4.4615,4.4615,4.4615,4.4615,4.4615,4.4615,4.4615,4.4615,4.4615,4.4615,4.4615,4.4615,4.4615,4.4615,4.4615,4.4499,4.444,4.457,4.4483,4.444,4.457,4.4483,4.444,4.457,4.4483,4.4454,4.4584,4.4615,4.4615,4.4615,4.4615,4.4615,4.4615,4.5058,4.5694,4.6553,4.7061,4.7786,4.8813,4.8863,4.891,4.9001,4.9001,4.8972,4.8863,4.8972,4.9001,4.9001,4.9001,4.8956,0.0,0.0,0.0,2.0045,2.0681,2.1711,2.5939,2.6929,2.7729,3.0511,3.1624,3.2553,3.4121,3.4428,3.46,3.5064,3.5891,3.6461,3.6461,3.6492,3.6507,3.6507,3.6507,3.6507,3.6507,3.6507,3.6507,3.6507,3.6507,3.6507,3.6507,3.6507,3.6507,3.6507,3.6507,3.6507,3.6507,3.6507,3.6507,3.6538,3.7149,3.7738,3.8365,3.8947,3.9553,4.0096,4.0096,4.0096,4.0096,4.0096,4.0523,4.117,4.1187,4.207,4.3338,4.3355,4.3876,4.455,4.455,4.4567,4.4615,4.4615,4.4615,4.4615,4.4615,4.4615,4.4615,4.4615,4.4615,4.4615,4.4615,4.4615,4.4615,4.4615,4.4615,4.4615,4.4615,4.4615,4.4615,4.4615,4.4615,4.4615,4.4615,4.4615,4.4615,4.4615,4.4615,4.4615,4.4615,4.4615,4.4615,4.4615,4.4615,4.4615,4.4615,4.4632,4.5244,4.6716,4.6817,4.7479,4.8934,4.9001,4.9001,4.9001,4.9001,4.9001,4.9001,4.9001,4.9001,4.9001,4.9001,4.9001,1.4842,0.0,0.0,0.0,0.0,0.0,2.2122,2.4104,2.6191,2.7954,2.8915,3.0022,3.1919,3.2642,3.3168,3.3802,3.4953,3.5783,3.5783,3.6184,3.6507,3.6507,3.6507,3.6507,3.6507,3.6507,3.6507,3.6507,3.6507,3.6507,3.6507,3.6507,3.6507,3.6507,3.6507,3.6507,3.6507,3.6507,3.6723,3.7148,3.7767,3.8365,3.8974,3.9592,3.9944,4.0096,4.0096,4.0096,4.0096,4.0096,4.0218,4.0455,4.0984,4.1444,4.1867,4.2405,4.3081,4.3727,4.3727,4.4113,4.4615,4.4615,4.4615,4.4615,4.4615,4.4615,4.4615,4.4615,4.4615,4.4615,4.4615,4.4615,4.4615,4.4615,4.4615,4.4615,4.4615,4.4615,4.4615,4.4615,4.4615,4.4615,4.4615,4.4615,4.4615,4.4615,4.4615,4.4615,4.4615,4.4615,4.4615,4.4615,4.4615,4.4615,4.4615,4.5091,4.5788,4.6735,4.731,4.8022,4.8968,4.9001,4.9001,4.9001,4.9001,4.9001,4.9001,4.9001,4.9001,4.9001,4.9001,4.9001,0.0,0.0,0.0,1.7196,0.0,0.0,2.0859,2.2518,2.4412,2.6068,2.7026,2.8088,2.984,3.0705,3.1382,3.203,3.3306,3.4413,3.4998,3.566,3.6091,3.6091,3.6338,3.6507,3.6507,3.6507,3.6507,3.6507,3.6507,3.6507,3.6507,3.6739,3.677,3.6507,3.6982,3.7133,3.6876,3.7133,3.7431,3.7781,3.8393,3.8865,3.9219,3.9812,4.0096,4.0096,4.0096,4.0096,4.0096,4.0096,4.0096,4.0146,4.0574,4.0933,4.1255,4.1677,4.2303,4.2932,4.2932,4.325,4.3687,4.3995,4.4096,4.4147,4.4499,4.4615,4.4615,4.4615,4.4615,4.4615,4.4615,4.4615,4.4615,4.4615,4.4615,4.4615,4.4615,4.4615,4.4615,4.4615,4.4615,4.4615,4.4615,4.4615,4.4615,4.4615,4.4615,4.4615,4.4615,4.4615,4.4615,4.4615,4.4615,4.4719,4.5041,4.5449,4.616,4.7192,4.7667,4.8225,4.8968,4.9001,4.9001,4.9001,4.9001,4.9001,4.9001,4.9001,4.9001,4.9001,4.9001,4.9001,0.0,0.0,0.0,0.0,1.9089,0.0,2.1073,2.1786,2.2789,2.4594,2.5487,2.6376,2.7796,2.8599,2.9261,2.9848,3.1199,3.269,3.4181,3.4952,3.5383,3.5383,3.5922,3.6276,3.6276,3.6353,3.6399,3.6399,3.6445,3.6507,3.6507,3.7058,3.7148,3.6631,3.7707,3.8039,3.752,3.8025,3.832,3.8407,3.8947,3.9232,3.9312,3.9867,4.0096,4.0096,4.0096,4.0096,4.0096,4.0096,4.0096,4.0096,4.0096,4.0506,4.1085,4.1085,4.1542,4.2181,4.2181,4.2232,4.2422,4.3152,4.3406,4.3558,4.4364,4.4615,4.4615,4.4615,4.4615,4.4615,4.4615,4.4615,4.4615,4.4615,4.4615,4.4615,4.4615,4.4615,4.4615,4.4615,4.4615,4.4615,4.4615,4.4615,4.4615,4.4615,4.4615,4.4615,4.4615,4.4615,4.4615,4.4615,4.4615,4.4905,4.5652,4.5788,4.6416,4.7819,4.7988,4.8326,4.8984,4.9001,4.9001,4.9001,4.9001,4.9001,4.9001,4.9001,4.9001,4.9001,4.9001,4.9001,0.0,0.0,0.0,0.0,2.0878,0.0,2.0318,2.1341,2.2793,2.2878,2.3004,2.3681,2.5553,2.6503,2.7011,2.7095,2.9171,3.1445,3.3352,3.4244,3.4705,3.4705,3.4813,3.489,3.489,3.5368,3.5706,3.5706,3.6199,3.6507,3.6507,3.7058,3.7343,3.7223,3.7924,3.8236,3.8124,3.8236,3.8546,3.9028,3.9135,3.9457,3.9931,4.0045,4.0096,4.0096,4.0096,4.0096,4.0096,4.0096,4.0096,4.0096,4.0096,4.0185,4.0303,4.0303,4.0781,4.1407,4.1407,4.1796,4.2422,4.3152,4.3406,4.3558,4.4364,4.4615,4.4615,4.4615,4.4615,4.4615,4.4615,4.4615,4.4615,4.4615,4.4615,4.4615,4.4615,4.4615,4.4615,4.4615,4.4615,4.4615,4.4615,4.4615,4.4615,4.4615,4.4615,4.4615,4.4615,4.4615,4.4615,4.4615,4.4615,4.4905,4.5652,4.6244,4.6972,4.7853,4.8462,4.8849,4.9001,4.9001,4.9001,4.9001,4.9001,4.9001,4.9001,4.9001,4.9001,4.9001,4.9001,4.9001,0.0,0.0,0.0,2.0637,2.1875,0.0,0.0,2.1817,2.2332,2.3128,2.2496,2.2419,2.443,2.5102,2.5456,2.5742,2.7818,2.9645,3.0304,3.2165,3.3443,3.3443,3.3751,3.3951,3.3951,3.4582,3.4998,3.4998,3.5614,3.5999,3.5999,3.7182,3.7709,3.7417,3.8574,3.9052,3.8739,3.9038,3.9348,3.9657,3.9657,3.9799,4.0096,4.0096,4.0096,4.0096,4.0096,4.0096,4.0096,4.0096,4.0096,4.0096,4.0096,4.0096,4.0096,4.0096,4.032,4.0658,4.0658,4.0895,4.1386,4.2489,4.2861,4.3064,4.4245,4.4615,4.4615,4.4615,4.4615,4.4615,4.4615,4.4615,4.4615,4.4615,4.4615,4.4615,4.4615,4.4615,4.4615,4.4615,4.4615,4.4615,4.4615,4.4615,4.4615,4.4615,4.4615,4.4615,4.4615,4.4615,4.4615,4.4615,4.4939,4.5449,4.6194,4.6921,4.765,4.8394,4.8798,4.9001,4.9001,4.9001,4.9001,4.9001,4.9001,4.9001,4.9001,4.9001,4.9001,4.9001,4.9001,4.9001,2.104,2.1197,2.1932,2.2423,2.294,2.3287,0.0,0.0,0.0,2.364,2.2619,2.1997,2.3625,2.3917,2.4056,2.4461,2.6369,2.7519,2.6718,2.9273,3.1274,3.1413,3.2259,3.287,3.2966,3.3561,3.419,3.4777,3.4905,3.5201,3.5804,3.7368,3.8106,3.7752,3.9282,3.988,3.9378,3.9867,4.0096,4.0096,4.0096,4.0096,4.0096,4.0096,4.0096,4.0096,4.0096,4.0096,4.0096,4.0096,4.0096,4.0096,4.0096,4.0096,4.0096,4.0096,4.0096,4.0096,4.0096,4.0185,4.0523,4.1877,4.2503,4.2976,4.4212,4.4615,4.4615,4.4615,4.4615,4.4615,4.4615,4.4615,4.4615,4.4615,4.4615,4.4615,4.4615,4.4615,4.4615,4.4615,4.4615,4.4615,4.4615,4.4615,4.4615,4.4615,4.4615,4.4615,4.4615,4.4615,4.4615,4.4615,4.5128,4.5838,4.6733,4.7361,4.8056,4.8951,4.9001,4.9001,4.9001,4.9001,4.9001,4.9001,4.9001,4.9001,4.9001,4.9001,4.9001,4.9001,4.9001,4.9001,2.4373,2.5201,2.585,2.3047,2.4866,2.6292,2.2295,0.0,2.3539,2.2697,0.0,2.2259,2.2496,0.0,0.0,2.1843,2.3948,2.5215,2.3948,2.563,2.7245,2.7888,2.9615,3.0933,3.1398,3.1794,3.3101,3.5725,3.4114,3.4181,3.6865,3.773,3.8378,3.8971,3.9709,4.0058,3.9995,4.0058,4.0096,4.0096,4.0096,4.0096,4.0096,4.0096,4.0096,4.0096,4.0096,4.0096,4.0096,4.0096,4.0096,4.0096,4.0096,4.0096,4.0096,4.0096,4.0096,4.0096,4.0096,4.0523,4.1221,4.2029,4.3213,4.4364,4.4564,4.4615,4.4615,4.4615,4.4615,4.4615,4.4615,4.4615,4.4615,4.4615,4.4615,4.4615,4.4615,4.4615,4.4615,4.4615,4.4615,4.4615,4.4615,4.4615,4.4615,4.4615,4.4615,4.4615,4.4615,4.4615,4.4615,4.4615,4.4668,4.5294,4.6682,4.687,4.7513,4.8917,4.9001,4.9001,4.9001,4.9001,4.9001,4.9001,4.9001,4.9001,4.9001,4.9001,4.9001,4.9001,4.9001,4.9001,2.5287,2.5833,2.6374,2.492,2.5478,0.0,2.3488,0.0,2.2664,2.3323,0.0,0.0,0.0,0.0,0.0,0.0,2.3148,2.3671,2.2326,2.3861,2.5399,2.6092,2.6938,2.812,2.9825,3.0108,3.115,3.3439,3.2503,3.2846,3.5162,3.7062,3.8245,3.8543,3.9568,4.0096,4.0096,4.0096,4.0096,4.0096,4.0096,4.0096,4.0096,4.0096,4.0096,4.0096,4.0096,4.0096,4.0096,4.0096,4.0096,4.0096,4.0096,4.0096,4.0096,4.0096,4.0096,4.0163,4.0591,4.0933,4.139,4.256,4.369,4.4615,4.4615,4.4615,4.4615,4.4615,4.4615,4.4615,4.4615,4.4615,4.4615,4.4615,4.4615,4.4615,4.4615,4.4615,4.4615,4.4615,4.4615,4.4615,4.4615,4.4615,4.4615,4.4615,4.4615,4.4615,4.4615,4.4615,4.4615,4.4615,4.499,4.5652,4.6716,4.7192,4.7902,4.8934,4.9001,4.9001,4.9001,4.9001,4.9001,4.9001,4.9001,4.9001,4.9001,4.9001,4.9001,4.9001,4.9001,4.9001,2.6715,0.0,0.0,0.0,0.0,0.0,0.0,0.0,0.0,0.0,2.3327,0.0,0.0,0.0,0.0,0.0,0.0,2.2773,2.1242,2.2434,2.3656,2.4138,2.4823,2.6034,2.808,2.8109,2.8898,3.1035,3.0422,3.1168,3.3929,3.6183,3.7699,3.8328,3.9493,4.0096,4.0096,4.0096,4.0096,4.0096,4.0096,4.0096,4.0096,4.0096,4.0096,4.0096,4.0096,4.0096,4.0096,4.0096,4.0096,4.0096,4.0096,4.0096,4.0096,4.0096,4.0096,4.0214,4.0933,4.1461,4.2019,4.3318,4.4113,4.4615,4.4615,4.4615,4.4615,4.4615,4.4615,4.4615,4.4615,4.4615,4.4615,4.4615,4.4615,4.4615,4.4615,4.4615,4.4615,4.4615,4.4615,4.4615,4.4615,4.4615,4.4615,4.4615,4.4615,4.4615,4.4615,4.4615,4.4615,4.4615,4.5074,4.5703,4.643,4.7175,4.8003,4.8951,4.9001,4.9001,4.9001,4.9001,4.9001,4.9001,4.9001,4.9001,4.9001,4.9001,4.9001,4.9001,4.9001,4.9001,0.0,0.0,0.0,2.5342,0.0,0.0,0.0,0.0,2.404,0.0,0.0,0.0,0.0,0.0,0.0,0.0,0.0,0.0,0.0,2.0958,2.1396,2.1427,2.3604,2.5387,2.6125,2.5616,2.6457,2.9456,2.7914,2.9072,3.4209,3.5239,3.6687,3.8908,3.9711,4.0096,4.0096,4.0096,4.0096,4.0096,4.0096,4.0096,4.0096,4.0096,4.0096,4.0096,4.0096,4.0096,4.0096,4.0096,4.0096,4.0096,4.0096,4.0096,4.0096,4.0096,4.0096,4.0214,4.0933,4.2121,4.3474,4.4296,4.4567,4.4615,4.4615,4.4615,4.4615,4.4615,4.4615,4.4615,4.4615,4.4615,4.4615,4.4615,4.4615,4.4615,4.4615,4.4615,4.4615,4.4615,4.4615,4.4615,4.4615,4.4615,4.4615,4.4615,4.4615,4.4615,4.4615,4.4615,4.4615,4.4615,4.4632,4.4939,4.5669,4.6413,4.7445,4.8917,4.9001,4.9001,4.9001,4.9001,4.9001,4.9001,4.9001,4.9001,4.9001,4.9001,4.9001,4.9001,4.9001,4.9001,0.0,0.0,3.0304,2.7134,0.0,0.0,0.0,0.0,0.0,0.0,0.0,0.0,0.0,0.0,0.0,0.0,0.0,0.0,0.0,2.0496,2.0635,2.0635,2.2456,2.3806,2.4035,2.4038,2.5153,2.7873,2.7467,2.8611,3.2138,3.4393,3.6203,3.7494,3.873,3.9609,4.0096,4.0096,4.0096,4.0096,4.0096,4.0096,4.0096,4.0096,4.0096,4.0096,4.0096,4.0096,4.0096,4.0096,4.0096,4.0096,4.0096,4.0096,4.0096,4.0096,4.0405,4.1001,4.2222,4.3335,4.4245,4.4499,4.4615,4.4615,4.4615,4.4615,4.4615,4.4615,4.4615,4.4615,4.4615,4.4615,4.4615,4.4615,4.4615,4.4615,4.4615,4.4615,4.4615,4.4615,4.4615,4.4615,4.4615,4.4615,4.4615,4.4615,4.4615,4.4615,4.4615,4.4615,4.4615,4.4615,4.4615,4.4905,4.5652,4.6822,4.7953,4.8934,4.9001,4.9001,4.9001,4.9001,4.9001,4.9001,4.9001,4.9001,4.9001,4.9001,4.9001,4.9001,4.9001,4.9001,3.0815,3.1074,0.0,2.8598,2.7681,0.0,2.3902,0.0,2.4776,0.0,0.0,0.0,0.0,0.0,0.0,0.0,0.0,0.0,0.0,2.0296,2.0296,2.0296,2.1325,2.219,2.2568,2.2664,2.3669,2.595,2.6481,2.7789,3.0277,3.321,3.5436,3.6761,3.8239,3.9356,4.0096,4.0096,4.0096,4.0096,4.0096,4.0096,4.0096,4.0096,4.0138,4.0175,4.0125,4.0138,4.0175,4.0125,4.0096,4.0096,4.0096,4.0096,4.0096,4.0096,4.0726,4.1762,4.2983,4.3927,4.4615,4.4615,4.4615,4.4615,4.4615,4.4615,4.4615,4.4615,4.4615,4.4615,4.4615,4.4615,4.4615,4.4615,4.4615,4.4615,4.4615,4.4615,4.4615,4.4615,4.4615,4.4615,4.4615,4.4615,4.4615,4.4615,4.4615,4.4615,4.4615,4.4615,4.4615,4.4615,4.4615,4.5007,4.6007,4.6957,4.7953,4.8934,4.9001,4.9001,4.9001,4.9001,4.9001,4.9001,4.9001,4.9001,4.9001,4.9001,4.9001,4.9001,4.9001,4.9001]}]]